[[{"header":{"parameterUnit":"m.s-1","parameterCategory":1,"la1":31.0,"la2":29.5877,"lo1":-88.7671,"lo2":-86.6584,"dy":0.0162,"dx":0.0185,"nx":115,"ny":88,"refTime":"2024-09-13T12:00:00:Z","depth":0,"parameterNumber":2,"parameterNumberName":"U-component_of_WINDS"},"data":[0.0,0.0,0.0,0.0,0.0,0.0,0.0,0.0,0.0,0.0,0.0,0.0,0.0,0.0,0.0,0.0,0.0,0.0,0.0,0.0,0.0,0.0,0.0,0.0,0.0,0.0,0.0,0.0,0.0,0.0,0.0,0.0,0.0,0.0,0.0,0.0,0.0,0.0,0.0,0.0,0.0,0.0,0.0,0.0,0.0,0.0,0.0,0.0,0.0,0.0,0.0,0.0,0.0,0.0,0.0,0.0,0.0,0.0,0.0,0.0,0.0,0.0,0.0,0.0,0.0,0.0,0.0,0.0,0.0,0.0,0.0,0.0,0.0,0.0,0.0,0.0,0.0,0.0,0.0,0.0,0.0,0.0,0.0,0.0,0.0,0.0,0.0,0.0,0.0,0.0,0.0,0.0,0.0,0.0,0.0,0.0,0.0,0.0,0.0,0.0,0.0,0.0,0.0,0.0,0.0,0.0,0.0,0.0,0.0,0.0,0.0,0.0,0.0,0.0,0.0,0.0,0.0,0.0,0.0,0.0,0.0,0.0,0.0,0.0,0.0,0.0,0.0,0.0,0.0,0.0,0.0,0.0,0.0,0.0,0.0,0.0,0.0,0.0,0.0,0.0,0.0,0.0,0.0,0.0,0.0,0.0,0.0,0.0,0.0,0.0,0.0,0.0,0.0,0.0,0.0,0.0,0.0,0.0,0.0,0.0,0.0,0.0,0.0,0.0,0.0,0.0,0.0,0.0,0.0,0.0,0.0,0.0,0.0,0.0,0.0,0.0,0.0,0.0,0.0,0.0,0.0,0.0,0.0,0.0,0.0,0.0,0.0,0.0,0.0,0.0,0.0,0.0,0.0,0.0,0.0,0.0,0.0,0.0,0.0,0.0,0.0,0.0,0.0,0.0,0.0,0.0,0.0,0.0,0.0,0.0,0.0,0.0,0.0,0.0,0.0,0.0,0.0,0.0,0.0,0.0,0.0,0.0,0.0,0.0,0.0,0.0,0.0,0.0,0.0,0.0,0.0,0.0,0.0,0.0,0.0,0.0,0.0,0.0,0.0,0.0,0.0,0.0,0.0,0.0,0.0,0.0,0.0,0.0,0.0,0.0,0.0,0.0,0.0,0.0,0.0,0.0,0.0,0.0,0.0,0.0,0.0,0.0,0.0,0.0,0.0,0.0,0.0,0.0,0.0,0.0,0.0,0.0,0.0,0.0,0.0,0.0,0.0,0.0,0.0,0.0,0.0,0.0,0.0,0.0,0.0,0.0,0.0,0.0,0.0,0.0,0.0,0.0,0.0,0.0,0.0,0.0,0.0,0.0,0.0,0.0,0.0,0.0,0.0,0.0,0.0,0.0,0.0,0.0,0.0,0.0,0.0,0.0,0.0,0.0,0.0,0.0,0.0,0.0,0.0,0.0,0.0,0.0,0.0,0.0,0.0,0.0,0.0,0.0,0.0,0.0,0.0,0.0,0.0,0.0,0.0,0.0,0.0,0.0,0.0,0.0,0.0,0.0,0.0,0.0,0.0,0.0,0.0,0.0,0.0,0.0,0.0,0.0,0.0,0.0,0.0,0.0,0.0,0.0,0.0,0.0,0.0,0.0,0.0,0.0,0.0,0.0,0.0,0.0,0.0,0.0,0.0,0.0,0.0,0.0,0.0,0.0,0.0,0.0,0.0,0.0,0.0,0.0,0.0,0.0,0.0,0.0,0.0,0.0,0.0,0.0,0.0,0.0,0.0,0.0,0.0,0.0,0.0,0.0,0.0,0.0,0.0,0.0,0.0,0.0,0.0,0.0,0.0,0.0,0.0,0.0,0.0,0.0,0.0,0.0,0.0,0.0,0.0,0.0,0.0,0.0,0.0,0.0,0.0,0.0,0.0,0.0,0.0,0.0,0.0,0.0,0.0,0.0,0.0,0.0,0.0,0.0,0.0,0.0,0.0,0.0,0.0,0.0,0.0,0.0,0.0,0.0,0.0,0.0,0.0,0.0,0.0,0.0,0.0,0.0,0.0,0.0,0.0,0.0,0.0,0.0,0.0,0.0,0.0,0.0,0.0,0.0,0.0,0.0,0.0,0.0,0.0,0.0,0.0,0.0,0.0,0.0,0.0,0.0,0.0,0.0,0.0,0.0,0.0,0.0,0.0,0.0,0.0,0.0,0.0,0.0,0.0,0.0,0.0,0.0,0.0,0.0,0.0,0.0,0.0,0.0,0.0,0.0,0.0,0.0,0.0,0.0,0.0,0.0,0.0,0.0,0.0,0.0,0.0,0.0,0.0,0.0,0.0,0.0,0.0,0.0,0.0,0.0,0.0,0.0,0.0,0.0,0.0,0.0,0.0,0.0,0.0,0.0,0.0,0.0,0.0,0.0,0.0,0.0,0.0,0.0,0.0,0.0,0.0,0.0,0.0,0.0,0.0,0.0,0.0,0.0,0.0,0.0,0.0,0.0,0.0,0.0,0.0,0.0,0.0,0.0,0.0,0.0,0.0,0.0,0.0,0.0,0.0,0.0,0.0,0.0,0.0,0.0,0.0,0.0,0.0,0.0,0.0,0.0,0.0,0.0,0.0,0.0,0.0,0.0,0.0,0.0,0.0,0.0,0.0,0.0,0.0,0.0,0.0,0.0,0.0,0.0,0.0,0.0,0.0,0.0,0.0,0.0,0.0,0.0,0.0,0.0,0.0,0.0,0.0,0.0,0.0,0.0,0.0,0.0,0.0,0.0,0.0,0.0,0.0,0.0,0.0,0.0,0.0,0.0,0.0,0.0,0.0,0.0,0.0,0.0,0.0,0.0,0.0,0.0,0.0,0.0,0.0,0.0,0.0,0.0,0.0,0.0,0.0,0.0,0.0,0.0,0.0,0.0,0.0,0.0,0.0,0.0,0.0,0.0,0.0,0.0,0.0,0.0,0.0,0.0,0.0,0.0,0.0,0.0,0.0,0.0,0.0,0.0,0.0,0.0,0.0,0.0,0.0,0.0,0.0,0.0,0.0,0.0,0.0,0.0,0.0,0.0,0.0,0.0,0.0,0.0,0.0,0.0,0.0,0.0,0.0,0.0,0.0,0.0,0.0,0.0,0.0,0.0,0.0,0.0,0.0,0.0,0.0,0.0,0.0,0.0,0.0,0.0,0.0,0.0,0.0,0.0,0.0,0.0,0.0,0.0,0.0,0.0,0.0,0.0,0.0,0.0,0.0,0.0,0.0,0.0,0.0,0.0,0.0,0.0,0.0,0.0,0.0,0.0,0.0,0.0,0.0,0.0,0.0,0.0,0.0,0.0,0.0,0.0,0.0,0.0,0.0,0.0,0.0,0.0,0.0,0.0,0.0,0.0,0.0,0.0,0.0,0.0,0.0,0.0,0.0,0.0,0.0,0.0,0.0,0.0,0.0,0.0,0.0,0.0,0.0,0.0,0.0,0.0,0.0,0.0,0.0,0.0,0.0,0.0,0.0,0.0,0.0,0.0,0.0,0.0,0.0,0.0,0.0,0.0,0.0,0.0,0.0,0.0,0.0,0.0,0.0,0.0,0.0,0.0,0.0,0.0,0.0,0.0,0.0,0.0,0.0,0.0,0.0,0.0,0.0,0.0,0.0,0.0,0.0,0.0,0.0,0.0,0.0,0.0,0.0,0.0,0.0,0.0,0.0,0.0,0.0,0.0,0.0,0.0,0.0,0.0,0.0,0.0,0.0,0.0,0.0,0.0,0.0,0.0,0.0,0.0,0.0,0.0,0.0,0.0,0.0,0.0,0.0,0.0,0.0,0.0,0.0,0.0,0.0,0.0,0.0,0.0,0.0,0.0,0.0,0.0,0.0,0.0,0.0,0.0,0.0,0.0,0.0,0.0,0.0,0.0,0.0,0.0,0.0,0.0,0.0,0.0,0.0,0.0,0.0,0.0,0.0,0.0,0.0,0.0,0.0,0.0,0.0,0.0,0.0,0.0,0.0,0.0,0.0,0.0,0.0,0.0,0.0,0.0,0.0,0.0,0.0,0.0,0.0,0.0,0.0,0.0,0.0,0.0,0.0,0.0,0.0,0.0,0.0,0.0,0.0,0.0,0.0,0.0,0.0,0.0,0.0,0.0,0.0,0.0,0.0,0.0,0.0,0.0,0.0,0.0,0.0,0.0,0.0,0.0,0.0,0.0,0.0,0.0,0.0,0.0,0.0,0.0,0.0,0.0,0.0,0.0,0.0,0.0,0.0,0.0,0.0,0.0,0.0,0.0,0.0,0.0,0.0,0.0,0.0,0.0,0.0,0.0,0.0,0.0,1.0322,0.0,0.0,0.0,0.0,0.0,0.0,0.0,0.0,0.0,0.0,0.0,0.0,0.0,0.0,0.0,0.0,0.0,0.0,0.0,0.0,0.0,0.0,0.0,0.0,0.0,0.0,0.0,0.0,0.0,0.0,0.0,0.0,0.0,0.0,0.0,0.0,0.0,0.0,0.0,0.0,0.0,0.0,0.0,0.0,0.0,0.0,0.0,0.0,0.0,0.0,0.0,0.0,0.0,0.0,0.0,0.0,0.0,0.0,0.0,0.0,0.0,0.0,0.0,0.0,0.0,0.0,0.0,0.0,0.0,0.0,0.0,0.0,0.0,0.0,0.0,0.0,0.0,0.0,0.0,0.0,0.0,0.0,0.0,0.0,0.0,0.0,0.0,0.0,0.0,0.0,0.0,0.0,0.0,0.0,0.0,0.0,0.0,0.0,0.0,0.0,0.0,0.0,0.0,0.0,0.0,0.0,0.0,0.0,0.0,0.0,1.0322,1.0322,1.0322,1.0322,1.0332,0.0,0.0,0.0,0.0,0.0,0.0,0.0,0.0,0.0,0.0,0.0,0.0,0.0,0.0,0.0,0.0,0.0,0.0,0.0,0.0,0.0,0.0,0.0,0.0,0.0,0.0,0.0,0.0,0.0,0.0,0.0,0.0,0.0,0.0,0.0,0.0,0.0,0.0,0.0,0.0,0.0,0.0,0.0,0.0,0.0,0.0,0.0,0.0,0.0,0.0,0.0,0.0,0.0,0.0,0.0,0.0,0.0,0.0,0.0,0.0,0.0,0.0,0.0,0.0,0.0,0.0,0.0,0.0,0.0,0.0,0.0,0.0,0.0,0.0,0.0,0.0,0.0,0.0,0.0,0.0,0.0,0.0,0.0,0.0,0.0,0.0,0.0,0.0,0.0,0.0,0.0,0.0,0.0,0.0,0.0,0.0,0.0,0.0,0.0,0.0,0.0,0.0,0.0,0.0,0.0,0.0,0.0,0.0,0.0,0.0,0.0,0.0,1.0955,1.0834,1.0742,0.0,0.0,0.0,0.0,0.0,0.0,0.0,0.0,0.0,0.0,0.0,0.0,0.0,0.0,0.0,0.0,0.0,0.0,0.0,0.0,0.0,0.0,0.0,0.0,0.0,0.0,0.0,0.0,0.0,0.0,0.0,0.0,0.0,0.0,0.0,0.0,0.0,0.0,0.0,0.0,0.0,0.0,0.0,0.0,0.0,0.0,0.0,0.0,0.0,0.0,0.0,0.0,0.0,0.0,0.0,0.0,0.0,0.0,0.0,0.0,0.0,0.0,0.0,0.0,0.0,0.0,0.0,0.0,0.0,0.0,0.0,0.0,0.0,0.0,0.0,0.0,0.0,0.0,0.0,0.0,0.0,0.0,0.0,0.0,0.0,0.0,0.0,0.0,0.0,0.0,0.0,0.0,0.0,0.0,0.0,0.0,0.0,0.0,0.0,0.0,0.0,0.0,0.0,0.0,0.0,0.0,0.0,0.0,0.0,0.0,1.214,1.3173,1.2897,0.0,1.208,0.0,0.0,0.0,0.0,0.0,0.0,0.0,0.0,0.0,0.0,0.0,0.0,0.0,0.0,0.0,0.0,0.0,0.0,0.0,0.0,0.0,0.0,0.0,0.0,0.0,0.0,0.0,0.0,0.0,0.0,0.0,0.0,0.0,0.0,0.0,0.0,0.0,0.0,0.0,0.0,0.0,0.0,0.0,0.0,0.0,0.0,0.0,0.0,0.0,0.0,0.0,0.0,0.0,0.0,0.0,0.0,0.0,0.0,0.0,0.0,0.0,0.0,0.0,0.0,0.0,0.0,0.0,0.0,0.0,0.0,0.0,0.0,0.0,0.0,0.0,0.0,0.0,0.0,0.0,0.0,0.0,0.0,0.0,0.0,0.0,0.0,0.0,0.0,0.0,0.0,0.0,0.0,0.0,0.0,0.0,0.0,0.0,0.0,0.0,0.0,0.0,0.0,0.0,0.0,0.0,0.0,0.0,0.0,0.0,0.0,1.2238,1.2746,1.2574,1.2447,0.0,0.0,0.0,0.0,0.0,0.0,0.0,0.0,0.0,0.0,0.0,0.0,0.0,0.0,0.0,0.0,0.0,0.0,0.0,0.0,0.0,0.0,0.0,0.0,0.0,0.0,0.0,0.0,0.0,0.0,0.0,0.0,0.0,0.0,0.0,0.0,0.0,0.0,0.0,0.0,0.0,0.0,0.0,0.0,0.0,0.0,0.0,0.0,0.0,0.0,0.0,0.0,0.0,0.0,0.0,0.0,0.0,0.0,0.0,0.0,0.0,0.0,0.0,0.0,0.0,0.0,0.0,0.0,0.0,0.0,0.0,0.0,0.0,0.0,0.0,0.0,0.0,0.0,0.0,0.0,0.0,0.0,0.0,0.0,0.0,0.0,0.0,0.0,0.0,0.0,0.0,0.0,0.0,0.0,0.0,0.0,0.0,0.0,0.0,0.0,0.0,0.0,0.0,0.0,0.0,0.0,0.0,0.0,0.0,0.0,1.2396,0.0,1.2916,1.2802,1.2539,1.2061,0.0,0.0,0.0,0.0,0.0,0.0,0.0,0.0,0.0,0.0,0.0,0.0,0.0,0.0,0.0,0.0,0.0,0.0,0.0,0.0,0.0,0.0,0.0,0.0,0.0,0.0,0.0,0.0,0.0,0.0,0.0,0.0,0.0,0.0,0.0,0.0,0.0,0.0,0.0,0.0,0.0,0.0,0.0,0.0,0.0,0.0,0.0,0.0,0.0,0.0,0.0,0.0,0.0,0.0,0.0,0.0,0.0,0.0,0.0,0.0,0.0,0.0,0.0,0.0,0.0,0.0,0.0,0.0,0.0,0.0,0.0,0.0,0.0,0.0,0.0,0.0,0.0,0.0,0.0,0.0,0.0,0.0,0.0,0.0,0.0,0.0,0.0,0.0,0.0,0.0,0.0,0.0,0.0,0.0,0.0,0.0,0.0,0.0,0.0,0.0,0.0,0.0,0.0,0.0,0.0,0.0,0.0,0.0,0.0,1.4345,1.4007,1.4728,1.4245,1.3271,0.0,0.0,0.0,0.0,0.0,0.0,0.0,0.0,0.0,0.0,0.0,0.0,0.0,0.0,0.0,0.0,0.0,0.0,0.0,0.0,0.0,0.0,0.0,0.0,0.0,0.0,0.0,0.0,0.0,0.0,0.0,0.0,0.0,0.0,0.0,0.0,0.0,0.0,0.0,0.0,0.0,0.0,0.0,0.0,0.0,0.0,0.0,0.0,0.0,0.0,0.0,0.0,0.0,0.0,0.0,0.0,0.0,0.0,0.0,0.0,0.0,0.0,0.0,0.0,0.0,0.0,0.0,0.0,0.0,0.0,0.0,0.0,0.0,0.0,0.0,0.0,0.0,0.0,0.0,0.0,0.0,0.0,0.0,0.0,0.0,0.0,0.0,0.0,0.0,0.0,0.0,0.0,0.0,0.0,0.0,0.0,0.0,0.0,0.0,0.0,0.0,0.0,0.0,0.0,0.0,0.0,0.0,0.0,0.0,1.2381,1.2621,1.3709,1.5481,1.3608,1.2578,0.0,0.0,0.0,0.0,0.0,0.0,0.0,0.0,0.0,0.0,0.0,0.0,0.0,0.0,0.0,0.0,0.0,0.0,0.0,0.0,0.0,0.0,0.0,0.0,0.0,0.0,0.0,0.0,0.0,0.0,0.0,0.0,0.0,0.0,0.0,0.0,0.0,0.0,0.0,0.0,0.0,0.0,0.0,0.0,0.0,0.0,0.0,0.0,0.0,0.0,0.0,0.0,0.0,0.0,0.0,0.0,0.0,0.0,0.0,0.0,0.0,0.0,0.0,0.0,0.0,0.0,0.0,0.0,0.0,0.0,0.0,0.0,0.0,0.0,0.0,0.0,0.0,0.0,0.0,0.0,0.0,0.0,0.0,0.0,0.0,0.0,0.0,0.0,0.0,0.0,0.0,0.0,0.0,0.0,0.0,0.0,0.0,0.0,0.0,0.0,0.0,0.0,0.0,0.0,0.0,0.0,0.0,0.0,0.0,1.1523,0.0,1.4111,0.0,1.3467,1.2295,0.0,0.0,0.0,0.0,0.0,0.0,0.0,0.0,0.0,0.0,0.0,0.0,0.0,0.0,0.0,0.0,0.0,0.0,0.0,0.0,0.0,0.0,0.0,0.0,0.0,0.0,0.0,0.0,0.0,0.0,0.0,0.0,0.0,0.0,0.0,0.0,0.0,0.0,0.0,0.0,0.0,0.0,0.0,0.0,0.0,0.0,0.0,0.0,0.0,0.0,0.0,0.0,0.0,0.0,0.0,0.0,0.0,0.0,0.0,0.0,0.0,0.0,0.0,0.0,0.0,0.0,0.0,0.0,0.0,0.0,0.0,0.0,0.0,0.0,0.0,0.0,0.0,0.0,0.0,0.0,0.0,0.0,0.0,0.0,0.0,0.0,0.0,0.0,0.0,0.0,0.0,0.0,0.0,0.0,0.0,0.0,0.0,0.0,0.0,0.0,0.0,0.0,0.0,0.0,0.0,0.0,0.0,0.0,1.1543,1.3912,1.5234,1.5312,1.4175,1.4043,1.2433,0.0,0.0,0.0,0.0,0.0,0.0,0.0,0.0,0.0,0.0,0.0,0.0,0.0,0.0,0.0,0.0,0.0,0.0,0.0,0.0,0.0,0.0,0.0,0.0,0.0,0.0,0.0,0.0,0.0,0.0,0.0,0.0,0.0,0.0,0.0,0.0,0.0,0.0,0.0,0.0,0.0,0.0,0.0,0.0,0.0,0.0,0.0,0.0,0.0,0.0,0.0,0.0,0.0,0.0,0.0,0.0,0.0,0.0,0.0,0.0,0.0,0.0,0.0,0.0,0.0,0.0,0.0,0.0,0.0,0.0,0.0,0.0,0.0,0.0,0.0,0.0,0.0,0.0,0.0,0.0,0.0,0.0,0.0,0.0,0.0,0.0,0.0,0.0,0.0,0.0,0.0,0.0,0.0,0.0,0.0,0.0,0.0,0.0,0.0,0.0,0.0,0.0,0.0,0.0,0.0,0.0,0.0,0.0,0.0,1.2393,1.3623,1.4678,1.5342,1.3145,1.2109,0.0,0.0,0.0,0.0,0.0,0.0,0.0,0.0,0.0,0.0,0.0,0.0,0.0,0.0,0.0,0.0,0.0,0.0,0.0,0.0,0.0,0.0,0.0,0.0,0.0,0.0,0.0,0.0,0.0,0.0,0.0,0.0,0.0,0.0,0.0,0.0,0.0,0.0,0.0,0.0,0.0,0.0,0.0,0.0,0.0,0.0,0.0,0.0,0.0,0.0,0.0,0.0,0.0,0.0,0.0,0.0,0.0,0.0,0.0,0.0,0.0,0.0,0.0,0.0,0.0,0.0,0.0,0.0,0.0,0.0,0.0,0.0,0.0,0.0,0.0,0.0,0.0,0.0,0.0,0.0,0.0,0.0,0.0,0.0,0.0,0.0,0.0,0.0,0.0,0.0,0.0,0.0,0.0,0.0,0.0,0.0,0.0,0.0,0.0,0.0,0.0,0.0,0.0,0.0,0.0,0.0,0.0,0.0,0.0,1.338,1.4658,1.5615,1.6055,1.3799,1.2676,1.2822,0.0,0.0,0.0,0.0,0.0,0.0,0.0,0.0,0.0,0.0,0.0,0.0,0.0,0.0,0.0,0.0,0.0,0.0,0.0,0.0,0.0,0.0,0.0,0.0,0.0,0.0,0.0,0.0,0.0,0.0,0.0,0.0,0.0,0.0,0.0,0.0,0.0,0.0,0.0,0.0,0.0,0.0,0.0,0.0,0.0,0.0,0.0,0.0,0.0,0.0,0.0,0.0,0.0,0.0,0.0,0.0,0.0,0.0,0.0,0.0,0.0,0.0,0.0,0.0,0.0,0.0,0.0,0.0,0.0,0.0,0.0,0.0,0.0,0.0,0.0,0.0,0.0,0.0,0.0,0.0,0.0,0.0,0.0,0.0,0.0,0.0,0.0,0.0,0.0,0.0,0.0,0.0,0.0,0.0,0.0,0.0,0.0,0.0,0.0,0.0,0.0,0.0,0.0,0.0,0.0,0.0,0.0,0.0,1.6194,1.7861,1.7969,1.6367,1.5703,1.4092,0.0,0.0,0.0,0.0,0.0,0.0,0.0,0.0,0.0,0.0,0.0,0.0,0.0,0.0,0.0,0.0,0.0,0.0,0.0,0.0,0.0,0.0,0.0,0.0,0.0,0.0,0.0,0.0,0.0,0.0,0.0,0.0,0.0,0.0,0.0,0.0,0.0,0.0,0.0,0.0,0.0,0.0,0.0,0.0,0.0,0.0,0.0,0.0,0.0,0.0,0.0,0.0,0.0,0.0,0.0,0.0,0.0,0.0,0.0,0.0,0.0,0.0,0.0,0.0,0.0,0.0,0.0,0.0,0.0,0.0,0.0,0.0,0.0,0.0,0.0,0.0,0.0,0.0,0.0,0.0,0.0,0.0,0.0,0.0,0.0,0.0,0.0,0.0,0.0,0.0,0.0,0.0,0.0,0.0,0.0,0.0,0.0,0.0,0.0,0.0,0.0,0.0,0.0,0.0,0.0,0.0,0.0,0.0,0.0,1.708,1.9336,2.0029,1.8906,1.6641,1.5195,0.0,0.0,0.0,0.0,0.0,0.0,0.0,0.0,0.0,0.0,0.0,0.0,0.0,0.0,0.0,0.0,0.0,0.0,0.0,0.0,0.0,0.0,0.0,0.0,0.0,0.0,0.0,0.0,0.0,0.0,0.0,0.0,0.0,0.0,0.0,0.0,0.0,0.0,0.0,0.0,0.0,0.0,0.0,0.0,0.0,0.0,0.0,0.0,0.0,0.0,0.0,0.0,0.0,0.0,0.0,0.0,0.0,0.0,0.0,0.0,0.0,0.0,0.0,0.0,0.0,0.0,0.0,0.0,0.0,0.0,0.0,0.0,0.0,0.0,0.0,0.0,0.0,0.0,0.0,0.0,0.0,0.0,0.0,0.0,0.0,0.0,0.0,0.0,0.0,0.0,0.0,0.0,0.0,0.0,0.0,0.0,0.0,0.0,0.0,0.0,0.0,0.0,0.0,0.0,0.0,0.0,0.0,0.0,1.7217,1.8437,2.0625,2.1523,2.1016,1.8603,1.6728,0.0,0.0,0.0,0.0,0.0,0.0,0.0,0.0,0.0,0.0,0.0,0.0,0.0,0.0,0.0,0.0,0.0,0.0,0.0,0.0,0.0,0.0,0.0,0.0,0.0,0.0,0.0,0.0,0.0,0.0,0.0,0.0,0.0,0.0,0.0,0.0,0.0,0.0,0.0,0.0,0.0,0.0,0.0,0.0,0.0,0.0,0.0,0.0,0.0,0.0,0.0,0.0,0.0,0.0,0.0,0.0,0.0,0.0,0.0,0.0,0.0,0.0,0.0,0.0,0.0,0.0,0.0,0.0,0.0,0.0,0.0,0.0,0.0,0.0,0.0,0.0,0.0,0.0,0.0,0.0,0.0,0.0,0.0,0.0,0.0,0.0,0.0,0.0,0.0,0.0,0.0,0.0,0.0,0.0,0.0,0.0,0.0,0.0,0.0,0.0,0.0,0.0,0.0,0.0,0.0,0.0,0.0,0.0,1.8291,1.9883,2.166,2.2559,2.2461,2.082,1.8389,0.0,0.0,0.0,0.0,0.0,0.0,0.0,0.0,0.0,0.0,0.0,0.0,0.0,0.0,0.0,0.0,0.0,0.0,0.0,0.0,0.0,0.0,0.0,0.0,0.0,0.0,0.0,0.0,0.0,0.0,0.0,0.0,0.0,0.0,0.0,0.0,0.0,0.0,0.0,0.0,0.0,0.0,0.0,0.0,0.0,0.0,0.0,0.0,0.0,0.0,0.0,0.0,0.0,0.0,0.0,0.0,0.0,0.0,0.0,0.0,0.0,0.0,0.0,0.0,0.0,0.0,0.0,0.0,0.0,0.0,0.0,0.0,0.0,0.0,0.0,0.0,0.0,0.0,0.0,0.0,0.0,0.0,0.0,0.0,0.0,0.0,0.0,0.0,0.0,0.0,0.0,0.0,0.0,0.0,0.0,0.0,0.0,0.0,0.0,0.0,0.0,0.0,0.0,0.0,0.0,0.0,0.0,0.0,1.8877,1.9922,2.1934,2.2852,2.251,2.082,1.8955,0.0,0.0,0.0,0.0,0.0,0.0,0.0,0.0,0.0,0.0,0.0,0.0,0.0,0.0,0.0,0.0,0.0,0.0,0.0,0.0,0.0,0.0,0.0,0.0,0.0,0.0,0.0,0.0,0.0,0.0,0.0,0.0,0.0,0.0,0.0,0.0,0.0,0.0,0.0,0.0,0.0,0.0,0.0,0.0,0.0,0.0,0.0,0.0,0.9552,0.0,0.0,0.0,0.0,0.0,0.0,0.0,0.0,0.0,0.0,0.0,0.0,0.0,0.0,0.0,0.0,0.0,0.0,0.0,0.0,0.0,0.0,0.0,0.0,0.0,0.0,0.0,0.0,0.0,0.0,0.0,0.0,0.0,0.0,0.0,0.0,0.0,0.0,0.0,0.0,0.0,0.0,0.0,0.0,0.0,0.0,0.0,0.0,0.0,0.0,0.0,0.0,0.0,0.0,0.0,0.0,0.0,0.0,0.0,1.9561,2.083,2.2344,2.3027,2.2773,2.1523,1.9756,0.0,0.0,0.0,0.0,0.0,0.0,0.0,0.0,0.0,0.0,0.0,0.0,0.0,0.0,0.0,0.0,0.0,0.0,0.0,0.0,0.0,0.0,0.0,0.0,0.0,0.0,0.0,0.0,0.0,0.0,0.0,0.0,0.0,0.0,0.0,0.0,0.0,0.0,0.0,0.0,0.0,0.0,0.0,0.0,0.0,0.0,0.0,0.0,0.0,0.0,0.0,0.0,0.0,0.0,0.0,0.0,0.0,0.0,0.0,0.0,0.0,0.0,0.0,0.0,0.0,0.0,0.0,0.0,0.0,0.0,0.0,0.0,0.0,0.0,0.0,0.0,0.0,0.0,0.0,0.0,0.0,0.0,0.0,0.0,0.0,0.0,0.0,0.0,0.0,0.0,0.0,0.0,0.0,0.0,0.0,0.0,0.0,0.0,0.0,0.0,0.0,0.0,0.0,0.0,0.0,0.0,0.0,1.8262,2.0098,2.1914,2.2734,2.3144,2.3125,2.2324,2.0508,1.7607,0.0,0.0,0.0,0.0,0.0,0.0,0.0,0.0,0.0,0.0,0.0,0.0,0.0,0.0,0.0,0.0,0.0,0.0,0.0,0.0,0.0,0.0,0.0,0.0,0.0,0.0,0.0,0.0,0.0,0.0,0.0,0.0,0.0,0.0,0.0,0.0,0.0,0.0,0.9607,0.9819,0.0,0.0,0.0,0.0,0.0,0.0,0.0,0.0,1.0033,0.0,0.0,0.0,0.0,0.0,0.0,0.0,0.0,0.0,0.0,0.0,0.0,0.0,0.0,0.0,0.0,0.0,0.0,0.0,0.0,0.0,0.0,0.0,0.0,0.0,0.0,0.0,0.0,0.0,0.0,0.0,0.0,0.0,0.0,0.0,0.0,0.0,0.0,0.0,0.0,0.0,0.0,0.0,0.0,0.0,0.0,0.0,0.0,0.0,0.0,0.0,0.0,0.0,0.0,0.0,0.0,1.8144,1.8564,1.9932,2.2344,2.2891,2.3144,2.3115,2.2324,2.0635,1.8037,0.0,0.0,0.0,0.0,0.0,0.0,0.0,0.0,0.0,0.0,0.0,0.0,0.0,0.0,0.0,0.0,0.0,0.0,0.0,0.0,0.0,0.0,0.0,0.0,0.0,0.0,0.0,0.0,0.0,0.0,0.0,0.0,0.0,0.0,0.0,0.0,0.0,0.0,0.0,1.1176,1.1543,0.0,0.0,0.0,0.0,0.0,0.0,0.0,0.0,1.0074,0.0,0.0,0.0,0.0,0.0,0.0,0.0,0.0,0.0,0.0,0.0,0.0,0.0,0.0,0.0,0.0,0.0,0.0,0.0,0.0,0.0,0.0,0.0,0.0,0.0,0.0,0.0,0.0,0.0,0.0,0.0,0.0,0.0,0.0,0.0,0.0,0.0,0.0,0.0,0.0,0.0,0.0,0.0,0.0,0.0,0.0,0.0,0.0,0.0,0.0,0.0,0.0,0.0,0.0,0.0,1.7803,1.9072,2.0576,2.2441,2.292,2.3027,2.2793,2.1553,1.9853,0.0,0.0,0.0,0.0,0.0,0.0,0.0,0.0,0.0,0.0,0.0,0.0,0.0,0.0,0.0,0.0,0.0,0.0,0.0,0.0,0.0,0.0,0.0,0.0,0.0,0.0,0.0,0.0,0.0,0.0,0.0,0.0,0.0,0.0,0.0,0.0,0.0,0.0,0.0,0.0,1.1597,1.2037,1.2498,0.0,0.0,0.0,0.0,0.0,0.0,1.1049,1.0675,0.0,0.0,0.0,0.0,0.0,0.0,0.0,0.0,0.0,0.0,0.0,0.0,0.0,0.0,0.0,0.0,0.0,0.0,0.0,0.0,0.0,0.0,0.0,0.0,0.0,0.0,0.0,0.0,0.0,0.0,0.0,0.0,0.0,0.0,0.0,0.0,0.0,0.0,0.0,0.0,0.0,0.0,0.0,0.0,0.0,0.0,0.0,0.0,0.0,0.0,0.0,0.0,0.0,0.0,0.0,1.7314,1.9316,2.1025,2.2451,2.292,2.2939,2.25,2.0996,1.9307,0.0,0.0,0.0,0.0,0.0,0.0,0.0,0.0,0.0,0.0,0.0,0.0,0.0,0.0,0.0,0.0,0.0,0.0,0.0,0.0,0.0,0.0,0.0,0.0,0.0,0.0,0.0,0.0,0.0,0.0,0.0,0.0,0.0,0.0,0.0,0.0,0.0,0.0,0.0,0.0,0.0,1.2538,1.312,1.2599,0.0,0.0,0.0,0.0,1.2011,1.1904,0.0,0.0,0.0,0.0,0.0,0.0,0.0,0.0,0.0,0.0,0.0,0.0,0.0,0.0,0.0,0.0,0.0,0.0,0.0,0.0,0.0,0.0,0.0,0.0,0.0,0.0,0.0,0.0,0.0,0.0,0.0,0.0,0.0,0.0,0.0,0.0,0.0,0.0,0.0,0.0,0.0,0.0,0.0,0.0,0.0,0.0,0.0,0.0,0.0,0.0,0.0,0.0,0.0,0.0,0.0,0.0,1.7266,1.874,2.0439,2.2412,2.292,2.2939,2.251,2.1582,1.9912,0.0,0.0,0.0,0.0,0.0,0.0,0.0,0.0,0.0,0.0,0.0,0.0,0.0,0.0,0.0,0.0,0.0,0.0,0.0,0.0,0.0,0.0,0.0,0.0,0.0,0.0,0.0,0.0,0.0,0.0,0.0,0.0,0.0,0.0,0.0,0.0,0.0,0.0,0.0,0.0,0.0,1.3674,1.3267,1.312,1.3133,0.0,0.0,1.2966,1.4001,1.3514,0.0,0.0,0.0,0.0,0.0,0.0,0.0,0.0,0.0,0.0,0.0,0.0,0.0,0.0,0.0,0.0,0.0,0.0,0.0,0.0,0.0,0.0,0.0,0.0,0.0,0.0,0.0,0.0,0.0,0.0,0.0,0.0,0.0,0.0,0.0,0.0,0.0,0.0,0.0,0.0,0.0,0.0,0.0,0.0,0.0,0.0,0.0,0.0,0.0,0.0,0.0,0.0,0.0,0.0,0.0,1.3867,1.6953,1.8984,2.0713,2.2109,2.2803,2.2822,2.2168,2.084,1.9033,0.0,0.0,0.0,0.0,0.0,0.0,0.0,0.0,0.0,0.0,0.0,0.0,0.0,0.0,0.0,0.0,0.0,0.0,0.0,0.0,0.0,0.0,0.0,0.0,0.0,0.0,0.0,0.0,0.0,0.0,0.0,0.0,0.0,0.0,0.0,0.0,0.0,0.0,0.0,0.0,0.0,0.0,1.4142,1.4062,0.0,0.0,0.0,1.4068,1.4249,0.0,0.0,0.0,0.0,0.0,0.0,0.0,0.0,0.0,0.0,0.0,0.0,0.0,0.0,0.0,0.0,0.0,0.0,0.0,0.0,0.0,0.0,0.0,0.0,0.0,0.0,0.0,0.0,0.0,0.0,0.0,0.0,0.0,0.0,0.0,0.0,0.0,0.0,0.0,0.0,0.0,0.0,0.0,0.0,0.0,0.0,0.0,0.0,0.0,0.0,0.0,0.0,0.0,0.0,0.0,0.0,0.0,1.6875,1.9424,2.1152,2.2021,2.2764,2.2734,2.1894,2.04,0.0,0.0,0.0,0.0,0.0,0.0,0.0,0.0,0.0,0.0,0.0,0.0,0.0,0.0,0.0,0.0,0.0,0.0,0.0,0.0,0.0,0.0,0.0,0.0,0.0,0.0,0.0,0.8483,0.0,0.0,0.0,0.0,0.0,0.0,0.0,0.0,0.0,0.0,0.0,0.0,0.0,0.0,1.3881,1.4836,1.4897,1.4897,0.0,0.0,1.497,1.4683,1.475,1.4222,0.0,0.0,0.0,0.0,0.0,0.0,0.0,0.0,0.0,0.0,0.0,0.0,0.0,0.0,0.0,0.0,0.0,0.0,0.0,0.0,0.0,0.0,0.0,0.0,0.0,0.0,0.0,0.0,0.0,0.0,0.0,0.0,0.0,0.0,0.0,0.0,0.0,0.0,0.0,0.0,0.0,0.0,0.0,0.0,0.0,0.0,0.0,0.0,0.0,0.0,0.0,0.0,0.0,0.0,0.0,1.7324,1.9883,2.1592,2.2441,2.291,2.2734,2.1904,2.0967,1.9277,0.0,0.0,0.0,0.0,0.0,0.0,0.0,0.0,0.0,0.0,0.0,0.0,0.0,0.0,0.0,0.0,0.0,0.0,0.0,0.0,0.0,0.0,0.0,0.0,0.0,0.0,0.0,0.0,0.0,0.0,0.0,0.0,0.0,0.0,0.0,0.0,0.0,0.0,0.0,0.0,0.0,1.4563,1.4917,1.5411,1.5932,0.0,0.0,1.5538,1.6046,1.5892,1.505,1.3097,0.0,0.0,0.0,0.0,0.0,0.0,0.0,0.0,0.0,0.0,0.0,0.0,0.0,0.0,0.0,0.0,0.0,0.0,0.0,0.0,0.0,0.0,0.0,0.0,0.0,0.0,0.0,0.0,0.0,0.0,0.0,0.0,0.0,0.0,0.0,0.0,0.0,0.0,0.0,0.0,0.0,0.0,0.0,0.0,0.0,0.0,0.0,0.0,0.0,0.0,0.0,0.0,0.0,1.4785,1.7363,1.9922,2.165,2.248,2.292,2.2744,2.1904,2.1025,1.9228,0.0,0.0,0.0,0.0,0.0,0.0,0.0,0.0,0.0,0.0,0.0,0.0,0.0,0.0,0.0,0.0,0.0,0.0,0.0,0.0,0.0,0.0,0.0,0.0,0.0,0.0,0.0,0.0,1.0252,1.0066,0.9888,0.0,0.0,0.0,0.0,0.0,0.0,0.0,0.0,0.0,0.0,1.509,1.5919,1.6226,0.0,0.0,1.646,1.6359,1.6046,1.5752,1.505,1.354,1.2993,0.0,0.0,0.0,0.0,0.0,0.0,0.0,0.0,0.0,0.0,0.0,0.0,0.0,0.0,0.0,0.0,0.0,0.0,0.0,0.0,0.0,0.0,0.0,0.0,0.0,0.0,0.0,0.0,0.0,0.0,0.0,0.0,0.0,0.0,0.0,0.0,0.0,0.0,0.0,0.0,0.0,0.0,0.0,0.0,0.0,0.0,0.0,0.0,0.0,0.0,0.0,0.0,1.5107,1.7549,2.0117,2.1846,2.2685,2.2871,2.2607,2.1904,2.1025,1.9326,0.0,0.0,0.0,0.0,0.0,0.0,0.0,0.0,0.0,0.0,0.0,0.0,0.0,0.0,0.0,0.0,0.0,0.0,0.0,0.0,0.0,0.0,0.0,0.0,0.0,0.0,0.0,0.0,1.0466,0.9875,0.8941,0.0,0.0,0.0,0.0,0.0,0.0,0.0,0.0,0.0,0.0,1.5685,1.6573,1.6707,1.6667,1.6553,1.6653,1.6593,1.6159,1.5458,1.4603,1.3483,0.0,0.0,0.0,0.0,0.0,0.0,0.0,0.0,0.0,0.0,0.0,0.0,0.0,0.0,0.0,0.0,0.0,0.0,0.0,0.0,0.0,0.0,0.0,0.0,0.0,0.0,0.0,0.0,0.0,0.0,0.8789,0.0,0.0,0.0,0.0,0.0,0.0,0.0,0.0,0.0,0.0,0.0,0.0,0.0,0.0,0.0,0.0,0.0,0.0,0.0,0.0,0.0,0.0,1.582,1.7978,2.0547,2.2266,2.3076,2.2734,2.2334,2.1885,2.1025,1.9736,1.7959,0.0,0.0,0.0,0.0,0.0,0.0,0.0,0.0,0.0,0.0,0.0,0.0,0.0,0.0,0.0,0.0,0.0,0.0,0.0,0.0,0.0,0.0,0.0,0.0,0.0,0.0,1.1129,1.0132,0.8938,0.0,0.0,0.0,0.0,0.0,0.0,0.0,0.0,0.0,0.0,1.5511,1.6353,1.6667,1.6707,1.6706,1.7074,1.6334,1.5976,1.6487,1.5214,1.3811,0.0,0.0,0.0,0.0,0.0,0.0,0.0,0.0,0.0,0.0,0.0,0.0,0.0,0.0,0.0,0.0,0.0,0.0,0.0,0.0,0.0,0.0,0.0,0.0,0.0,0.0,0.0,1.1832,1.1277,0.0,0.0,0.0,0.0,0.0,0.0,0.0,0.0,0.0,0.0,0.0,1.6338,1.7314,0.0,0.0,0.0,0.0,0.0,0.0,0.0,0.0,0.0,0.0,0.0,0.0,1.6269,1.8418,2.0713,2.2295,2.3115,2.3008,2.2598,2.1894,2.1318,1.9805,1.7236,0.0,0.0,0.0,0.0,0.0,0.0,0.0,0.0,0.0,0.0,0.0,0.0,0.0,0.0,0.0,0.0,0.0,0.0,0.0,0.0,0.0,0.0,0.0,0.0,0.0,1.1478,0.0,0.0,0.0,0.0,0.0,0.0,0.0,0.0,0.0,0.0,0.0,1.4102,1.4983,1.5945,1.6354,1.571,1.5536,1.5251,0.0,0.0,0.0,0.0,0.0,0.0,0.0,0.0,0.0,0.0,0.0,0.0,0.0,0.0,1.3852,1.1242,1.05,1.0353,1.0658,0.0,0.0,0.0,0.0,0.0,0.0,0.0,0.0,0.0,0.0,0.0,0.0,0.0,0.0,1.375,0.0,1.3027,0.0,0.0,0.0,0.0,0.0,0.0,0.0,0.0,1.7451,1.8603,1.876,1.957,1.9531,0.0,1.8437,1.6894,0.0,0.0,0.0,0.0,0.0,0.0,0.0,0.0,1.6855,1.8857,2.0996,2.2441,2.3096,2.2998,2.2588,2.1904,2.1162,1.9717,1.7461,1.6436,1.5371,0.0,0.0,0.0,0.0,0.0,0.0,0.0,0.0,0.0,0.0,0.0,0.0,0.0,0.0,0.0,0.0,0.0,0.0,0.0,0.0,0.0,0.0,0.0,1.1015,0.0,0.0,0.0,0.0,0.0,0.0,0.0,0.0,0.0,1.2625,1.3908,1.4969,1.5255,1.5833,1.5822,1.4511,0.0,0.0,0.0,0.0,0.0,0.0,0.0,1.1516,1.1472,1.1133,1.0903,1.1447,1.1994,1.2482,1.2763,0.0,0.0,1.1369,1.0847,1.0712,1.1053,1.0929,1.0852,1.1037,1.1216,1.1155,0.0,0.0,0.0,0.0,0.0,0.0,0.0,0.0,1.6055,1.5986,0.0,1.5547,0.0,0.0,0.0,0.0,0.0,1.5615,0.0,0.0,2.0596,2.1641,2.126,2.1279,2.1279,2.1279,2.123,2.0537,1.9121,1.5557,0.0,0.0,0.0,0.0,0.0,0.0,1.7646,1.9375,2.1435,2.2715,2.3115,2.2754,2.2334,2.1885,2.0654,1.958,1.8711,1.8262,1.7266,1.5557,1.4268,0.0,0.0,0.0,0.0,0.0,0.0,0.0,0.0,0.0,0.0,0.0,0.0,0.0,0.0,0.0,0.0,0.0,0.0,0.0,0.0,1.0132,0.0,0.0,0.0,0.0,0.0,0.0,0.0,0.0,0.0,0.0,1.3821,1.4777,1.5294,1.5135,0.0,0.0,0.0,0.0,1.296,1.2861,1.2743,1.2816,1.313,1.2094,1.1139,1.1101,0.0,0.0,1.0961,1.0364,1.0176,1.1078,1.0631,1.0908,1.4151,1.3727,1.3427,1.374,1.2199,1.1297,1.1455,1.0658,0.9954,1.9616,0.0,0.0,0.0,0.0,1.7803,1.8418,1.9551,1.9355,1.9023,1.8603,1.8301,0.0,0.0,0.0,0.0,0.0,0.0,1.8555,1.9424,2.0791,2.168,2.2158,2.2451,2.2441,2.2158,2.2148,2.1641,2.0644,1.9248,1.6953,1.3978,0.0,0.0,0.0,0.0,1.9258,2.0654,2.1894,2.2715,2.3135,2.3018,2.2617,2.1904,2.1221,2.0449,1.958,1.9434,1.8721,1.7314,1.6025,0.0,0.0,0.0,0.0,0.0,0.0,0.0,0.0,0.0,0.0,0.0,0.0,0.0,0.0,0.0,0.0,0.0,0.0,0.0,1.1074,1.0053,0.982,0.0,0.0,0.0,0.0,0.0,0.0,0.0,0.0,0.0,1.3037,1.3491,1.3645,0.0,0.0,1.3327,1.1764,1.1542,1.1346,1.0588,1.0376,0.0,0.0,1.0226,1.0054,1.0222,1.0322,1.0428,1.0707,1.0659,1.0579,1.0777,1.0687,1.075,1.156,1.1374,1.1042,1.1157,1.0848,1.0557,1.0703,1.0611,1.0456,2.2192,2.0958,1.959,1.9424,2.0019,1.9785,2.0361,2.1475,2.1201,2.1035,2.0928,2.0684,1.9853,1.8603,1.7832,0.0,0.0,0.0,2.0127,2.0977,2.167,2.2266,2.2764,2.3018,2.3008,2.2773,2.2764,2.25,2.1899,2.1543,1.9902,1.7158,0.0,0.0,1.7002,1.8838,2.0352,2.1475,2.2324,2.2891,2.3135,2.2978,2.2568,2.1914,2.1465,2.0898,2.0205,2.0176,1.9736,1.8789,1.7529,1.6133,0.0,0.0,0.0,0.0,0.0,0.0,0.0,0.0,0.0,0.0,0.0,1.0702,0.9106,0.0,0.0,0.0,1.0368,1.0833,1.1168,1.0828,0.0,0.0,0.0,0.0,0.0,0.0,0.0,1.1497,1.1363,1.1256,1.147,1.1612,1.1885,1.2441,1.2585,1.2032,1.0545,0.0,1.0282,0.9573,0.9571,0.9676,0.9771,0.9805,0.9937,1.0259,1.046,1.0605,1.0697,1.0721,1.0721,1.0721,1.0721,1.0721,1.0721,1.0415,1.0198,1.0297,1.0388,1.048,1.0568,1.0656,1.0721,2.4424,2.4209,2.1855,2.1094,2.1426,2.1406,2.1621,2.1982,2.1982,2.2207,2.2549,2.2559,2.1904,2.0713,1.9531,0.0,2.0205,2.1025,2.1797,2.2578,2.2959,2.3144,2.3144,2.3135,2.3144,2.3135,2.3144,2.3144,2.3105,2.2744,2.1953,2.0771,1.958,1.9131,1.9424,2.0264,2.1133,2.1982,2.2744,2.3135,2.3135,2.2764,2.2344,2.1894,2.1494,2.1045,2.0537,2.0508,2.0312,1.9853,1.8682,1.7441,1.6191,0.0,0.0,0.0,0.0,0.0,0.0,0.0,0.0,0.0,0.0,0.0,0.0,0.0,0.0,0.0,1.1339,0.0,1.1142,1.2204,0.0,0.0,0.0,1.1344,1.188,1.1261,1.0614,1.0156,0.0,0.0,0.9514,0.954,1.0091,1.1496,1.1462,1.0953,0.9703,0.9608,0.9625,0.9622,0.9863,1.0046,1.0056,1.028,1.0504,1.0649,1.0721,1.0714,1.0721,1.0721,1.0721,1.0721,1.0721,1.0721,1.0721,1.0694,1.0717,1.0694,1.0704,1.0711,1.0711,1.0714,1.0721,2.4424,2.4365,2.375,2.3369,2.3164,2.2822,2.2754,2.2842,2.2842,2.2891,2.2988,2.2988,2.2812,2.251,2.2207,2.2094,2.2383,2.2588,2.2793,2.2988,2.3086,2.3144,2.3144,2.3144,2.3144,2.3144,2.3144,2.3144,2.3135,2.3037,2.2832,2.2529,2.2217,2.1455,2.0352,2.1455,2.2314,2.2842,2.3037,2.3144,2.3144,2.3037,2.2637,2.1914,2.1787,2.1211,2.0117,2.0068,1.9873,1.9434,1.8525,1.7725,1.708,1.4619,0.0,0.0,0.0,0.0,0.0,0.0,0.0,0.0,0.0,1.405,1.0426,0.0,1.4056,0.0,1.1847,1.2067,1.2365,1.2792,0.0,0.0,1.3294,1.2921,1.3899,1.2053,1.0828,1.1015,1.039,0.9905,0.9696,0.9751,0.9889,1.0244,1.0212,1.0042,0.9629,0.9703,0.9771,0.9788,0.9937,1.009,1.0226,1.0473,1.0673,1.0714,1.0721,1.0721,1.0721,1.0721,1.0721,1.0721,1.0721,1.0721,1.0721,1.0721,1.0721,1.0721,1.0721,1.0721,1.0721,1.0721,1.0721,2.501,2.498,2.4785,2.457,2.4307,2.3701,2.3428,2.3418,2.3223,2.3144,2.3144,2.3144,2.3144,2.3144,2.3144,2.3144,2.3144,2.3144,2.3144,2.3144,2.3144,2.3144,2.3144,2.3144,2.3144,2.3144,2.3144,2.3144,2.3144,2.3144,2.3144,2.3144,2.3144,2.2666,2.1787,2.2422,2.29,2.3135,2.3144,2.3144,2.3135,2.2949,2.2451,2.1631,2.1602,2.0977,1.9687,1.9814,1.9629,1.9023,1.8369,1.7822,1.7373,1.5644,1.4453,0.0,0.0,0.0,0.0,0.0,0.0,0.0,0.0,0.0,0.0,0.0,1.4637,1.2877,1.3071,1.346,1.3888,1.4663,1.5088,1.491,1.4002,1.3357,1.3227,1.1475,1.0345,1.0597,1.0123,0.973,0.9812,0.9819,0.9819,0.9822,0.988,0.9893,0.9832,0.988,0.9944,1.0015,1.0151,1.0297,1.0453,1.0612,1.0721,1.0721,1.0721,1.0721,1.0721,1.0721,1.0721,1.0721,1.0721,1.0721,1.0721,1.0721,1.0721,1.0721,1.0721,1.0721,1.0721,1.0721,1.0721,2.5732,2.5703,2.5312,2.5146,2.5098,2.4297,2.3926,2.3838,2.3408,2.3193,2.3144,2.3144,2.3144,2.3144,2.3144,2.3144,2.3144,2.3144,2.3144,2.3144,2.3144,2.3144,2.3144,2.3144,2.3144,2.3144,2.3144,2.3144,2.3144,2.3144,2.3144,2.3144,2.3144,2.3144,2.3144,2.3144,2.3144,2.3144,2.3144,2.3144,2.3135,2.2783,2.2187,2.1367,2.1179,2.0625,1.9365,1.9639,1.9463,1.8691,1.834,1.7978,1.7559,1.6758,1.6123,0.0,1.5536,0.0,0.0,0.0,0.0,0.0,0.0,0.0,0.0,1.5804,1.5173,1.4452,1.4638,1.501,1.5518,1.6579,1.6628,1.5042,1.413,1.3065,1.159,1.0362,0.9683,0.9808,0.9819,0.9819,0.9819,0.9819,0.9822,0.9859,0.9961,1.0053,1.0097,1.009,1.0124,1.0266,1.0399,1.051,1.0653,1.0711,1.0721,1.0721,1.0721,1.0721,1.0721,1.0721,1.0721,1.0721,1.0721,1.0721,1.0721,1.0721,1.0721,1.0721,1.0721,1.0721,1.0721,1.0721,1.0721,2.5732,2.5732,2.5644,2.5615,2.5566,2.5049,2.4619,2.4268,2.3857,2.3477,2.3144,2.3144,2.3144,2.3144,2.3144,2.3144,2.3144,2.3144,2.3144,2.3144,2.3144,2.3144,2.3144,2.3144,2.3144,2.3144,2.3144,2.3144,2.3144,2.3144,2.3144,2.3144,2.3144,2.3144,2.3144,0.0,0.0,0.0,2.3144,2.3144,2.3144,2.3066,2.2617,2.1797,2.1416,0.0,1.9375,1.9365,1.917,1.8611,1.8896,0.0,0.0,0.0,0.0,0.0,0.0,0.0,0.0,0.0,0.0,0.0,1.5265,1.4453,1.4517,1.5255,1.5622,1.5521,1.6007,1.6339,1.646,1.5969,1.5518,1.5068,1.3355,1.2004,1.1666,1.0517,0.9791,0.9815,0.9819,0.9819,0.9819,0.9819,0.9869,0.9978,1.0029,1.0148,1.0375,1.03,1.0249,1.0287,1.0419,1.0551,1.0697,1.0721,1.0721,1.0721,1.0721,1.0721,1.0721,1.0721,1.0721,1.0721,1.0721,1.0721,1.0721,1.0721,1.0721,1.0721,1.0721,1.0721,1.0721,1.0721,1.0721,2.5732,0.0,2.5732,2.5732,0.0,2.5488,2.5273,2.5019,2.4375,2.3857,2.3447,2.3232,2.3144,2.3144,2.3144,2.3144,2.3144,2.3144,2.3144,2.3144,2.3144,2.3144,2.3144,2.3144,2.3144,2.3144,2.3144,2.3144,2.3144,2.3144,2.3144,2.3144,2.3144,2.3144,2.3144,2.3144,2.3144,2.3144,2.3144,2.3144,2.3125,2.2939,2.2529,2.1904,0.0,0.0,0.0,0.0,0.0,0.0,0.0,0.0,0.0,0.0,0.0,1.8295,1.7567,1.7063,1.6834,1.6828,1.6865,1.6877,1.606,1.5334,1.4943,1.5765,1.6326,1.6473,1.6754,1.6734,1.6273,1.5803,1.5082,1.3653,1.2543,1.1721,1.0901,1.0251,0.9819,0.9819,0.9819,0.9819,0.9819,0.9893,0.9958,1.0046,1.0178,1.0317,1.0449,1.0429,1.0409,1.0483,1.0551,1.0629,1.07,1.0721,1.0721,1.0721,1.0721,1.0721,1.0721,1.0721,1.0721,1.0721,1.0721,1.0721,1.0721,1.0721,1.0721,1.0721,1.0721,1.0721,1.0721,1.0721,1.0721,2.5732,2.5732,2.5732,2.5732,2.5732,2.5732,2.5732,2.5684,0.0,0.0,0.0,2.3437,2.3252,2.3242,2.3174,2.3144,2.3144,2.3144,2.3144,2.3144,2.3144,2.3144,2.3144,2.3144,2.3144,2.3144,2.3144,2.3144,2.3144,2.3144,2.3144,2.3144,2.3144,2.3144,2.3144,2.3144,2.3144,2.3144,2.3144,2.3144,2.3135,2.2803,2.2422,2.2012,2.1318,2.0719,2.0185,1.9745,1.9269,1.8768,1.8058,1.8011,1.8883,1.7792,1.7714,1.9055,1.8754,1.8402,1.8113,1.8528,1.8325,1.7069,1.6677,1.6326,1.6079,1.6506,1.6907,1.7194,1.7054,1.6535,1.5775,1.5417,1.4406,1.2047,1.1749,1.1257,1.0061,0.9819,0.9819,0.9819,0.9819,0.9819,0.9822,0.9917,1.0036,1.0107,1.028,1.0487,1.0521,1.0534,1.0571,1.067,1.0694,1.0714,1.0721,1.0721,1.0721,1.0721,1.0721,1.0721,1.0721,1.0721,1.0721,1.0721,1.0721,1.0721,1.0721,1.0721,1.0721,1.0721,1.0721,1.0721,1.0721,1.0721,1.0721,2.5732,2.5732,2.5732,2.5732,2.5732,2.5732,2.5732,2.5693,2.5185,2.4736,2.4307,2.3887,2.3701,2.3682,2.331,2.3144,2.3144,2.3144,2.3144,2.3144,2.3144,2.3144,2.3144,2.3144,2.3144,2.3144,2.3144,2.3144,2.3144,2.3144,2.3144,2.3144,2.3144,2.3144,2.3144,2.3144,2.3144,2.3144,2.3144,2.3144,2.3144,2.3076,2.2852,2.2347,2.0941,2.0439,2.0985,1.9055,1.834,1.9218,1.8505,1.8062,1.7863,1.7951,1.8112,1.8263,1.7663,1.7356,1.7704,1.6893,1.6498,1.6769,1.6928,1.7001,1.6974,1.7041,1.7201,1.7495,1.653,1.5843,1.5621,1.3744,1.2368,1.1719,1.0801,1.0058,0.9822,0.9819,0.9819,0.9819,0.9819,0.9819,0.9825,0.9852,0.9975,1.0181,1.0321,1.0409,1.0616,1.069,1.0694,1.0714,1.0721,1.0721,1.0721,1.0721,1.0721,1.0721,1.0721,1.0721,1.0721,1.0721,1.0721,1.0721,1.0721,1.0721,1.0721,1.0721,1.0721,1.0721,1.0721,1.0721,1.0721,1.0721,1.0721,2.6094,2.6064,2.584,2.5732,2.5732,2.5732,2.5732,2.5723,2.5527,2.5185,2.4746,2.4316,2.4004,2.3779,2.3574,2.3359,2.3144,2.3144,2.3144,2.3144,2.3144,2.3144,2.3144,2.3144,2.3144,2.3144,2.3144,2.3144,2.3144,2.3144,2.3144,2.3144,2.3144,2.3144,2.3144,2.3144,2.3144,2.3144,2.3144,2.3144,2.3144,2.3144,2.2678,2.1848,2.0825,2.0193,1.9929,1.8625,1.8168,1.876,1.7985,1.7754,1.8221,1.74,1.7221,1.7861,1.6904,1.649,1.6901,1.6504,1.6486,1.6914,1.7068,1.6898,1.6304,1.6206,1.6256,1.6387,1.5224,1.4209,1.3541,1.2467,1.1512,1.0782,1.0144,0.9819,0.9819,0.9819,0.9819,0.9819,0.9819,0.9819,0.9819,0.9893,1.0019,1.0249,1.0399,1.0571,1.0697,1.0721,1.0721,1.0721,1.0721,1.0721,1.0721,1.0721,1.0721,1.0721,1.0721,1.0721,1.0721,1.0721,1.0721,1.0721,1.0721,1.0721,1.0721,1.0721,1.0721,1.0721,1.0721,1.0721,1.0721,1.0721,1.0721,2.6475,2.6348,2.6025,2.583,2.5732,2.5732,2.5732,2.5732,2.5732,2.5537,2.5185,2.4756,2.4385,2.4092,2.3975,2.375,2.3447,2.333,2.3281,2.3281,2.3184,2.3144,2.3144,2.3144,2.3144,2.3144,2.3144,2.3144,2.3144,2.3144,2.3144,2.3047,2.2862,2.2677,2.2677,2.2413,2.2315,2.2315,2.2325,2.2403,2.2677,2.2413,2.1854,2.0917,2.0288,1.9698,1.8962,1.8105,1.7785,1.7977,1.7229,1.7182,1.8006,1.67,1.6197,1.7044,1.6448,1.6059,1.6353,1.664,1.6799,1.6703,1.6782,1.6273,1.5062,1.4556,1.4556,1.4691,1.3737,1.2627,1.1757,1.1407,1.0882,0.9926,0.9819,0.9819,0.9819,0.9819,0.9819,0.9819,0.9819,0.9819,0.9842,0.9924,1.0066,1.0263,1.0507,1.0666,1.0707,1.0721,1.0721,1.0721,1.0721,1.0721,1.0721,1.0721,1.0721,1.0721,1.0721,1.0721,1.0721,1.0721,1.0721,1.0721,1.0721,1.0721,1.0721,1.0721,1.0721,1.0721,1.0721,1.0721,1.0721,1.0721,1.0721,2.6738,2.6406,2.6338,2.6103,2.5752,2.5732,2.5732,2.5732,2.5732,2.5723,2.5605,2.5195,2.499,2.4893,2.4531,2.4316,2.4228,2.3906,2.374,2.3672,2.332,2.3144,2.3164,2.3144,2.3144,2.3047,2.3047,2.296,2.296,2.3047,2.3047,2.296,2.2022,2.148,2.1391,2.0395,1.9861,1.9861,1.9861,2.0404,2.1302,2.0395,1.977,1.967,1.8564,1.8456,1.9149,1.723,1.657,1.7502,1.6591,1.5961,1.6062,1.5906,1.5832,1.6028,1.6182,1.6359,1.6647,1.6941,1.6594,1.5365,1.5463,1.495,1.3583,1.2295,1.2077,1.2891,1.2311,1.1621,1.1446,1.068,1.003,0.9933,0.9819,0.9819,0.9819,0.9819,0.9819,0.9819,0.9819,0.9819,0.9825,0.9856,0.9975,1.0222,1.0402,1.0555,1.0649,1.067,1.0677,1.0694,1.0711,1.0711,1.0714,1.0721,1.0721,1.0721,1.0721,1.0721,1.0721,1.0721,1.0721,1.0721,1.0721,1.0721,1.0721,1.0721,1.0717,1.0316,1.0316,1.0452,1.0585,1.0316,1.0316,2.7305,2.71,2.6602,2.6143,2.5762,2.5732,2.5732,2.5732,2.5732,2.5732,2.5723,2.5537,2.5312,2.5059,2.4873,2.4668,2.4414,2.4238,2.416,2.4121,2.3721,2.3525,2.3506,2.3252,2.3144,2.3047,2.2394,2.2031,2.2031,2.2041,2.1667,2.1132,2.1123,2.0935,2.0305,1.9761,1.9497,1.9497,1.878,1.868,1.9131,1.9405,1.9131,1.8503,1.7963,1.7498,1.7296,1.6292,1.6015,1.648,1.6109,1.5825,1.5825,1.5825,1.5905,1.6092,1.6533,1.684,1.6967,1.6497,1.5903,1.5258,1.4601,1.3588,1.2186,1.1433,1.1105,1.0716,1.0435,1.0293,1.0319,0.9996,0.9819,0.9819,0.9819,0.9819,0.9819,0.9819,0.9819,0.9819,0.9819,0.9819,0.9836,0.99,1.0002,1.0144,1.0273,1.0399,1.046,1.046,1.0463,1.0463,1.046,1.0541,1.0666,1.0721,1.0717,1.0717,1.0721,1.0721,1.0721,1.0721,1.0721,1.0721,1.0721,1.0721,1.0721,1.0585,1.0452,0.9779,0.8038,0.7503,0.7503,0.7503,0.7902,2.7764,2.7539,2.6748,2.6133,2.5742,2.5732,2.5732,2.5732,2.5732,2.5732,2.5732,2.5732,2.5557,2.5283,2.5254,2.5078,2.4795,2.4658,2.46,2.4551,2.416,2.3965,2.3926,2.3525,2.332,2.3115,2.2353,2.1658,2.1382,2.1293,2.0666,1.9761,2.0034,1.9852,1.9039,1.868,1.8488,1.8395,1.7584,1.7131,1.7311,1.8041,1.8033,1.7217,1.7225,1.6756,1.5825,1.5825,1.5825,1.5825,1.5825,1.5825,1.5832,1.5905,1.6112,1.6493,1.7009,1.7078,1.673,1.5852,1.5097,1.4234,1.3264,1.2082,1.0891,1.0457,1.0025,0.9172,0.9171,0.9439,0.9405,0.9612,0.9768,0.9812,0.9819,0.9819,0.9819,0.9819,0.9819,0.9819,0.9819,0.9819,0.9836,0.9907,0.9988,1.0056,1.0148,1.0243,1.027,1.029,1.029,1.028,1.0283,1.0388,1.0605,1.0646,1.0663,1.0717,1.0721,1.0721,1.0721,1.0721,1.0721,1.0721,1.0721,1.0721,1.0721,1.0585,1.0316,0.8972,0.7633,0.6431,0.6831,0.6297,0.6431,2.8037,2.7559,2.6738,2.6152,2.5742,2.5732,2.5732,2.5732,2.5732,2.5732,2.5732,2.5732,2.5723,2.5674,2.5654,2.5674,2.5596,2.5215,2.5039,2.499,2.459,2.4385,2.4365,2.3965,2.376,2.3531,2.2907,2.2069,2.1114,2.1203,2.0666,1.9488,1.8503,1.7963,1.7591,1.6756,1.6008,1.6197,1.6109,1.592,1.592,1.6008,1.6103,1.6015,1.592,1.5927,1.5825,1.5825,1.5825,1.5825,1.5825,1.5832,1.5858,1.6112,1.652,1.7007,1.7128,1.6639,1.5671,1.5293,1.4126,1.1969,1.1319,1.0566,0.9372,0.9265,0.9154,0.894,0.9086,0.9228,0.9371,0.954,0.969,0.9805,0.9819,0.9819,0.9819,0.9819,0.9819,0.9819,0.9819,0.9819,0.9819,0.9825,0.9907,0.9995,1.0053,1.01,1.0202,1.0249,1.0243,1.0239,1.0253,1.0324,1.0466,1.0538,1.0588,1.0666,1.0721,1.0717,1.0721,1.0721,1.0717,1.0717,1.0721,1.0721,1.0721,1.0585,1.0316,0.9507,0.8568,0.79,0.6028,0.7229,0.696,2.7881,2.7226,2.6914,2.6387,2.5762,2.5732,2.5732,2.5732,2.5732,2.5732,2.5732,2.5732,2.5732,2.5732,2.5732,2.5732,2.5723,2.5557,2.5498,2.5439,2.5039,2.4834,2.4785,2.4394,2.3712,2.2806,2.1695,1.9979,1.8041,1.858,1.8403,1.749,1.7591,1.7311,1.6574,1.6015,1.5825,1.5825,1.5825,1.5825,1.5832,1.5825,1.5825,1.5825,1.5825,1.5825,1.5825,1.5825,1.5825,1.5825,1.5825,1.5912,1.6132,1.6573,1.6501,1.5865,1.5934,1.5429,1.4218,1.3151,1.2295,1.1214,1.0245,0.9588,0.9047,0.8937,0.8937,0.8964,0.9069,0.9215,0.9367,0.952,0.9669,0.9791,0.9819,0.9819,0.9819,0.9819,0.9819,0.9819,0.9819,0.9819,0.9819,0.9819,0.9842,0.9886,0.9903,0.9937,0.9968,0.9988,0.9881,0.9988,0.9992,1.0073,1.0334,1.0443,1.0534,1.0649,1.0717,1.0717,1.0585,1.0449,1.0449,0.9915,1.018,1.0047,0.9779,0.844,0.844,0.8571,0.79,0.6562,0.4558,0.4958,0.4423,2.7793,2.708,2.7012,2.6514,2.5771,2.5732,2.5732,2.5732,2.5732,2.5732,2.5732,2.5732,2.5732,2.5732,2.5732,2.5732,2.5732,2.5732,2.5732,2.5703,2.542,2.5283,2.511,2.4354,2.3457,2.2438,2.095,1.8933,1.6978,1.7523,1.7251,1.6312,1.6873,1.6816,1.6054,1.5885,1.5825,1.5825,1.5825,1.5872,1.5945,1.5972,1.6019,1.6099,1.6112,1.6005,1.5845,1.5825,1.5885,1.5952,1.5979,1.6152,1.6547,1.6514,1.6135,1.5275,1.4893,1.4126,1.2729,1.1647,1.0891,1.046,0.9478,0.8937,0.8937,0.8937,0.8937,0.896,0.9018,0.9157,0.9344,0.9476,0.9612,0.9774,0.9819,0.9819,0.9819,0.9819,0.9819,0.9819,0.9819,0.9819,0.9819,0.9819,0.9822,0.9819,0.9819,0.9819,0.9819,0.9326,0.9329,0.9572,0.9223,0.9455,0.9903,1.0307,1.0367,1.0501,1.0445,1.0449,1.0044,0.9911,0.9643,0.9244,0.9108,0.8975,0.8304,0.67,0.6564,0.6829,0.6162,0.4959,0.3355,0.2149,0.2149,2.7793,2.706,2.7012,2.6523,2.5791,2.5732,2.5732,2.5732,2.5732,2.5732,2.5732,2.5732,2.5732,2.5732,2.5732,2.5732,2.5732,2.5732,2.5732,2.5723,2.5693,2.5684,2.5548,2.4169,2.3157,2.2716,2.113,1.9692,1.8182,1.816,1.769,1.6806,1.6484,1.6468,1.6273,1.6046,1.5885,1.5905,1.5925,1.6025,1.6233,1.6273,1.6386,1.6613,1.664,1.6406,1.5899,1.5879,1.6019,1.6239,1.6273,1.6553,1.6886,1.6,1.5159,1.5022,1.4019,1.262,1.1324,1.1,1.0241,0.9372,0.8937,0.8937,0.8937,0.8937,0.8937,0.894,0.8971,0.9076,0.9323,0.9412,0.9534,0.9761,0.9819,0.9819,0.9819,0.9819,0.9819,0.9819,0.9697,0.9697,0.9697,0.9326,0.9083,0.9329,0.9329,0.9204,0.9204,0.8221,0.8218,0.8711,0.8349,0.7798,0.8907,1.0059,1.0154,1.0343,1.0145,1.0044,0.8969,0.8435,0.7636,0.7236,0.7102,0.6967,0.6965,0.5629,0.5498,0.5496,0.4427,0.3757,0.2954,0.1881,0.121,2.7793,2.7041,2.7012,2.6523,2.5781,2.5732,2.5732,2.5732,2.5732,2.5732,2.5732,2.5732,2.5732,2.5732,2.5732,2.5732,2.5732,2.5732,2.5732,2.5732,2.5732,2.5732,2.5606,2.5091,2.3749,2.1829,2.0325,1.8766,1.7533,1.7306,1.7,1.678,1.662,1.6573,1.6567,1.648,1.6433,1.6433,1.6433,1.6486,1.6567,1.6573,1.662,1.6693,1.6707,1.66,1.6453,1.6433,1.648,1.6573,1.6573,1.6747,1.6889,1.5953,1.4904,1.3895,1.262,1.1105,0.9915,0.9588,0.9482,0.9047,0.8937,0.8937,0.8937,0.8937,0.8937,0.895,0.9028,0.9174,0.9344,0.9479,0.9615,0.9798,0.9819,0.9819,0.9819,0.9697,0.9819,0.9697,0.8836,0.8221,0.7972,0.7484,0.7121,0.7853,0.7365,0.6874,0.7606,0.675,0.5772,0.6263,0.5782,0.6039,0.6988,0.7689,0.7806,0.8229,0.8585,0.8392,0.7469,0.6696,0.5897,0.5228,0.4962,0.4829,0.4827,0.4559,0.4159,0.3891,0.3088,0.2685,0.2552,0.1881,0.0941,2.7793,2.7041,2.7012,2.6523,2.5762,2.5732,2.5732,2.5732,2.5732,2.5732,2.5732,2.5732,2.5732,2.5732,2.5732,2.5732,2.5732,2.5732,2.5732,2.5732,2.5732,2.5732,2.5538,2.4609,2.2663,2.0257,1.9015,1.8119,1.7143,1.7027,1.7034,1.7034,1.6927,1.6867,1.6854,1.6754,1.6707,1.6707,1.6693,1.676,1.6847,1.6867,1.6927,1.7007,1.7034,1.7027,1.7027,1.7027,1.6981,1.6914,1.6961,1.6916,1.6567,1.5335,1.4014,1.2512,1.1109,0.9805,0.9047,0.9047,0.8937,0.8937,0.8937,0.8937,0.8937,0.8937,0.8937,0.8957,0.9066,0.9215,0.9367,0.952,0.9666,0.9805,0.9819,0.9819,0.9697,0.9204,0.8958,0.8468,0.7487,0.6628,0.6139,0.5772,0.5284,0.6139,0.5649,0.5039,0.5894,0.5037,0.4548,0.4303,0.4304,0.4692,0.5095,0.5258,0.5293,0.59,0.6521,0.6187,0.5431,0.4809,0.4025,0.2953,0.2551,0.2418,0.2283,0.2149,0.1881,0.1613,0.0,0.0,0.0,0.0,0.0,2.7773,2.7051,2.6982,2.6484,2.5771,2.5732,2.5732,2.5732,2.5732,2.5732,2.5732,2.5732,2.5732,2.5732,2.5732,2.5732,2.5732,2.5732,2.5732,2.5732,2.5635,2.5635,2.5128,2.3185,2.0813,1.8568,1.806,1.7752,1.7482,1.7488,1.7575,1.7488,1.7275,1.7174,1.7134,1.6901,1.682,1.6847,1.6814,1.6941,1.7161,1.7174,1.7275,1.7522,1.7515,1.7508,1.7495,1.7265,1.7193,1.7248,1.7284,1.6641,1.5506,1.4014,1.2507,1.1324,0.9809,0.9154,0.8937,0.8937,0.8937,0.8937,0.8937,0.8937,0.8937,0.8937,0.8937,0.8947,0.9069,0.9215,0.9371,0.952,0.9666,0.9788,0.9572,0.9451,0.9451,0.8221,0.7362,0.6996,0.5894,0.4794,0.4794,0.4548,0.4426,0.4671,0.4426,0.418,0.4303,0.3813,0.3322,0.0,0.0,0.2836,0.3098,0.3231,0.3251,0.34,0.4106,0.4035,0.3693,0.3199,0.2417,0.1344,0.0,0.0,0.0,0.0,0.0,0.0,0.0,0.0,0.0,0.0,0.0,2.751,2.7002,2.668,2.623,2.5762,2.5732,2.5732,2.5732,2.5732,2.5732,2.5732,2.5732,2.5732,2.5732,2.5732,2.5732,2.5732,2.5732,2.5732,2.5732,2.5732,2.5128,2.4097,2.2567,2.0735,1.922,1.8812,1.861,1.7687,1.7589,1.7589,1.7582,1.7502,1.7462,1.7442,1.7361,1.7355,1.7355,1.7348,1.7361,1.7435,1.7462,1.7495,1.7569,1.7589,1.7582,1.7477,1.6499,1.6586,1.737,1.6449,1.5849,1.5097,1.3048,1.1538,1.0891,0.9809,0.8937,0.8937,0.8937,0.8937,0.8937,0.8937,0.8937,0.8937,0.8937,0.8937,0.8964,0.9072,0.9222,0.9371,0.9523,0.9669,0.9667,0.8833,0.8097,0.7853,0.663,0.5527,0.5406,0.4057,0.3322,0.2954,0.234,0.1971,0.2708,0.2462,0.1971,0.2463,0.0,0.0,0.0,0.0,0.0,0.0988,0.1113,0.1116,0.0994,0.1514,0.2059,0.1964,0.1865,0.1072,0.0135,0.0,0.0,0.0,0.0,0.0,0.0,0.0,0.0,0.0,0.0,0.0,2.7305,2.6738,2.6484,2.6133,2.5762,2.5732,2.5732,2.5732,2.5732,2.5732,2.5732,2.5732,2.5732,2.5732,2.5732,2.5732,2.5732,2.5732,2.5732,2.5528,2.5118,2.4412,2.3484,2.2357,2.0939,1.9627,1.9013,1.8297,1.7687,1.7589,1.7589,1.7582,1.7589,1.7589,1.7569,1.7589,1.7589,1.7575,1.7589,1.7589,1.7589,1.7589,1.7582,1.7589,1.7582,1.7364,1.6711,1.5849,1.5849,1.6168,1.531,1.4234,1.3583,1.2077,1.0891,1.0241,0.9375,0.8937,0.8937,0.8937,0.8937,0.8937,0.8937,0.8937,0.8937,0.894,0.8947,0.9039,0.9164,0.9313,0.9462,0.9612,0.9724,0.9559,0.7731,0.675,0.7238,0.5282,0.4059,0.3569,0.2586,0.0,0.0,0.0,0.0,0.0986,0.0863,0.0863,0.0,0.0,0.0,0.0,0.0,0.0,0.0,0.0,0.0,0.0,0.0,0.0,0.0,0.0,0.0,0.0,0.0,0.0,0.0,0.0,0.0,0.0,0.0,0.0,0.0,0.0,0.0,2.708,2.6387,2.6338,2.6094,2.5762,2.5732,2.5732,2.5732,2.5732,2.5732,2.5732,2.5732,2.5732,2.5732,2.5732,2.5732,2.5732,2.5732,2.5528,2.5118,2.4412,2.3692,2.3176,2.1853,2.0538,1.922,1.8094,1.7793,1.7589,1.7589,1.7589,1.7589,1.7589,1.7589,1.7589,1.7589,1.7589,1.7589,1.7589,1.7589,1.7589,1.7589,1.7589,1.7582,1.7147,1.6605,1.5743,1.499,1.477,1.4871,1.3696,1.2615,1.1428,1.1109,1.0241,0.9375,0.9044,0.8937,0.8937,0.8937,0.8937,0.8937,0.8937,0.8937,0.8944,0.8964,0.9025,0.9117,0.9303,0.9466,0.9612,0.9751,0.9552,0.9083,0.663,0.5896,0.5894,0.4179,0.2217,0.2217,0.0863,0.0,0.0,0.0,0.0,0.0,0.0,0.0,0.0,0.0,0.0,0.0,0.0,0.0,0.0,0.0,0.0,0.0,0.0,0.0,0.0,0.0,0.0,0.0,0.0,0.0,0.0,0.0,0.0,0.0,0.0,0.0,0.0,0.0,0.0,2.6562,2.6357,2.6016,2.582,2.5742,2.5732,2.5732,2.5732,2.5732,2.5732,2.5732,2.5732,2.5732,2.5732,2.5732,2.5732,2.5732,2.5635,2.5216,2.4097,2.3899,2.3076,2.2156,2.0939,1.942,1.8401,1.7786,1.7582,1.7589,1.7589,1.7589,1.7589,1.7589,1.7589,1.7589,1.7589,1.7589,1.7589,1.7589,1.7589,1.7589,1.7589,1.7582,1.7364,1.6499,1.5743,1.4984,1.3151,1.2077,1.1969,1.1751,1.1324,1.0891,1.0025,0.9375,0.9044,0.8937,0.8937,0.8937,0.8937,0.8937,0.8937,0.895,0.8937,0.8947,0.9052,0.911,0.9201,0.9395,0.9595,0.9737,0.9795,0.9201,0.7975,0.6139,0.4427,0.3568,0.0,0.0,0.0,0.0,0.0,0.0,0.0,0.0,0.0,0.0,0.0,0.0,0.0,0.0,0.0,0.0,0.0,0.0,0.0,0.0,0.0,0.0,0.0,0.0,0.0,0.0,0.0,0.0,0.0,0.0,0.0,0.0,0.0,0.0,0.0,0.0,0.0,0.0,2.6269,2.6064,2.583,2.5732,2.5732,2.5732,2.5732,2.5732,2.5732,2.5732,2.5732,2.5732,2.5732,2.5732,2.5732,2.5732,2.5732,2.5732,2.5323,2.4805,2.4609,2.389,2.2567,2.1245,1.993,1.8603,1.7891,1.7694,1.7589,1.7589,1.7589,1.7589,1.7589,1.7589,1.7589,1.7589,1.7589,1.7589,1.7589,1.7589,1.7589,1.7589,1.7147,1.6711,1.5743,1.4877,1.3264,1.2082,1.0891,1.0237,1.0131,1.0131,1.0021,0.9372,0.8937,0.8937,0.8937,0.8937,0.8937,0.8937,0.8937,0.8944,0.8994,0.9032,0.9072,0.9174,0.9293,0.9374,0.9517,0.9666,0.9677,0.8958,0.8218,0.7238,0.5158,0.3444,0.2462,0.0,0.0,0.0,0.0,0.0,0.0,0.0,0.0,0.0,0.0,0.0,0.0,0.0,0.0,0.0,0.0,0.0,0.0,0.0,0.0,0.0,0.0,0.0,0.0,0.0,0.0,0.0,0.0,0.0,0.0,0.0,0.0,0.0,0.0,0.0,0.0,0.0,0.0,2.6074,2.5732,2.5732,2.5732,2.5732,2.5732,2.5732,2.5732,2.5732,2.5732,2.5732,2.5732,2.5732,2.5732,2.5732,2.5732,2.5732,2.5635,2.544,2.502,2.451,2.3592,2.2366,2.1041,2.0025,1.922,1.8094,1.7687,1.7589,1.7589,1.7589,1.7589,1.7589,1.7589,1.7589,1.7589,1.7589,1.7589,1.7589,1.7589,1.7589,1.7589,1.7041,1.628,1.5524,1.4556,1.294,1.1864,1.0887,0.9372,0.9261,0.9154,0.8937,0.8937,0.8937,0.8937,0.8937,0.8937,0.895,0.8964,0.8988,0.8977,0.9106,0.9178,0.9222,0.9323,0.9449,0.9547,0.9642,0.9703,0.9684,0.8465,0.7484,0.6503,0.4179,0.2585,0.1971,0.0,0.0,0.0,0.0,0.0,0.0,0.0,0.0,0.0,0.0,0.0,0.0,0.0,0.0,0.0,0.0,0.0,0.0,0.0,0.0,0.0,0.0,0.0,0.0,0.0,0.0,0.0,0.0,0.0,0.0,0.0,0.0,0.0,0.0,0.0,0.0,0.0,0.0,2.5801,2.5732,2.5732,2.5732,2.5732,2.5732,2.5732,2.5732,2.5732,2.5732,2.5732,2.5732,2.5732,2.5732,2.5732,2.5732,2.5732,2.5538,2.502,2.4097,2.3285,2.1963,2.0947,1.9723,1.8603,1.7996,1.7687,1.7589,1.7589,1.7589,1.7589,1.7589,1.7589,1.7589,1.7589,1.7589,1.7589,1.7589,1.7589,1.7589,1.7589,1.7582,1.7364,1.6717,1.5849,1.4883,1.4234,1.3264,1.2295,1.0891,1.0781,1.0021,0.9154,0.8937,0.8937,0.8937,0.8937,0.8937,0.8947,0.9045,0.91,0.915,0.9256,0.9337,0.9378,0.9476,0.9581,0.9629,0.9717,0.9791,0.969,0.834,0.6872,0.5404,0.4057,0.2217,0.0986,0.0,0.0,0.0,0.0,0.0,0.0,0.0,0.0,0.0,0.0,0.0,0.0,0.0,0.0,0.0,0.0,0.0,0.0,0.0,0.0,0.0,0.0,0.0,0.0,0.0,0.0,0.0,0.0,0.0,0.0,0.0,0.0,0.0,0.0,0.0,0.0,0.0,0.0,2.5732,2.5732,2.5732,2.5732,2.5732,2.5732,2.5732,2.5732,2.5732,2.5732,2.5732,2.5732,2.5732,2.5732,2.5732,2.5732,2.5635,2.4913,2.4304,2.3484,2.2357,2.1448,2.0436,1.922,1.8812,1.8506,1.7996,1.7589,1.7589,1.7589,1.7589,1.7589,1.7589,1.7589,1.7589,1.7589,1.7589,1.7589,1.7589,1.7589,1.7589,1.7589,1.7364,1.6387,1.5737,1.4663,1.3156,1.2615,1.1433,1.0241,0.9911,0.9588,0.9154,0.8937,0.8937,0.8937,0.8937,0.8937,0.896,0.9066,0.9144,0.9178,0.9361,0.9486,0.9534,0.9622,0.9703,0.973,0.9751,0.9819,0.9697,0.8343,0.7116,0.6139,0.4669,0.3077,0.1726,0.1356,0.074,0.0,0.0,0.0,0.0,0.0,0.0,0.0,0.0,0.0,0.0,0.0,0.0,0.0,0.0,0.0,0.0,0.0,0.0,0.0,0.0,0.0,0.0,0.0,0.0,0.0,0.0,0.0,0.0,0.0,0.0,0.0,0.0,0.0,0.0,0.0,0.0,2.5732,2.5732,2.5732,2.5732,2.5732,2.5732,2.5732,2.5732,2.5732,2.5732,2.5732,2.5732,2.5732,2.5732,2.5732,2.5635,2.5635,2.4609,2.4304,2.3899,2.2458,2.1651,2.1245,2.0135,1.8916,1.8506,1.8094,1.7589,1.7589,1.7589,1.7589,1.7589,1.7589,1.7589,1.7589,1.7589,1.7589,1.7589,1.7589,1.7589,1.7589,1.7582,1.7147,1.5956,1.5849,1.477,1.294,1.262,1.1433,1.0241,0.9588,0.9265,0.8937,0.8937,0.8937,0.8937,0.8937,0.8937,0.8977,0.9123,0.9222,0.9235,0.9493,0.9612,0.9669,0.9734,0.9808,0.9819,0.9819,0.9819,0.9576,0.834,0.7484,0.6994,0.5772,0.4303,0.2954,0.1971,0.1233,0.0,0.0,0.0,0.0,0.0,0.0,0.0,0.0,0.0,0.0,0.0,0.0,0.0,0.0,0.0,0.0,0.0,0.0,0.0,0.0,0.0,0.0,0.0,0.0,0.0,0.0,0.0,0.0,0.0,0.0,0.0,0.0,0.0,0.0,0.0,0.0,2.5732,2.5732,2.5732,2.5732,2.5732,2.5732,2.5732,2.5732,2.5732,2.5732,2.5732,2.5732,2.5732,2.5732,2.5732,2.5732,2.5635,2.5226,2.4913,2.4402,2.2667,2.1541,2.1135,1.8902,1.8297,1.8094,1.7786,1.7582,1.7589,1.7589,1.7589,1.7589,1.7589,1.7589,1.7589,1.7589,1.7589,1.7589,1.7589,1.7589,1.7589,1.7589,1.7477,1.7259,1.7041,1.6174,1.4443,1.3911,1.3048,1.0781,1.0672,1.0131,0.9154,0.8937,0.8937,0.8937,0.8937,0.894,0.8981,0.9178,0.9323,0.9371,0.9608,0.9758,0.9788,0.9788,0.9819,0.9819,0.9819,0.9819,0.9572,0.8465,0.7606,0.6994,0.6261,0.4547,0.3076,0.2462,0.1725,0.0,0.0,0.0,0.0,0.0,0.0,0.0,0.0,0.0,0.0,0.0,0.0,0.0,0.0,0.0,0.0,0.0,0.0,0.0,0.0,0.0,0.0,0.0,0.0,0.0,0.0,0.0,0.0,0.0,0.0,0.0,0.0,0.0,0.0,0.0,0.0,2.5732,2.5732,2.5732,2.5732,2.5732,2.5732,2.5732,2.5732,2.5732,2.5732,2.5732,2.5732,2.5732,2.5732,2.5732,2.5732,2.5528,2.502,2.4097,2.3692,2.2257,2.0939,1.962,1.8909,1.8499,1.7687,1.7589,1.7582,1.7589,1.7589,1.7589,1.7589,1.7589,1.7589,1.7589,1.7589,1.7589,1.7589,1.7589,1.7589,1.7589,1.7589,1.7589,1.7589,1.7589,1.628,1.477,1.4126,1.2724,1.0457,0.9805,0.9592,0.9047,0.8937,0.8937,0.8937,0.8937,0.8937,0.8974,0.9222,0.9344,0.9449,0.9635,0.9805,0.9819,0.9819,0.9819,0.9819,0.9819,0.9819,0.9819,0.9204,0.8955,0.8221,0.6996,0.5527,0.3933,0.283,0.0,0.0,0.0,0.0,0.0,0.0,0.0,0.0,0.0,0.0,0.0,0.0,0.0,0.0,0.0,0.0,0.0,0.0,0.0,0.0,0.0,0.0,0.0,0.0,0.0,0.0,0.0,0.0,0.0,0.0,0.0,0.0,0.0,0.0,0.0,0.0,0.0,2.5732,2.5732,2.5732,2.5732,2.5732,2.5732,2.5732,2.5732,2.5732,2.5732,2.5732,2.5732,2.5732,2.5732,2.5732,2.5732,2.5635,2.4609,2.3692,2.2868,2.1853,2.0641,1.962,1.9317,1.8401,1.7582,1.7589,1.7589,1.7589,1.7589,1.7589,1.7589,1.7589,1.7589,1.7589,1.7589,1.7589,1.7589,1.7589,1.7589,1.7589,1.7589,1.7589,1.7477,1.7041,1.5855,1.3696,1.2832,1.1324,0.9588,0.9047,0.9047,0.8937,0.8937,0.8937,0.8937,0.8937,0.8937,0.9022,0.9191,0.9361,0.9503,0.9635,0.9819,0.9819,0.9819,0.9819,0.9819,0.9819,0.9819,0.9819,0.9697,0.9572,0.9079,0.8221,0.6628,0.5037,0.3321,0.0,0.0,0.0,0.0,0.0,0.0,0.0,0.0,0.0,0.0,0.0,0.0,0.0,0.0,0.0,0.0,0.0,0.0,0.0,0.0,0.0,0.0,0.0,0.0,0.0,0.0,0.0,0.0,0.0,0.0,0.0,0.0,0.0,0.0,0.0,0.0,0.0,2.5732,2.5732,2.5723,2.5713,2.5732,2.5732,2.5732,2.5732,2.5732,2.5713,2.5664,2.5703,2.5664,2.5654,2.5576,2.5596,2.5586,2.5625,2.5004,2.4104,2.3067,2.1636,2.0491,1.9177,1.8025,1.7752,1.7627,1.7535,1.7589,1.7589,1.7589,1.7589,1.7589,1.7589,1.7589,1.7589,1.7589,1.7589,1.7589,1.7589,1.7589,1.7589,1.7589,1.7259,1.628,1.477,1.3378,1.2191,1.0781,0.9047,0.8937,0.8937,0.8937,0.8937,0.8937,0.8937,0.8937,0.8947,0.9032,0.9218,0.9432,0.9588,0.972,0.9819,0.9819,0.9819,0.9819,0.9819,0.9819,0.9819,0.9819,0.9819,0.9819,0.8836,0.7731,0.6139,0.4547,0.2953,0.0,0.0,0.0,0.0,0.0,0.0,0.0,0.0,0.0,0.0,0.0,0.0,0.0,0.0,0.0,0.0,0.0,0.0,0.0,0.0,0.0,0.0,0.0,0.0,0.0,0.0,0.0,0.0,0.0,0.0,0.0,0.0,0.0,0.0,0.0,0.0,0.0,2.4922,2.4922,2.4932,2.5244,2.5732,2.5732,2.5732,2.5732,2.5732,2.5566,2.5322,2.5312,2.5176,2.501,2.4922,2.4922,2.4932,2.4932,2.4469,2.4051,2.3249,2.2364,2.1178,1.9975,1.9205,1.8387,1.7833,1.7435,1.7569,1.7575,1.7589,1.7589,1.7589,1.7589,1.7589,1.7589,1.7589,1.7589,1.7589,1.7589,1.7589,1.7589,1.7589,1.7477,1.6174,1.477,1.3372,1.186,1.0457,0.9372,0.8937,0.8937,0.8937,0.8937,0.8937,0.8937,0.8937,0.8974,0.9069,0.9266,0.9479,0.9696,0.9791,0.9819,0.9819,0.9819,0.9819,0.9819,0.9819,0.9819,0.9819,0.9697,0.9451,0.8343,0.6872,0.5282,0.3812,0.2339,0.0,0.0,0.0,0.0,0.0,0.0,0.0,0.0,0.0,0.0,0.0,0.0,0.0,0.0,0.0,0.0,0.0,0.0,0.0,0.0,0.0,0.0,0.0,0.0,0.0,0.0,0.0,0.0,0.0,0.0,0.0,0.0,0.0,0.0,0.0,0.0,0.0,2.4424,2.4424,2.4424,2.4766,2.5312,2.5342,2.5342,2.5342,2.5312,2.5185,2.4873,2.4863,2.4717,2.4473,2.4434,2.4453,2.4502,2.44,2.3887,2.3523,2.3251,2.2398,2.1058,1.986,1.8934,1.8398,1.7749,1.7281,1.7415,1.7528,1.7575,1.7589,1.7589,1.7589,1.7589,1.7589,1.7589,1.7589,1.7589,1.7589,1.7589,1.7589,1.7589,1.7371,1.6174,1.477,1.3372,1.186,1.0457,0.9372,0.8937,0.8937,0.8937,0.8937,0.8937,0.8937,0.895,0.8994,0.9106,0.9337,0.9551,0.9764,0.9812,0.9819,0.9819,0.9819,0.9819,0.9819,0.9819,0.9819,0.9697,0.9326,0.8711,0.7606,0.528,0.3689,0.2831,0.0,0.0,0.0,0.0,0.0,0.0,0.0,0.0,0.0,0.0,0.0,0.0,0.0,0.0,0.0,0.0,0.0,0.0,0.0,0.0,0.0,0.0,0.0,0.0,0.0,0.0,0.0,0.0,0.0,0.0,0.0,0.0,0.0,0.0,0.0,0.0,0.0,0.0,2.4375,2.4424,2.4375,2.4394,2.4463,2.4463,2.4502,2.459,2.456,2.4512,2.4443,2.4434,2.4394,2.4307,2.4209,2.4199,2.4209,2.4258,2.4074,2.3842,2.3121,2.1914,2.067,1.9597,1.8611,1.7241,1.6887,1.7021,1.7154,1.7315,1.7455,1.7555,1.7549,1.7589,1.7589,1.7589,1.7589,1.7589,1.7589,1.7589,1.7589,1.7589,1.7589,1.7259,1.6174,1.477,1.3696,1.2295,1.0891,0.9588,0.9375,0.9154,0.8937,0.8937,0.8937,0.8937,0.8937,0.8947,0.8984,0.9364,0.9595,0.9747,0.9771,0.9791,0.9812,0.9819,0.9819,0.9819,0.9819,0.9819,0.9326,0.8587,0.785,0.6503,0.4179,0.2585,0.1725,0.0,0.0,0.0,0.0,0.0,0.0,0.0,0.0,0.0,0.0,0.0,0.0,0.0,0.0,0.0,0.0,0.0,0.0,0.0,0.0,0.0,0.0,0.0,0.0,0.0,0.0,0.0,0.0,0.0,0.0,0.0,0.0,0.0,0.0,0.0,0.0,0.0,0.0,2.3574,2.3564,2.3564,2.3574,2.3652,2.4199,2.4414,2.4424,2.4404,2.4258,2.4033,2.3994,2.3809,2.3662,2.3603,2.3633,2.3603,2.3564,2.3574,2.3504,2.2986,2.217,2.0994,1.9772,1.8609,1.7635,1.714,1.6827,1.6854,1.7027,1.7154,1.7255,1.7455,1.7582,1.7589,1.7589,1.7589,1.7589,1.7589,1.7589,1.7589,1.7589,1.7582,1.7582,1.6174,1.5204,1.4561,1.3156,1.1864,1.0457,1.0135,0.9809,0.9154,0.8937,0.8937,0.8937,0.894,0.8991,0.9055,0.9269,0.9418,0.9578,0.9693,0.9734,0.9798,0.9819,0.9819,0.9819,0.9819,0.9819,0.9572,0.8218,0.7238,0.5527,0.369,0.2094,0.0,0.0,0.0,0.0,0.0,0.0,0.0,0.0,0.0,0.0,0.0,0.0,0.0,0.0,0.0,0.0,0.0,0.0,0.0,0.0,0.0,0.0,0.0,0.0,0.0,0.0,0.0,0.0,0.0,0.0,0.0,0.0,0.0,0.0,0.0,0.0,0.0,0.0,0.0,2.3144,2.3144,2.3144,2.3144,2.3223,2.374,2.3975,2.3975,2.3975,2.3809,2.3603,2.3555,2.3437,2.3213,2.3144,2.3144,2.3144,2.3144,2.3154,2.3144,2.3067,2.2293,2.1356,2.0404,1.9217,1.8172,1.7394,1.6974,1.6567,1.6667,1.682,1.7027,1.7275,1.7375,1.7435,1.7488,1.7589,1.7589,1.7589,1.7589,1.7589,1.7589,1.7589,1.7364,1.6717,1.5962,1.5316,1.4341,1.3156,1.1864,1.0891,1.046,0.9372,0.8937,0.8937,0.8937,0.8947,0.8991,0.9045,0.9069,0.9222,0.9401,0.9527,0.9676,0.9785,0.9819,0.9819,0.9819,0.9819,0.9329,0.8836,0.7604,0.5892,0.4303,0.2708,0.111,0.0,0.0,0.0,0.0,0.0,0.0,0.0,0.0,0.0,0.0,0.0,0.0,0.0,0.0,0.0,0.0,0.0,0.0,0.0,0.0,0.0,0.0,0.0,0.0,0.0,0.0,0.0,0.0,0.0,0.0,0.0,0.0,0.0,0.0,0.0,0.0,0.0,0.0,0.0,2.3144,2.3144,2.3144,2.3144,2.3144,2.3223,2.3203,2.3164,2.3184,2.3184,2.3164,2.3193,2.3174,2.3154,2.3144,2.3144,2.3144,2.3144,2.3144,2.3144,2.3144,2.2217,2.1667,2.1025,1.9637,1.8458,1.7662,1.7131,1.6481,1.6493,1.664,1.6754,1.6994,1.7101,1.7201,1.7355,1.7502,1.7562,1.7589,1.7589,1.7589,1.7589,1.7589,1.7477,1.7259,1.6717,1.6062,1.5204,1.3804,1.2512,1.1214,1.0241,0.9478,0.8937,0.8937,0.8937,0.8937,0.895,0.896,0.8971,0.9049,0.9242,0.9422,0.9622,0.9747,0.9778,0.9785,0.9562,0.9451,0.859,0.7728,0.6014,0.4301,0.2831,0.1356,0.0,0.0,0.0,0.0,0.0,0.0,0.0,0.0,0.0,0.0,0.0,0.0,0.0,0.0,0.0,0.0,0.0,0.0,0.0,0.0,0.0,0.0,0.0,0.0,0.0,0.0,0.0,0.0,0.0,0.0,0.0,0.0,0.0,0.0,0.0,0.0,0.0,0.0,0.0,0.0,2.3144,2.3144,2.3144,2.3144,2.3144,2.3144,2.3144,2.3144,2.3144,2.3144,2.3144,2.3144,2.3144,2.3144,2.3144,2.3144,2.3144,2.3144,2.3144,2.3144,2.3047,2.2306,2.1756,2.1203,1.9761,1.8535,1.7702,1.7312,1.6313,1.6259,1.64,1.6446,1.6693,1.68,1.6934,1.7121,1.7335,1.7508,1.7535,1.7589,1.7589,1.7589,1.7589,1.7589,1.7589,1.7147,1.6823,1.5956,1.477,1.4126,1.2077,1.0781,1.0672,0.9588,0.8937,0.8937,0.8937,0.894,0.8937,0.8937,0.8994,0.9103,0.9245,0.9418,0.9574,0.9683,0.9713,0.9516,0.8827,0.785,0.6628,0.5037,0.3444,0.1971,0.0,0.0,0.0,0.0,0.0,0.0,0.0,0.0,0.0,0.0,0.0,0.0,0.0,0.0,0.0,0.0,0.0,0.0,0.0,0.0,0.0,0.0,0.0,0.0,0.0,0.0,0.0,0.0,0.0,0.0,0.0,0.0,0.0,-0.1725,-0.1848,-0.3077,0.0,0.0,0.0,0.0,0.0,2.3144,2.3144,2.3144,2.3144,2.3144,2.3144,2.3144,2.3144,2.3144,2.3144,2.3144,2.3144,2.3144,2.3144,2.3144,2.3144,2.3144,2.3144,2.3144,2.3144,2.3144,2.2677,2.2217,2.1756,2.0584,1.9231,1.8133,1.7621,1.6434,1.5959,1.6099,1.6126,1.6386,1.65,1.662,1.6814,1.7034,1.7241,1.7408,1.7542,1.7582,1.7575,1.7589,1.7589,1.7589,1.7589,1.7477,1.6493,1.5849,1.4883,1.2403,1.1324,1.0672,0.9261,0.8937,0.8937,0.8937,0.8937,0.8937,0.8937,0.8991,0.9042,0.9076,0.9198,0.9388,0.9534,0.9625,0.9583,0.83,0.6991,0.5647,0.4301,0.283,0.1479,0.0,0.0,0.0,0.0,0.0,0.0,0.0,0.0,0.0,0.0,0.0,0.0,0.0,0.0,0.0,0.0,0.0,0.0,0.0,0.0,0.0,0.0,0.0,0.0,0.0,0.0,0.0,0.0,0.0,0.0,0.0,-0.1602,-0.2708,-0.3322,-0.369,-0.4795,-0.5286,-0.4057,-0.3076,0.0,0.0,2.3144,2.3144,2.3144,2.3144,2.3144,2.3144,2.3144,2.3144,2.3144,2.3144,2.3144,2.3144,2.3144,2.3144,2.3144,2.3144,2.3144,2.3144,2.3144,2.3144,2.3144,2.295,2.295,2.2872,2.1498,2.0305,1.9397,1.8664,1.6842,1.6347,1.6374,1.594,1.6092,1.6233,1.6279,1.6526,1.6707,1.6794,1.7134,1.7395,1.7502,1.7549,1.7589,1.7589,1.7589,1.7589,1.7582,1.7035,1.628,1.4556,1.294,1.1864,1.0351,0.9372,0.9261,0.8937,0.8937,0.8937,0.8937,0.8937,0.8937,0.895,0.8944,0.9035,0.9201,0.9371,0.9476,0.8668,0.7399,0.587,0.4415,0.2951,0.1602,0.0,0.0,0.0,0.0,0.0,0.0,0.0,0.0,0.0,0.0,0.0,0.0,0.0,0.0,0.0,0.0,0.0,0.0,0.0,0.0,0.0,0.0,0.0,0.0,0.0,0.0,0.0,0.0,0.0,0.0,-0.1356,-0.234,-0.2831,-0.3566,-0.4424,-0.5404,-0.6018,-0.6263,-0.5651,-0.5284,-0.5161,-0.431,2.3144,2.3144,2.3144,2.3144,2.3144,2.3144,2.3144,2.3144,2.3144,2.3144,2.3144,2.3144,2.3144,2.3144,2.3144,2.3144,2.3144,2.3144,2.3144,2.3144,2.3144,2.3144,2.3144,2.3047,2.2129,2.1391,2.0567,1.9753,1.8218,1.749,1.7131,1.7044,1.6619,1.5979,1.5999,1.6253,1.638,1.64,1.6727,1.7061,1.7201,1.7455,1.7589,1.7575,1.7569,1.7582,1.7364,1.6493,1.6605,1.6174,1.4234,1.2512,1.0785,1.0566,0.9915,0.9154,0.8937,0.8937,0.8937,0.8937,0.8937,0.8937,0.894,0.8957,0.9039,0.9181,0.8749,0.7603,0.6386,0.4858,0.3302,0.1841,0.0,0.0,0.0,0.0,0.0,0.0,0.0,0.0,0.0,0.0,0.0,0.0,0.0,0.0,0.0,0.0,0.0,0.0,0.0,0.0,0.0,0.0,0.0,0.0,0.0,0.0,0.0,0.0,-0.1848,-0.2217,-0.2585,-0.3445,-0.4303,-0.4669,-0.5158,-0.6259,-0.7116,-0.7609,-0.7856,-0.7487,-0.7856,-0.7856,-0.6632,2.3144,2.3144,2.3144,2.3144,2.3144,2.3144,2.3144,2.3144,2.3144,2.3144,2.3144,2.3144,2.3144,2.3144,2.3144,2.3144,2.3144,2.3144,2.3144,2.3144,2.3144,2.3144,2.3144,2.3047,2.2217,2.148,2.0657,1.9761,1.9047,1.8141,1.7505,1.6943,1.6103,1.5832,1.5852,1.6005,1.6092,1.6092,1.638,1.66,1.6834,1.7128,1.7368,1.7395,1.7488,1.7535,1.7371,1.6711,1.6499,1.6174,1.4341,1.2729,1.1433,1.1,1.0241,0.9372,0.8937,0.8937,0.8937,0.8937,0.8937,0.8937,0.8937,0.895,0.8725,0.8742,0.7891,0.6867,0.5791,0.4414,0.2882,0.1327,0.0,0.0,0.0,0.0,0.0,0.0,0.0,0.0,0.0,0.0,0.0,0.0,0.0,0.0,0.0,0.0,0.0,0.0,0.0,0.0,0.0,0.0,0.0,0.0,0.0,0.0,-0.2463,-0.3199,-0.369,-0.4304,-0.4795,-0.5284,-0.5649,-0.6259,-0.6991,-0.7728,-0.8465,-0.8836,-0.9207,-0.9451,-0.9819,-0.9819,-0.8593,2.3144,2.3144,2.3144,2.3144,2.3144,2.3144,2.3144,2.3144,2.3144,2.3144,2.3144,2.3144,2.3144,2.3144,2.3144,2.3144,2.3144,2.3144,2.3144,2.3144,2.3144,2.3144,2.3144,2.3047,2.2403,2.1578,2.0666,1.9761,1.8864,1.8048,1.7225,1.6197,1.592,1.5825,1.5825,1.5832,1.5872,1.5939,1.6092,1.6192,1.646,1.6767,1.7001,1.7188,1.7315,1.7468,1.7502,1.7305,1.6654,1.5849,1.4663,1.3156,1.1973,1.1324,1.0135,0.9375,0.8937,0.8937,0.8937,0.8937,0.8937,0.8937,0.8937,0.8826,0.8605,0.785,0.7118,0.6043,0.4982,0.3635,0.2125,0.0,0.0,0.0,0.0,0.0,0.0,0.0,0.0,0.0,0.0,0.0,0.0,0.0,0.0,0.0,0.0,0.0,0.0,0.0,0.0,0.0,0.0,0.0,-0.0617,-0.1602,-0.2831,-0.3322,-0.4057,-0.4794,-0.5651,-0.6388,-0.6754,-0.6388,-0.6874,-0.7606,-0.8099,-0.8714,-0.9451,-0.9819,-0.9819,-0.9819,-0.9819,-0.9819,-0.9819,2.3144,2.3144,2.3144,2.3144,2.3144,2.3144,2.3144,2.3144,2.3135,2.3144,2.3135,2.3135,2.3144,2.3144,2.3144,2.3144,2.3144,2.3144,2.3144,2.3144,2.3144,2.3144,2.3144,2.3057,2.296,2.2315,2.148,2.0845,1.9761,1.8503,1.7692,1.7311,1.6109,1.592,1.5825,1.5825,1.5832,1.5872,1.5872,1.5965,1.6099,1.64,1.6714,1.682,1.6834,1.7027,1.7154,1.7331,1.7264,1.6746,1.5725,1.4319,1.294,1.1755,1.0566,0.9375,0.8937,0.8937,0.8937,0.8937,0.8937,0.8937,0.8937,0.8937,0.8377,0.7374,0.64,0.495,0.3768,0.2201,0.0,0.0,0.0,0.0,0.0,0.0,0.0,0.0,0.0,0.0,0.0,0.0,0.0,0.0,0.0,0.0,0.0,0.0,0.0,0.0,-0.1725,-0.2217,-0.2708,-0.2708,-0.2462,-0.3444,-0.4547,-0.5037,-0.5649,-0.663,-0.7734,-0.8717,-0.8839,-0.8102,-0.8346,-0.9083,-0.9454,-0.9451,-0.9576,-0.9819,-0.9819,-0.9819,-0.9819,-0.9819,-0.9819]},{"header":{"parameterUnit":"m.s-1","parameterCategory":1,"la1":31.0,"la2":29.5877,"lo1":-88.7671,"lo2":-86.6584,"dy":0.0162,"dx":0.0185,"nx":115,"ny":88,"refTime":"2024-09-13T12:00:00:Z","depth":0,"parameterNumber":3,"parameterNumberName":"V-component_of_WINDS"},"data":[0.0,0.0,0.0,0.0,0.0,0.0,0.0,0.0,0.0,0.0,0.0,0.0,0.0,0.0,0.0,0.0,0.0,0.0,0.0,0.0,0.0,0.0,0.0,0.0,0.0,0.0,0.0,0.0,0.0,0.0,0.0,0.0,0.0,0.0,0.0,0.0,0.0,0.0,0.0,0.0,0.0,0.0,0.0,0.0,0.0,0.0,0.0,0.0,0.0,0.0,0.0,0.0,0.0,0.0,0.0,0.0,0.0,0.0,0.0,0.0,0.0,0.0,0.0,0.0,0.0,0.0,0.0,0.0,0.0,0.0,0.0,0.0,0.0,0.0,0.0,0.0,0.0,0.0,0.0,0.0,0.0,0.0,0.0,0.0,0.0,0.0,0.0,0.0,0.0,0.0,0.0,0.0,0.0,0.0,0.0,0.0,0.0,0.0,0.0,0.0,0.0,0.0,0.0,0.0,0.0,0.0,0.0,0.0,0.0,0.0,0.0,0.0,0.0,0.0,0.0,0.0,0.0,0.0,0.0,0.0,0.0,0.0,0.0,0.0,0.0,0.0,0.0,0.0,0.0,0.0,0.0,0.0,0.0,0.0,0.0,0.0,0.0,0.0,0.0,0.0,0.0,0.0,0.0,0.0,0.0,0.0,0.0,0.0,0.0,0.0,0.0,0.0,0.0,0.0,0.0,0.0,0.0,0.0,0.0,0.0,0.0,0.0,0.0,0.0,0.0,0.0,0.0,0.0,0.0,0.0,0.0,0.0,0.0,0.0,0.0,0.0,0.0,0.0,0.0,0.0,0.0,0.0,0.0,0.0,0.0,0.0,0.0,0.0,0.0,0.0,0.0,0.0,0.0,0.0,0.0,0.0,0.0,0.0,0.0,0.0,0.0,0.0,0.0,0.0,0.0,0.0,0.0,0.0,0.0,0.0,0.0,0.0,0.0,0.0,0.0,0.0,0.0,0.0,0.0,0.0,0.0,0.0,0.0,0.0,0.0,0.0,0.0,0.0,0.0,0.0,0.0,0.0,0.0,0.0,0.0,0.0,0.0,0.0,0.0,0.0,0.0,0.0,0.0,0.0,0.0,0.0,0.0,0.0,0.0,0.0,0.0,0.0,0.0,0.0,0.0,0.0,0.0,0.0,0.0,0.0,0.0,0.0,0.0,0.0,0.0,0.0,0.0,0.0,0.0,0.0,0.0,0.0,0.0,0.0,0.0,0.0,0.0,0.0,0.0,0.0,0.0,0.0,0.0,0.0,0.0,0.0,0.0,0.0,0.0,0.0,0.0,0.0,0.0,0.0,0.0,0.0,0.0,0.0,0.0,0.0,0.0,0.0,0.0,0.0,0.0,0.0,0.0,0.0,0.0,0.0,0.0,0.0,0.0,0.0,0.0,0.0,0.0,0.0,0.0,0.0,0.0,0.0,0.0,0.0,0.0,0.0,0.0,0.0,0.0,0.0,0.0,0.0,0.0,0.0,0.0,0.0,0.0,0.0,0.0,0.0,0.0,0.0,0.0,0.0,0.0,0.0,0.0,0.0,0.0,0.0,0.0,0.0,0.0,0.0,0.0,0.0,0.0,0.0,0.0,0.0,0.0,0.0,0.0,0.0,0.0,0.0,0.0,0.0,0.0,0.0,0.0,0.0,0.0,0.0,0.0,0.0,0.0,0.0,0.0,0.0,0.0,0.0,0.0,0.0,0.0,0.0,0.0,0.0,0.0,0.0,0.0,0.0,0.0,0.0,0.0,0.0,0.0,0.0,0.0,0.0,0.0,0.0,0.0,0.0,0.0,0.0,0.0,0.0,0.0,0.0,0.0,0.0,0.0,0.0,0.0,0.0,0.0,0.0,0.0,0.0,0.0,0.0,0.0,0.0,0.0,0.0,0.0,0.0,0.0,0.0,0.0,0.0,0.0,0.0,0.0,0.0,0.0,0.0,0.0,0.0,0.0,0.0,0.0,0.0,0.0,0.0,0.0,0.0,0.0,0.0,0.0,0.0,0.0,0.0,0.0,0.0,0.0,0.0,0.0,0.0,0.0,0.0,0.0,0.0,0.0,0.0,0.0,0.0,0.0,0.0,0.0,0.0,0.0,0.0,0.0,0.0,0.0,0.0,0.0,0.0,0.0,0.0,0.0,0.0,0.0,0.0,0.0,0.0,0.0,0.0,0.0,0.0,0.0,0.0,0.0,0.0,0.0,0.0,0.0,0.0,0.0,0.0,0.0,0.0,0.0,0.0,0.0,0.0,0.0,0.0,0.0,0.0,0.0,0.0,0.0,0.0,0.0,0.0,0.0,0.0,0.0,0.0,0.0,0.0,0.0,0.0,0.0,0.0,0.0,0.0,0.0,0.0,0.0,0.0,0.0,0.0,0.0,0.0,0.0,0.0,0.0,0.0,0.0,0.0,0.0,0.0,0.0,0.0,0.0,0.0,0.0,0.0,0.0,0.0,0.0,0.0,0.0,0.0,0.0,0.0,0.0,0.0,0.0,0.0,0.0,0.0,0.0,0.0,0.0,0.0,0.0,0.0,0.0,0.0,0.0,0.0,0.0,0.0,0.0,0.0,0.0,0.0,0.0,0.0,0.0,0.0,0.0,0.0,0.0,0.0,0.0,0.0,0.0,0.0,0.0,0.0,0.0,0.0,0.0,0.0,0.0,0.0,0.0,0.0,0.0,0.0,0.0,0.0,0.0,0.0,0.0,0.0,0.0,0.0,0.0,0.0,0.0,0.0,0.0,0.0,0.0,0.0,0.0,0.0,0.0,0.0,0.0,0.0,0.0,0.0,0.0,0.0,0.0,0.0,0.0,0.0,0.0,0.0,0.0,0.0,0.0,0.0,0.0,0.0,0.0,0.0,0.0,0.0,0.0,0.0,0.0,0.0,0.0,0.0,0.0,0.0,0.0,0.0,0.0,0.0,0.0,0.0,0.0,0.0,0.0,0.0,0.0,0.0,0.0,0.0,0.0,0.0,0.0,0.0,0.0,0.0,0.0,0.0,0.0,0.0,0.0,0.0,0.0,0.0,0.0,0.0,0.0,0.0,0.0,0.0,0.0,0.0,0.0,0.0,0.0,0.0,0.0,0.0,0.0,0.0,0.0,0.0,0.0,0.0,0.0,0.0,0.0,0.0,0.0,0.0,0.0,0.0,0.0,0.0,0.0,0.0,0.0,0.0,0.0,0.0,0.0,0.0,0.0,0.0,0.0,0.0,0.0,0.0,0.0,0.0,0.0,0.0,0.0,0.0,0.0,0.0,0.0,0.0,0.0,0.0,0.0,0.0,0.0,0.0,0.0,0.0,0.0,0.0,0.0,0.0,0.0,0.0,0.0,0.0,0.0,0.0,0.0,0.0,0.0,0.0,0.0,0.0,0.0,0.0,0.0,0.0,0.0,0.0,0.0,0.0,0.0,0.0,0.0,0.0,0.0,0.0,0.0,0.0,0.0,0.0,0.0,0.0,0.0,0.0,0.0,0.0,0.0,0.0,0.0,0.0,0.0,0.0,0.0,0.0,0.0,0.0,0.0,0.0,0.0,0.0,0.0,0.0,0.0,0.0,0.0,0.0,0.0,0.0,0.0,0.0,0.0,0.0,0.0,0.0,0.0,0.0,0.0,0.0,0.0,0.0,0.0,0.0,0.0,0.0,0.0,0.0,0.0,0.0,0.0,0.0,0.0,0.0,0.0,0.0,0.0,0.0,0.0,0.0,0.0,0.0,0.0,0.0,0.0,0.0,0.0,0.0,0.0,0.0,0.0,0.0,0.0,0.0,0.0,0.0,0.0,0.0,0.0,0.0,0.0,0.0,0.0,0.0,0.0,0.0,0.0,0.0,0.0,0.0,0.0,0.0,0.0,0.0,0.0,0.0,0.0,0.0,0.0,0.0,0.0,0.0,0.0,0.0,0.0,0.0,0.0,0.0,0.0,0.0,0.0,0.0,0.0,0.0,0.0,0.0,0.0,0.0,0.0,0.0,0.0,0.0,0.0,0.0,0.0,0.0,0.0,0.0,0.0,0.0,0.0,0.0,0.0,0.0,0.0,0.0,0.0,0.0,0.0,0.0,0.0,0.0,0.0,0.0,0.0,0.0,0.0,0.0,0.0,0.0,0.0,0.0,0.0,0.0,0.0,0.0,0.0,0.0,0.0,0.0,0.0,0.0,0.0,0.0,0.0,0.0,0.0,0.0,0.0,0.0,0.0,0.0,0.0,0.0,0.0,0.0,0.0,0.0,0.0,0.0,0.0,0.0,0.0,0.0,0.0,0.0,0.0,0.0,1.7789,0.0,0.0,0.0,0.0,0.0,0.0,0.0,0.0,0.0,0.0,0.0,0.0,0.0,0.0,0.0,0.0,0.0,0.0,0.0,0.0,0.0,0.0,0.0,0.0,0.0,0.0,0.0,0.0,0.0,0.0,0.0,0.0,0.0,0.0,0.0,0.0,0.0,0.0,0.0,0.0,0.0,0.0,0.0,0.0,0.0,0.0,0.0,0.0,0.0,0.0,0.0,0.0,0.0,0.0,0.0,0.0,0.0,0.0,0.0,0.0,0.0,0.0,0.0,0.0,0.0,0.0,0.0,0.0,0.0,0.0,0.0,0.0,0.0,0.0,0.0,0.0,0.0,0.0,0.0,0.0,0.0,0.0,0.0,0.0,0.0,0.0,0.0,0.0,0.0,0.0,0.0,0.0,0.0,0.0,0.0,0.0,0.0,0.0,0.0,0.0,0.0,0.0,0.0,0.0,0.0,0.0,0.0,0.0,0.0,0.0,1.7789,1.7789,1.7789,1.7789,1.7805,0.0,0.0,0.0,0.0,0.0,0.0,0.0,0.0,0.0,0.0,0.0,0.0,0.0,0.0,0.0,0.0,0.0,0.0,0.0,0.0,0.0,0.0,0.0,0.0,0.0,0.0,0.0,0.0,0.0,0.0,0.0,0.0,0.0,0.0,0.0,0.0,0.0,0.0,0.0,0.0,0.0,0.0,0.0,0.0,0.0,0.0,0.0,0.0,0.0,0.0,0.0,0.0,0.0,0.0,0.0,0.0,0.0,0.0,0.0,0.0,0.0,0.0,0.0,0.0,0.0,0.0,0.0,0.0,0.0,0.0,0.0,0.0,0.0,0.0,0.0,0.0,0.0,0.0,0.0,0.0,0.0,0.0,0.0,0.0,0.0,0.0,0.0,0.0,0.0,0.0,0.0,0.0,0.0,0.0,0.0,0.0,0.0,0.0,0.0,0.0,0.0,0.0,0.0,0.0,0.0,0.0,0.0,0.0,0.0,0.0,0.0,0.0,1.8413,1.8485,1.8606,0.0,0.0,0.0,0.0,0.0,0.0,0.0,0.0,0.0,0.0,0.0,0.0,0.0,0.0,0.0,0.0,0.0,0.0,0.0,0.0,0.0,0.0,0.0,0.0,0.0,0.0,0.0,0.0,0.0,0.0,0.0,0.0,0.0,0.0,0.0,0.0,0.0,0.0,0.0,0.0,0.0,0.0,0.0,0.0,0.0,0.0,0.0,0.0,0.0,0.0,0.0,0.0,0.0,0.0,0.0,0.0,0.0,0.0,0.0,0.0,0.0,0.0,0.0,0.0,0.0,0.0,0.0,0.0,0.0,0.0,0.0,0.0,0.0,0.0,0.0,0.0,0.0,0.0,0.0,0.0,0.0,0.0,0.0,0.0,0.0,0.0,0.0,0.0,0.0,0.0,0.0,0.0,0.0,0.0,0.0,0.0,0.0,0.0,0.0,0.0,0.0,0.0,0.0,0.0,0.0,0.0,0.0,0.0,0.0,0.0,1.7914,1.9996,2.0245,0.0,2.0923,0.0,0.0,0.0,0.0,0.0,0.0,0.0,0.0,0.0,0.0,0.0,0.0,0.0,0.0,0.0,0.0,0.0,0.0,0.0,0.0,0.0,0.0,0.0,0.0,0.0,0.0,0.0,0.0,0.0,0.0,0.0,0.0,0.0,0.0,0.0,0.0,0.0,0.0,0.0,0.0,0.0,0.0,0.0,0.0,0.0,0.0,0.0,0.0,0.0,0.0,0.0,0.0,0.0,0.0,0.0,0.0,0.0,0.0,0.0,0.0,0.0,0.0,0.0,0.0,0.0,0.0,0.0,0.0,0.0,0.0,0.0,0.0,0.0,0.0,0.0,0.0,0.0,0.0,0.0,0.0,0.0,0.0,0.0,0.0,0.0,0.0,0.0,0.0,0.0,0.0,0.0,0.0,0.0,0.0,0.0,0.0,0.0,0.0,0.0,0.0,0.0,0.0,0.0,0.0,0.0,0.0,0.0,0.0,0.0,0.0,1.9874,2.08,2.0927,2.1026,0.0,0.0,0.0,0.0,0.0,0.0,0.0,0.0,0.0,0.0,0.0,0.0,0.0,0.0,0.0,0.0,0.0,0.0,0.0,0.0,0.0,0.0,0.0,0.0,0.0,0.0,0.0,0.0,0.0,0.0,0.0,0.0,0.0,0.0,0.0,0.0,0.0,0.0,0.0,0.0,0.0,0.0,0.0,0.0,0.0,0.0,0.0,0.0,0.0,0.0,0.0,0.0,0.0,0.0,0.0,0.0,0.0,0.0,0.0,0.0,0.0,0.0,0.0,0.0,0.0,0.0,0.0,0.0,0.0,0.0,0.0,0.0,0.0,0.0,0.0,0.0,0.0,0.0,0.0,0.0,0.0,0.0,0.0,0.0,0.0,0.0,0.0,0.0,0.0,0.0,0.0,0.0,0.0,0.0,0.0,0.0,0.0,0.0,0.0,0.0,0.0,0.0,0.0,0.0,0.0,0.0,0.0,0.0,0.0,0.0,2.0327,0.0,2.1928,2.2062,2.1718,2.0889,0.0,0.0,0.0,0.0,0.0,0.0,0.0,0.0,0.0,0.0,0.0,0.0,0.0,0.0,0.0,0.0,0.0,0.0,0.0,0.0,0.0,0.0,0.0,0.0,0.0,0.0,0.0,0.0,0.0,0.0,0.0,0.0,0.0,0.0,0.0,0.0,0.0,0.0,0.0,0.0,0.0,0.0,0.0,0.0,0.0,0.0,0.0,0.0,0.0,0.0,0.0,0.0,0.0,0.0,0.0,0.0,0.0,0.0,0.0,0.0,0.0,0.0,0.0,0.0,0.0,0.0,0.0,0.0,0.0,0.0,0.0,0.0,0.0,0.0,0.0,0.0,0.0,0.0,0.0,0.0,0.0,0.0,0.0,0.0,0.0,0.0,0.0,0.0,0.0,0.0,0.0,0.0,0.0,0.0,0.0,0.0,0.0,0.0,0.0,0.0,0.0,0.0,0.0,0.0,0.0,0.0,0.0,0.0,0.0,2.1068,2.1364,2.38,2.4183,2.2987,0.0,0.0,0.0,0.0,0.0,0.0,0.0,0.0,0.0,0.0,0.0,0.0,0.0,0.0,0.0,0.0,0.0,0.0,0.0,0.0,0.0,0.0,0.0,0.0,0.0,0.0,0.0,0.0,0.0,0.0,0.0,0.0,0.0,0.0,0.0,0.0,0.0,0.0,0.0,0.0,0.0,0.0,0.0,0.0,0.0,0.0,0.0,0.0,0.0,0.0,0.0,0.0,0.0,0.0,0.0,0.0,0.0,0.0,0.0,0.0,0.0,0.0,0.0,0.0,0.0,0.0,0.0,0.0,0.0,0.0,0.0,0.0,0.0,0.0,0.0,0.0,0.0,0.0,0.0,0.0,0.0,0.0,0.0,0.0,0.0,0.0,0.0,0.0,0.0,0.0,0.0,0.0,0.0,0.0,0.0,0.0,0.0,0.0,0.0,0.0,0.0,0.0,0.0,0.0,0.0,0.0,0.0,0.0,0.0,1.9623,2.0395,2.2592,2.6152,2.3334,2.1786,0.0,0.0,0.0,0.0,0.0,0.0,0.0,0.0,0.0,0.0,0.0,0.0,0.0,0.0,0.0,0.0,0.0,0.0,0.0,0.0,0.0,0.0,0.0,0.0,0.0,0.0,0.0,0.0,0.0,0.0,0.0,0.0,0.0,0.0,0.0,0.0,0.0,0.0,0.0,0.0,0.0,0.0,0.0,0.0,0.0,0.0,0.0,0.0,0.0,0.0,0.0,0.0,0.0,0.0,0.0,0.0,0.0,0.0,0.0,0.0,0.0,0.0,0.0,0.0,0.0,0.0,0.0,0.0,0.0,0.0,0.0,0.0,0.0,0.0,0.0,0.0,0.0,0.0,0.0,0.0,0.0,0.0,0.0,0.0,0.0,0.0,0.0,0.0,0.0,0.0,0.0,0.0,0.0,0.0,0.0,0.0,0.0,0.0,0.0,0.0,0.0,0.0,0.0,0.0,0.0,0.0,0.0,0.0,0.0,1.9959,0.0,2.4441,0.0,2.3325,2.1295,0.0,0.0,0.0,0.0,0.0,0.0,0.0,0.0,0.0,0.0,0.0,0.0,0.0,0.0,0.0,0.0,0.0,0.0,0.0,0.0,0.0,0.0,0.0,0.0,0.0,0.0,0.0,0.0,0.0,0.0,0.0,0.0,0.0,0.0,0.0,0.0,0.0,0.0,0.0,0.0,0.0,0.0,0.0,0.0,0.0,0.0,0.0,0.0,0.0,0.0,0.0,0.0,0.0,0.0,0.0,0.0,0.0,0.0,0.0,0.0,0.0,0.0,0.0,0.0,0.0,0.0,0.0,0.0,0.0,0.0,0.0,0.0,0.0,0.0,0.0,0.0,0.0,0.0,0.0,0.0,0.0,0.0,0.0,0.0,0.0,0.0,0.0,0.0,0.0,0.0,0.0,0.0,0.0,0.0,0.0,0.0,0.0,0.0,0.0,0.0,0.0,0.0,0.0,0.0,0.0,0.0,0.0,0.0,1.9993,2.4218,2.6387,2.6522,2.4675,2.4323,2.1644,0.0,0.0,0.0,0.0,0.0,0.0,0.0,0.0,0.0,0.0,0.0,0.0,0.0,0.0,0.0,0.0,0.0,0.0,0.0,0.0,0.0,0.0,0.0,0.0,0.0,0.0,0.0,0.0,0.0,0.0,0.0,0.0,0.0,0.0,0.0,0.0,0.0,0.0,0.0,0.0,0.0,0.0,0.0,0.0,0.0,0.0,0.0,0.0,0.0,0.0,0.0,0.0,0.0,0.0,0.0,0.0,0.0,0.0,0.0,0.0,0.0,0.0,0.0,0.0,0.0,0.0,0.0,0.0,0.0,0.0,0.0,0.0,0.0,0.0,0.0,0.0,0.0,0.0,0.0,0.0,0.0,0.0,0.0,0.0,0.0,0.0,0.0,0.0,0.0,0.0,0.0,0.0,0.0,0.0,0.0,0.0,0.0,0.0,0.0,0.0,0.0,0.0,0.0,0.0,0.0,0.0,0.0,0.0,0.0,2.1465,2.3596,2.5423,2.6573,2.2767,2.0974,0.0,0.0,0.0,0.0,0.0,0.0,0.0,0.0,0.0,0.0,0.0,0.0,0.0,0.0,0.0,0.0,0.0,0.0,0.0,0.0,0.0,0.0,0.0,0.0,0.0,0.0,0.0,0.0,0.0,0.0,0.0,0.0,0.0,0.0,0.0,0.0,0.0,0.0,0.0,0.0,0.0,0.0,0.0,0.0,0.0,0.0,0.0,0.0,0.0,0.0,0.0,0.0,0.0,0.0,0.0,0.0,0.0,0.0,0.0,0.0,0.0,0.0,0.0,0.0,0.0,0.0,0.0,0.0,0.0,0.0,0.0,0.0,0.0,0.0,0.0,0.0,0.0,0.0,0.0,0.0,0.0,0.0,0.0,0.0,0.0,0.0,0.0,0.0,0.0,0.0,0.0,0.0,0.0,0.0,0.0,0.0,0.0,0.0,0.0,0.0,0.0,0.0,0.0,0.0,0.0,0.0,0.0,0.0,0.0,2.3059,2.5389,2.7046,2.7807,2.39,2.1955,2.2321,0.0,0.0,0.0,0.0,0.0,0.0,0.0,0.0,0.0,0.0,0.0,0.0,0.0,0.0,0.0,0.0,0.0,0.0,0.0,0.0,0.0,0.0,0.0,0.0,0.0,0.0,0.0,0.0,0.0,0.0,0.0,0.0,0.0,0.0,0.0,0.0,0.0,0.0,0.0,0.0,0.0,0.0,0.0,0.0,0.0,0.0,0.0,0.0,0.0,0.0,0.0,0.0,0.0,0.0,0.0,0.0,0.0,0.0,0.0,0.0,0.0,0.0,0.0,0.0,0.0,0.0,0.0,0.0,0.0,0.0,0.0,0.0,0.0,0.0,0.0,0.0,0.0,0.0,0.0,0.0,0.0,0.0,0.0,0.0,0.0,0.0,0.0,0.0,0.0,0.0,0.0,0.0,0.0,0.0,0.0,0.0,0.0,0.0,0.0,0.0,0.0,0.0,0.0,0.0,0.0,0.0,0.0,0.0,2.7908,3.0937,3.1123,2.8349,2.7199,2.4408,0.0,0.0,0.0,0.0,0.0,0.0,0.0,0.0,0.0,0.0,0.0,0.0,0.0,0.0,0.0,0.0,0.0,0.0,0.0,0.0,0.0,0.0,0.0,0.0,0.0,0.0,0.0,0.0,0.0,0.0,0.0,0.0,0.0,0.0,0.0,0.0,0.0,0.0,0.0,0.0,0.0,0.0,0.0,0.0,0.0,0.0,0.0,0.0,0.0,0.0,0.0,0.0,0.0,0.0,0.0,0.0,0.0,0.0,0.0,0.0,0.0,0.0,0.0,0.0,0.0,0.0,0.0,0.0,0.0,0.0,0.0,0.0,0.0,0.0,0.0,0.0,0.0,0.0,0.0,0.0,0.0,0.0,0.0,0.0,0.0,0.0,0.0,0.0,0.0,0.0,0.0,0.0,0.0,0.0,0.0,0.0,0.0,0.0,0.0,0.0,0.0,0.0,0.0,0.0,0.0,0.0,0.0,0.0,0.0,2.9583,3.3491,3.4692,3.2747,2.8822,2.6319,0.0,0.0,0.0,0.0,0.0,0.0,0.0,0.0,0.0,0.0,0.0,0.0,0.0,0.0,0.0,0.0,0.0,0.0,0.0,0.0,0.0,0.0,0.0,0.0,0.0,0.0,0.0,0.0,0.0,0.0,0.0,0.0,0.0,0.0,0.0,0.0,0.0,0.0,0.0,0.0,0.0,0.0,0.0,0.0,0.0,0.0,0.0,0.0,0.0,0.0,0.0,0.0,0.0,0.0,0.0,0.0,0.0,0.0,0.0,0.0,0.0,0.0,0.0,0.0,0.0,0.0,0.0,0.0,0.0,0.0,0.0,0.0,0.0,0.0,0.0,0.0,0.0,0.0,0.0,0.0,0.0,0.0,0.0,0.0,0.0,0.0,0.0,0.0,0.0,0.0,0.0,0.0,0.0,0.0,0.0,0.0,0.0,0.0,0.0,0.0,0.0,0.0,0.0,0.0,0.0,0.0,0.0,0.0,2.982,3.1935,3.5723,3.728,3.64,3.2222,2.8975,0.0,0.0,0.0,0.0,0.0,0.0,0.0,0.0,0.0,0.0,0.0,0.0,0.0,0.0,0.0,0.0,0.0,0.0,0.0,0.0,0.0,0.0,0.0,0.0,0.0,0.0,0.0,0.0,0.0,0.0,0.0,0.0,0.0,0.0,0.0,0.0,0.0,0.0,0.0,0.0,0.0,0.0,0.0,0.0,0.0,0.0,0.0,0.0,0.0,0.0,0.0,0.0,0.0,0.0,0.0,0.0,0.0,0.0,0.0,0.0,0.0,0.0,0.0,0.0,0.0,0.0,0.0,0.0,0.0,0.0,0.0,0.0,0.0,0.0,0.0,0.0,0.0,0.0,0.0,0.0,0.0,0.0,0.0,0.0,0.0,0.0,0.0,0.0,0.0,0.0,0.0,0.0,0.0,0.0,0.0,0.0,0.0,0.0,0.0,0.0,0.0,0.0,0.0,0.0,0.0,0.0,0.0,0.0,3.1681,3.4438,3.7516,3.9073,3.8903,3.6062,3.185,0.0,0.0,0.0,0.0,0.0,0.0,0.0,0.0,0.0,0.0,0.0,0.0,0.0,0.0,0.0,0.0,0.0,0.0,0.0,0.0,0.0,0.0,0.0,0.0,0.0,0.0,0.0,0.0,0.0,0.0,0.0,0.0,0.0,0.0,0.0,0.0,0.0,0.0,0.0,0.0,0.0,0.0,0.0,0.0,0.0,0.0,0.0,0.0,0.0,0.0,0.0,0.0,0.0,0.0,0.0,0.0,0.0,0.0,0.0,0.0,0.0,0.0,0.0,0.0,0.0,0.0,0.0,0.0,0.0,0.0,0.0,0.0,0.0,0.0,0.0,0.0,0.0,0.0,0.0,0.0,0.0,0.0,0.0,0.0,0.0,0.0,0.0,0.0,0.0,0.0,0.0,0.0,0.0,0.0,0.0,0.0,0.0,0.0,0.0,0.0,0.0,0.0,0.0,0.0,0.0,0.0,0.0,0.0,3.2696,3.4506,3.799,3.958,3.8988,3.6062,3.2831,0.0,0.0,0.0,0.0,0.0,0.0,0.0,0.0,0.0,0.0,0.0,0.0,0.0,0.0,0.0,0.0,0.0,0.0,0.0,0.0,0.0,0.0,0.0,0.0,0.0,0.0,0.0,0.0,0.0,0.0,0.0,0.0,0.0,0.0,0.0,0.0,0.0,0.0,0.0,0.0,0.0,0.0,0.0,0.0,0.0,0.0,0.0,0.0,2.5892,0.0,0.0,0.0,0.0,0.0,0.0,0.0,0.0,0.0,0.0,0.0,0.0,0.0,0.0,0.0,0.0,0.0,0.0,0.0,0.0,0.0,0.0,0.0,0.0,0.0,0.0,0.0,0.0,0.0,0.0,0.0,0.0,0.0,0.0,0.0,0.0,0.0,0.0,0.0,0.0,0.0,0.0,0.0,0.0,0.0,0.0,0.0,0.0,0.0,0.0,0.0,0.0,0.0,0.0,0.0,0.0,0.0,0.0,0.0,3.388,3.6079,3.87,3.9884,3.9445,3.728,3.4218,0.0,0.0,0.0,0.0,0.0,0.0,0.0,0.0,0.0,0.0,0.0,0.0,0.0,0.0,0.0,0.0,0.0,0.0,0.0,0.0,0.0,0.0,0.0,0.0,0.0,0.0,0.0,0.0,0.0,0.0,0.0,0.0,0.0,0.0,0.0,0.0,0.0,0.0,0.0,0.0,0.0,0.0,0.0,0.0,0.0,0.0,0.0,0.0,0.0,0.0,0.0,0.0,0.0,0.0,0.0,0.0,0.0,0.0,0.0,0.0,0.0,0.0,0.0,0.0,0.0,0.0,0.0,0.0,0.0,0.0,0.0,0.0,0.0,0.0,0.0,0.0,0.0,0.0,0.0,0.0,0.0,0.0,0.0,0.0,0.0,0.0,0.0,0.0,0.0,0.0,0.0,0.0,0.0,0.0,0.0,0.0,0.0,0.0,0.0,0.0,0.0,0.0,0.0,0.0,0.0,0.0,0.0,3.163,3.481,3.7956,3.9377,4.0087,4.0054,3.8667,3.552,3.0497,0.0,0.0,0.0,0.0,0.0,0.0,0.0,0.0,0.0,0.0,0.0,0.0,0.0,0.0,0.0,0.0,0.0,0.0,0.0,0.0,0.0,0.0,0.0,0.0,0.0,0.0,0.0,0.0,0.0,0.0,0.0,0.0,0.0,0.0,0.0,0.0,0.0,0.0,2.3629,2.5917,0.0,0.0,0.0,0.0,0.0,0.0,0.0,0.0,2.7567,0.0,0.0,0.0,0.0,0.0,0.0,0.0,0.0,0.0,0.0,0.0,0.0,0.0,0.0,0.0,0.0,0.0,0.0,0.0,0.0,0.0,0.0,0.0,0.0,0.0,0.0,0.0,0.0,0.0,0.0,0.0,0.0,0.0,0.0,0.0,0.0,0.0,0.0,0.0,0.0,0.0,0.0,0.0,0.0,0.0,0.0,0.0,0.0,0.0,0.0,0.0,0.0,0.0,0.0,0.0,0.0,3.1427,3.2154,3.4523,3.87,3.9648,4.0087,4.0037,3.8667,3.574,3.1241,0.0,0.0,0.0,0.0,0.0,0.0,0.0,0.0,0.0,0.0,0.0,0.0,0.0,0.0,0.0,0.0,0.0,0.0,0.0,0.0,0.0,0.0,0.0,0.0,0.0,0.0,0.0,0.0,0.0,0.0,0.0,0.0,0.0,0.0,0.0,0.0,0.0,0.0,0.0,3.0497,3.1715,0.0,0.0,0.0,0.0,0.0,0.0,0.0,0.0,2.7677,0.0,0.0,0.0,0.0,0.0,0.0,0.0,0.0,0.0,0.0,0.0,0.0,0.0,0.0,0.0,0.0,0.0,0.0,0.0,0.0,0.0,0.0,0.0,0.0,0.0,0.0,0.0,0.0,0.0,0.0,0.0,0.0,0.0,0.0,0.0,0.0,0.0,0.0,0.0,0.0,0.0,0.0,0.0,0.0,0.0,0.0,0.0,0.0,0.0,0.0,0.0,0.0,0.0,0.0,0.0,3.0835,3.3034,3.5639,3.887,3.9698,3.9884,3.9478,3.733,3.4387,0.0,0.0,0.0,0.0,0.0,0.0,0.0,0.0,0.0,0.0,0.0,0.0,0.0,0.0,0.0,0.0,0.0,0.0,0.0,0.0,0.0,0.0,0.0,0.0,0.0,0.0,0.0,0.0,0.0,0.0,0.0,0.0,0.0,0.0,0.0,0.0,0.0,0.0,0.0,0.0,3.1861,3.3073,3.4339,0.0,0.0,0.0,0.0,0.0,0.0,3.0356,2.9329,0.0,0.0,0.0,0.0,0.0,0.0,0.0,0.0,0.0,0.0,0.0,0.0,0.0,0.0,0.0,0.0,0.0,0.0,0.0,0.0,0.0,0.0,0.0,0.0,0.0,0.0,0.0,0.0,0.0,0.0,0.0,0.0,0.0,0.0,0.0,0.0,0.0,0.0,0.0,0.0,0.0,0.0,0.0,0.0,0.0,0.0,0.0,0.0,0.0,0.0,0.0,0.0,0.0,0.0,0.0,2.9989,3.3457,3.6417,3.8886,3.9698,3.9732,3.8971,3.6366,3.344,0.0,0.0,0.0,0.0,0.0,0.0,0.0,0.0,0.0,0.0,0.0,0.0,0.0,0.0,0.0,0.0,0.0,0.0,0.0,0.0,0.0,0.0,0.0,0.0,0.0,0.0,0.0,0.0,0.0,0.0,0.0,0.0,0.0,0.0,0.0,0.0,0.0,0.0,0.0,0.0,0.0,3.4449,3.6046,3.4614,0.0,0.0,0.0,0.0,3.2999,3.2706,0.0,0.0,0.0,0.0,0.0,0.0,0.0,0.0,0.0,0.0,0.0,0.0,0.0,0.0,0.0,0.0,0.0,0.0,0.0,0.0,0.0,0.0,0.0,0.0,0.0,0.0,0.0,0.0,0.0,0.0,0.0,0.0,0.0,0.0,0.0,0.0,0.0,0.0,0.0,0.0,0.0,0.0,0.0,0.0,0.0,0.0,0.0,0.0,0.0,0.0,0.0,0.0,0.0,0.0,0.0,0.0,2.9905,3.2459,3.5402,3.8819,3.9698,3.9732,3.8988,3.7381,3.4489,0.0,0.0,0.0,0.0,0.0,0.0,0.0,0.0,0.0,0.0,0.0,0.0,0.0,0.0,0.0,0.0,0.0,0.0,0.0,0.0,0.0,0.0,0.0,0.0,0.0,0.0,0.0,0.0,0.0,0.0,0.0,0.0,0.0,0.0,0.0,0.0,0.0,0.0,0.0,0.0,0.0,3.7569,3.645,3.6046,3.6083,0.0,0.0,3.5624,3.8469,3.7129,0.0,0.0,0.0,0.0,0.0,0.0,0.0,0.0,0.0,0.0,0.0,0.0,0.0,0.0,0.0,0.0,0.0,0.0,0.0,0.0,0.0,0.0,0.0,0.0,0.0,0.0,0.0,0.0,0.0,0.0,0.0,0.0,0.0,0.0,0.0,0.0,0.0,0.0,0.0,0.0,0.0,0.0,0.0,0.0,0.0,0.0,0.0,0.0,0.0,0.0,0.0,0.0,0.0,0.0,0.0,2.4019,2.9364,3.2882,3.5876,3.8294,3.9495,3.9529,3.8396,3.6096,3.2966,0.0,0.0,0.0,0.0,0.0,0.0,0.0,0.0,0.0,0.0,0.0,0.0,0.0,0.0,0.0,0.0,0.0,0.0,0.0,0.0,0.0,0.0,0.0,0.0,0.0,0.0,0.0,0.0,0.0,0.0,0.0,0.0,0.0,0.0,0.0,0.0,0.0,0.0,0.0,0.0,0.0,0.0,3.8854,3.8634,0.0,0.0,0.0,3.8652,3.9148,0.0,0.0,0.0,0.0,0.0,0.0,0.0,0.0,0.0,0.0,0.0,0.0,0.0,0.0,0.0,0.0,0.0,0.0,0.0,0.0,0.0,0.0,0.0,0.0,0.0,0.0,0.0,0.0,0.0,0.0,0.0,0.0,0.0,0.0,0.0,0.0,0.0,0.0,0.0,0.0,0.0,0.0,0.0,0.0,0.0,0.0,0.0,0.0,0.0,0.0,0.0,0.0,0.0,0.0,0.0,0.0,0.0,2.9228,3.3643,3.6637,3.8142,3.9428,3.9377,3.7922,3.5334,0.0,0.0,0.0,0.0,0.0,0.0,0.0,0.0,0.0,0.0,0.0,0.0,0.0,0.0,0.0,0.0,0.0,0.0,0.0,0.0,0.0,0.0,0.0,0.0,0.0,0.0,0.0,1.4768,0.0,0.0,0.0,0.0,0.0,0.0,0.0,0.0,0.0,0.0,0.0,0.0,0.0,0.0,3.8138,4.0763,4.0928,4.0928,0.0,0.0,4.113,4.0341,4.0524,3.9074,0.0,0.0,0.0,0.0,0.0,0.0,0.0,0.0,0.0,0.0,0.0,0.0,0.0,0.0,0.0,0.0,0.0,0.0,0.0,0.0,0.0,0.0,0.0,0.0,0.0,0.0,0.0,0.0,0.0,0.0,0.0,0.0,0.0,0.0,0.0,0.0,0.0,0.0,0.0,0.0,0.0,0.0,0.0,0.0,0.0,0.0,0.0,0.0,0.0,0.0,0.0,0.0,0.0,0.0,0.0,3.0006,3.4438,3.7398,3.887,3.9681,3.9377,3.7939,3.6315,3.3389,0.0,0.0,0.0,0.0,0.0,0.0,0.0,0.0,0.0,0.0,0.0,0.0,0.0,0.0,0.0,0.0,0.0,0.0,0.0,0.0,0.0,0.0,0.0,0.0,0.0,0.0,0.0,0.0,0.0,0.0,0.0,0.0,0.0,0.0,0.0,0.0,0.0,0.0,0.0,0.0,0.0,4.001,4.0983,4.2341,4.3773,0.0,0.0,4.269,4.4085,4.3663,4.135,3.5742,0.0,0.0,0.0,0.0,0.0,0.0,0.0,0.0,0.0,0.0,0.0,0.0,0.0,0.0,0.0,0.0,0.0,0.0,0.0,0.0,0.0,0.0,0.0,0.0,0.0,0.0,0.0,0.0,0.0,0.0,0.0,0.0,0.0,0.0,0.0,0.0,0.0,0.0,0.0,0.0,0.0,0.0,0.0,0.0,0.0,0.0,0.0,0.0,0.0,0.0,0.0,0.0,0.0,2.5609,3.0074,3.4506,3.7499,3.8937,3.9698,3.9394,3.7939,3.6417,3.3305,0.0,0.0,0.0,0.0,0.0,0.0,0.0,0.0,0.0,0.0,0.0,0.0,0.0,0.0,0.0,0.0,0.0,0.0,0.0,0.0,0.0,0.0,0.0,0.0,0.0,0.0,0.0,0.0,1.9589,2.0188,2.1572,0.0,0.0,0.0,0.0,0.0,0.0,0.0,0.0,0.0,0.0,4.146,4.3736,4.458,0.0,0.0,4.5223,4.4947,4.4085,4.3277,4.135,3.7202,3.5697,0.0,0.0,0.0,0.0,0.0,0.0,0.0,0.0,0.0,0.0,0.0,0.0,0.0,0.0,0.0,0.0,0.0,0.0,0.0,0.0,0.0,0.0,0.0,0.0,0.0,0.0,0.0,0.0,0.0,0.0,0.0,0.0,0.0,0.0,0.0,0.0,0.0,0.0,0.0,0.0,0.0,0.0,0.0,0.0,0.0,0.0,0.0,0.0,0.0,0.0,0.0,0.0,2.6167,3.0395,3.4844,3.7838,3.9292,3.9614,3.9157,3.7939,3.6417,3.3474,0.0,0.0,0.0,0.0,0.0,0.0,0.0,0.0,0.0,0.0,0.0,0.0,0.0,0.0,0.0,0.0,0.0,0.0,0.0,0.0,0.0,0.0,0.0,0.0,0.0,0.0,0.0,0.0,2.0992,2.1299,2.1855,0.0,0.0,0.0,0.0,0.0,0.0,0.0,0.0,0.0,0.0,4.3094,4.5535,4.5902,4.5792,4.548,4.5755,4.559,4.4397,4.3652,4.211,3.8881,0.0,0.0,0.0,0.0,0.0,0.0,0.0,0.0,0.0,0.0,0.0,0.0,0.0,0.0,0.0,0.0,0.0,0.0,0.0,0.0,0.0,0.0,0.0,0.0,0.0,0.0,0.0,0.0,0.0,0.0,1.2729,0.0,0.0,0.0,0.0,0.0,0.0,0.0,0.0,0.0,0.0,0.0,0.0,0.0,0.0,0.0,0.0,0.0,0.0,0.0,0.0,0.0,0.0,2.7402,3.114,3.5588,3.8565,3.9969,3.9377,3.8684,3.7905,3.6417,3.4184,3.1106,0.0,0.0,0.0,0.0,0.0,0.0,0.0,0.0,0.0,0.0,0.0,0.0,0.0,0.0,0.0,0.0,0.0,0.0,0.0,0.0,0.0,0.0,0.0,0.0,0.0,0.0,2.1378,2.2105,2.1983,0.0,0.0,0.0,0.0,0.0,0.0,0.0,0.0,0.0,0.0,4.2616,4.4929,4.5792,4.5902,4.6214,4.6911,4.5185,4.4193,4.5607,4.5471,4.414,0.0,0.0,0.0,0.0,0.0,0.0,0.0,0.0,0.0,0.0,0.0,0.0,0.0,0.0,0.0,0.0,0.0,0.0,0.0,0.0,0.0,0.0,0.0,0.0,0.0,0.0,0.0,1.9595,1.8676,0.0,0.0,0.0,0.0,0.0,0.0,0.0,0.0,0.0,0.0,0.0,2.8298,2.9989,0.0,0.0,0.0,0.0,0.0,0.0,0.0,0.0,0.0,0.0,0.0,0.0,2.818,3.1901,3.5876,3.8616,4.0037,3.9851,3.914,3.7922,3.6924,3.4303,2.9854,0.0,0.0,0.0,0.0,0.0,0.0,0.0,0.0,0.0,0.0,0.0,0.0,0.0,0.0,0.0,0.0,0.0,0.0,0.0,0.0,0.0,0.0,0.0,0.0,0.0,2.0814,0.0,0.0,0.0,0.0,0.0,0.0,0.0,0.0,0.0,0.0,0.0,3.8744,4.1167,4.3809,4.5863,4.6953,4.7114,4.7289,0.0,0.0,0.0,0.0,0.0,0.0,0.0,0.0,0.0,0.0,0.0,0.0,0.0,0.0,4.8307,4.0196,3.7544,3.7017,3.8432,0.0,0.0,0.0,0.0,0.0,0.0,0.0,0.0,0.0,0.0,0.0,0.0,0.0,0.0,2.3816,0.0,2.2564,0.0,0.0,0.0,0.0,0.0,0.0,0.0,0.0,3.0226,3.2222,3.2493,3.3897,3.3829,0.0,3.1935,2.9262,0.0,0.0,0.0,0.0,0.0,0.0,0.0,0.0,2.9194,3.2662,3.6366,3.887,4.0003,3.9834,3.9123,3.7939,3.6654,3.415,3.0243,2.8467,2.6623,0.0,0.0,0.0,0.0,0.0,0.0,0.0,0.0,0.0,0.0,0.0,0.0,0.0,0.0,0.0,0.0,0.0,0.0,0.0,0.0,0.0,0.0,0.0,2.2094,0.0,0.0,0.0,0.0,0.0,0.0,0.0,0.0,0.0,3.4688,3.8212,4.1691,4.4303,4.5983,4.7286,4.8215,0.0,0.0,0.0,0.0,0.0,0.0,0.0,4.7511,4.7783,4.8224,4.8677,4.9093,5.1954,5.4066,5.3679,0.0,0.0,4.6461,4.3914,4.3365,4.4749,4.5965,4.7006,4.7805,4.9567,5.0841,0.0,0.0,0.0,0.0,0.0,0.0,0.0,0.0,2.7807,2.7689,0.0,2.6928,0.0,0.0,0.0,0.0,0.0,2.7046,0.0,0.0,3.5673,3.7483,3.6823,3.6857,3.6857,3.6857,3.6772,3.5571,3.3119,2.6945,0.0,0.0,0.0,0.0,0.0,0.0,3.0565,3.3558,3.7127,3.9343,4.0037,3.9411,3.8684,3.7905,3.5774,3.3914,3.2408,3.163,2.9905,2.6945,2.4712,0.0,0.0,0.0,0.0,0.0,0.0,0.0,0.0,0.0,0.0,0.0,0.0,0.0,0.0,0.0,0.0,0.0,0.0,0.0,0.0,2.2491,0.0,0.0,0.0,0.0,0.0,0.0,0.0,0.0,0.0,0.0,3.9301,4.1158,4.4103,4.8371,0.0,0.0,0.0,0.0,4.9665,4.9731,4.9721,5.0005,5.0771,5.187,5.2403,5.1672,0.0,0.0,5.3279,5.4591,5.558,5.4451,5.5336,5.6117,5.6758,5.4549,5.3356,5.4103,5.337,5.3148,5.3894,5.4833,5.5739,3.2646,0.0,0.0,0.0,0.0,3.0835,3.1901,3.3863,3.3525,3.2949,3.2222,3.1698,0.0,0.0,0.0,0.0,0.0,0.0,3.2138,3.3643,3.6011,3.755,3.8379,3.8886,3.887,3.8379,3.8362,3.7483,3.5757,3.3339,2.9364,2.409,0.0,0.0,0.0,0.0,3.3355,3.5774,3.7922,3.9343,4.007,3.9868,3.9174,3.7939,3.6755,3.5419,3.3914,3.366,3.2425,2.9989,2.7757,0.0,0.0,0.0,0.0,0.0,0.0,0.0,0.0,0.0,0.0,0.0,0.0,0.0,0.0,0.0,0.0,0.0,0.0,0.0,2.3087,2.427,2.5415,0.0,0.0,0.0,0.0,0.0,0.0,0.0,0.0,0.0,4.6224,4.7049,4.798,0.0,0.0,5.0174,4.9962,5.0495,5.1179,5.2039,5.2162,0.0,0.0,5.3226,5.3596,5.5154,5.7082,5.8393,5.8481,5.8946,5.9238,5.8865,5.91,5.9446,5.9473,5.718,5.5514,5.6089,5.6467,5.696,5.7747,5.8677,5.93,3.7862,3.5052,3.3592,3.3643,3.4675,3.4269,3.5267,3.7195,3.6721,3.6434,3.6248,3.5825,3.4387,3.2222,3.0886,0.0,0.0,0.0,3.4861,3.6332,3.7533,3.8565,3.9428,3.9868,3.9851,3.9445,3.9428,3.8971,3.8122,3.7313,3.4472,2.9719,0.0,0.0,2.9448,3.2628,3.525,3.7195,3.8667,3.9648,4.007,3.98,3.9089,3.7956,3.7178,3.6197,3.4996,3.4945,3.4184,3.2544,3.0362,2.7943,0.0,0.0,0.0,0.0,0.0,0.0,0.0,0.0,0.0,0.0,0.0,1.8629,1.5852,0.0,0.0,0.0,2.1736,2.4189,2.6471,2.8208,0.0,0.0,0.0,0.0,0.0,0.0,0.0,4.3668,4.6,4.8275,5.0691,5.132,5.1478,5.1326,5.1432,5.1604,5.1829,0.0,5.2897,5.3605,5.428,5.4876,5.5415,5.5607,5.6357,5.8184,5.9319,6.0146,6.0666,6.08,6.08,6.08,6.08,6.08,6.08,5.9069,5.7838,5.8396,5.8915,5.9435,5.9935,6.0435,6.08,4.2303,4.1931,3.7855,3.6535,3.711,3.7077,3.7449,3.8075,3.8075,3.8464,3.9056,3.9073,3.7939,3.5876,3.3829,0.0,3.4996,3.6417,3.7753,3.9106,3.9766,4.0087,4.0087,4.007,4.0087,4.007,4.0087,4.0087,4.002,3.9394,3.8024,3.5977,3.3914,3.3136,3.3643,3.5098,3.6603,3.8075,3.9394,4.007,4.007,3.9428,3.87,3.7922,3.7229,3.6451,3.5571,3.552,3.5182,3.4387,3.2357,3.0209,2.8044,0.0,0.0,0.0,0.0,0.0,0.0,0.0,0.0,0.0,0.0,0.0,0.0,0.0,0.0,0.0,2.6079,0.0,3.0406,3.3303,0.0,0.0,0.0,3.7991,3.9788,4.2397,4.5076,4.778,0.0,0.0,5.3278,5.4107,5.4444,5.4085,5.3353,5.324,5.4336,5.4491,5.4587,5.4568,5.5934,5.6973,5.703,5.83,5.9569,6.0396,6.08,6.0762,6.08,6.08,6.08,6.08,6.08,6.08,6.08,6.0646,6.0781,6.0646,6.0704,6.0742,6.0742,6.0762,6.08,4.2303,4.2202,4.1136,4.0476,4.0121,3.9529,3.9411,3.9563,3.9563,3.9648,3.9817,3.9817,3.9512,3.8988,3.8464,3.8461,3.8768,3.9123,3.9478,3.9817,3.9986,4.0087,4.0087,4.0087,4.0087,4.0087,4.0087,4.0087,4.007,3.9901,3.9546,3.9022,3.8481,3.7161,3.525,3.7161,3.865,3.9563,3.9901,4.0087,4.0087,3.9901,3.9208,3.7956,3.7736,3.6738,3.4844,3.4759,3.4421,3.366,3.2087,3.07,2.9583,2.5321,0.0,0.0,0.0,0.0,0.0,0.0,0.0,0.0,0.0,2.5217,2.0685,0.0,2.8347,0.0,3.0662,3.2708,3.3743,3.5147,0.0,0.0,4.0614,4.2595,4.5462,4.7458,4.9353,5.1271,5.2836,5.4101,5.4991,5.5299,5.5374,5.527,5.5097,5.485,5.4607,5.503,5.5415,5.5511,5.6357,5.7223,5.7992,5.9396,6.0531,6.0762,6.08,6.08,6.08,6.08,6.08,6.08,6.08,6.08,6.08,6.08,6.08,6.08,6.08,6.08,6.08,6.08,6.08,4.3318,4.3267,4.2929,4.2557,4.21,4.1052,4.0578,4.0561,4.0223,4.0087,4.0087,4.0087,4.0087,4.0087,4.0087,4.0087,4.0087,4.0087,4.0087,4.0087,4.0087,4.0087,4.0087,4.0087,4.0087,4.0087,4.0087,4.0087,4.0087,4.0087,4.0087,4.0087,4.0087,3.9259,3.7736,3.8836,3.9665,4.007,4.0087,4.0087,4.007,3.9749,3.8886,3.7466,3.7415,3.6332,3.41,3.432,3.3998,3.2949,3.1816,3.0869,3.0091,2.7097,2.5033,0.0,0.0,0.0,0.0,0.0,0.0,0.0,0.0,0.0,0.0,0.0,3.1749,3.2482,3.496,3.6982,3.8157,4.0286,4.2312,4.3925,4.5798,4.7757,4.9797,5.1231,5.2606,5.389,5.4617,5.5184,5.5645,5.5684,5.5684,5.5703,5.603,5.6107,5.5761,5.603,5.6395,5.6799,5.7569,5.8396,5.9281,6.0185,6.08,6.08,6.08,6.08,6.08,6.08,6.08,6.08,6.08,6.08,6.08,6.08,6.08,6.08,6.08,6.08,6.08,6.08,6.08,4.457,4.4519,4.3842,4.3555,4.347,4.2083,4.1441,4.1288,4.0544,4.0172,4.0087,4.0087,4.0087,4.0087,4.0087,4.0087,4.0087,4.0087,4.0087,4.0087,4.0087,4.0087,4.0087,4.0087,4.0087,4.0087,4.0087,4.0087,4.0087,4.0087,4.0087,4.0087,4.0087,4.0087,4.0087,4.0087,4.0087,4.0087,4.0087,4.0087,4.007,3.9462,3.843,3.7009,3.6869,3.5723,3.3541,3.4015,3.3711,3.2374,3.1765,3.114,3.0412,2.9025,2.7926,0.0,2.7182,0.0,0.0,0.0,0.0,0.0,0.0,0.0,0.0,3.448,3.5529,3.669,3.915,4.124,4.2635,4.6176,4.8292,4.8073,5.0522,5.24,5.2825,5.3935,5.4914,5.5626,5.5684,5.5684,5.5684,5.5684,5.5703,5.5915,5.6492,5.7011,5.7261,5.7223,5.7415,5.8223,5.8973,5.9608,6.0416,6.0742,6.08,6.08,6.08,6.08,6.08,6.08,6.08,6.08,6.08,6.08,6.08,6.08,6.08,6.08,6.08,6.08,6.08,6.08,6.08,4.457,4.457,4.4418,4.4367,4.4282,4.3386,4.2642,4.2033,4.1322,4.0663,4.0087,4.0087,4.0087,4.0087,4.0087,4.0087,4.0087,4.0087,4.0087,4.0087,4.0087,4.0087,4.0087,4.0087,4.0087,4.0087,4.0087,4.0087,4.0087,4.0087,4.0087,4.0087,4.0087,4.0087,4.0087,0.0,0.0,0.0,4.0087,4.0087,4.0087,3.9952,3.9174,3.7753,3.7094,0.0,3.3558,3.3541,3.3203,3.2398,3.273,0.0,0.0,0.0,0.0,0.0,0.0,0.0,0.0,0.0,0.0,0.0,3.5319,3.511,3.5485,3.9228,4.1784,4.2072,4.3683,4.4892,4.5223,4.7381,4.8844,4.8903,5.1641,5.3594,5.3729,5.4741,5.553,5.5665,5.5684,5.5684,5.5684,5.5684,5.5972,5.6588,5.6876,5.755,5.8838,5.8415,5.8127,5.8338,5.9088,5.9838,6.0666,6.08,6.08,6.08,6.08,6.08,6.08,6.08,6.08,6.08,6.08,6.08,6.08,6.08,6.08,6.08,6.08,6.08,6.08,6.08,6.08,4.457,0.0,4.457,4.457,0.0,4.4147,4.3775,4.3335,4.2219,4.1322,4.0612,4.024,4.0087,4.0087,4.0087,4.0087,4.0087,4.0087,4.0087,4.0087,4.0087,4.0087,4.0087,4.0087,4.0087,4.0087,4.0087,4.0087,4.0087,4.0087,4.0087,4.0087,4.0087,4.0087,4.0087,4.0087,4.0087,4.0087,4.0087,4.0087,4.0054,3.9732,3.9022,3.7939,0.0,0.0,0.0,0.0,0.0,0.0,0.0,0.0,0.0,0.0,0.0,3.3871,3.5042,3.5573,3.5292,3.6503,3.788,3.9282,4.0254,4.0474,3.9703,4.2732,4.4856,4.5259,4.603,4.693,4.7938,4.9368,5.0511,5.1401,5.327,5.4556,5.4805,5.5308,5.5684,5.5684,5.5684,5.5684,5.5684,5.6107,5.6472,5.6973,5.7723,5.8511,5.9261,5.9146,5.9031,5.9454,5.9838,6.0281,6.0685,6.08,6.08,6.08,6.08,6.08,6.08,6.08,6.08,6.08,6.08,6.08,6.08,6.08,6.08,6.08,6.08,6.08,6.08,6.08,6.08,4.457,4.457,4.457,4.457,4.457,4.457,4.457,4.4485,0.0,0.0,0.0,4.0595,4.0273,4.0257,4.0138,4.0087,4.0087,4.0087,4.0087,4.0087,4.0087,4.0087,4.0087,4.0087,4.0087,4.0087,4.0087,4.0087,4.0087,4.0087,4.0087,4.0087,4.0087,4.0087,4.0087,4.0087,4.0087,4.0087,4.0087,4.0087,4.007,3.9495,3.8836,3.8125,3.7488,3.6435,3.4962,3.5078,3.4584,3.3342,3.4506,3.497,3.4418,3.6478,3.7771,3.8011,3.9764,4.0615,4.021,4.1372,4.2145,4.2248,4.4017,4.4856,4.4176,4.5351,4.6452,4.7241,4.75,4.8365,5.0033,5.1226,5.2391,5.3784,5.469,5.5331,5.564,5.5684,5.5684,5.5684,5.5684,5.5684,5.5703,5.6242,5.6915,5.7319,5.83,5.9473,5.9665,5.9742,5.9954,6.0512,6.0646,6.0762,6.08,6.08,6.08,6.08,6.08,6.08,6.08,6.08,6.08,6.08,6.08,6.08,6.08,6.08,6.08,6.08,6.08,6.08,6.08,6.08,6.08,4.457,4.457,4.457,4.457,4.457,4.457,4.457,4.4502,4.3623,4.2844,4.21,4.1373,4.1052,4.1018,4.0375,4.0087,4.0087,4.0087,4.0087,4.0087,4.0087,4.0087,4.0087,4.0087,4.0087,4.0087,4.0087,4.0087,4.0087,4.0087,4.0087,4.0087,4.0087,4.0087,4.0087,4.0087,4.0087,4.0087,4.0087,4.0087,4.0087,3.9969,3.958,3.8901,3.8568,3.7841,3.653,3.7398,3.7602,3.6918,3.8151,3.8514,3.7874,3.8717,3.9288,3.939,4.0623,4.1645,4.2219,4.2886,4.3834,4.5151,4.6195,4.6709,4.6636,4.6819,4.726,4.8067,4.9047,4.9868,5.0306,5.2205,5.3571,5.3977,5.4925,5.5621,5.5703,5.5684,5.5684,5.5684,5.5684,5.5684,5.5722,5.5876,5.6569,5.7742,5.8531,5.9031,6.0204,6.0627,6.0646,6.0762,6.08,6.08,6.08,6.08,6.08,6.08,6.08,6.08,6.08,6.08,6.08,6.08,6.08,6.08,6.08,6.08,6.08,6.08,6.08,6.08,6.08,6.08,6.08,4.5196,4.5145,4.4756,4.457,4.457,4.457,4.457,4.4553,4.4215,4.3623,4.2861,4.2117,4.1576,4.1187,4.0832,4.046,4.0087,4.0087,4.0087,4.0087,4.0087,4.0087,4.0087,4.0087,4.0087,4.0087,4.0087,4.0087,4.0087,4.0087,4.0087,4.0087,4.0087,4.0087,4.0087,4.0087,4.0087,4.0087,4.0087,4.0087,4.0087,4.0087,4.0084,4.0031,3.9582,3.9207,3.8903,3.9047,3.8961,3.8679,3.9925,4.0349,3.9753,4.0991,4.1574,4.1325,4.2104,4.2959,4.3743,4.4436,4.5296,4.6471,4.6893,4.739,4.8031,4.8085,4.8233,4.8621,4.9795,5.0804,5.1431,5.2946,5.4161,5.4829,5.5407,5.5684,5.5684,5.5684,5.5684,5.5684,5.5684,5.5684,5.5684,5.6107,5.6819,5.8127,5.8973,5.9954,6.0666,6.08,6.08,6.08,6.08,6.08,6.08,6.08,6.08,6.08,6.08,6.08,6.08,6.08,6.08,6.08,6.08,6.08,6.08,6.08,6.08,6.08,6.08,6.08,6.08,6.08,6.08,4.5855,4.5635,4.5077,4.4739,4.457,4.457,4.457,4.457,4.457,4.4231,4.3623,4.2878,4.2236,4.1728,4.1525,4.1136,4.0612,4.0409,4.0324,4.0324,4.0155,4.0087,4.0087,4.0087,4.0087,4.0087,4.0087,4.0087,4.0087,4.0087,4.0087,4.0121,4.0204,4.0286,4.0286,4.0434,4.0466,4.0466,4.0483,4.0417,4.0286,4.0434,4.0672,4.1052,4.0691,4.0612,4.0896,4.0663,4.042,4.0378,4.1339,4.1738,4.1411,4.2668,4.3321,4.2995,4.3414,4.4121,4.4929,4.5718,4.6471,4.7169,4.739,4.7938,4.8884,4.9139,4.9139,4.9201,5.0387,5.1602,5.2488,5.3664,5.4709,5.5585,5.5684,5.5684,5.5684,5.5684,5.5684,5.5684,5.5684,5.5684,5.5818,5.628,5.7088,5.8204,5.9588,6.0492,6.0723,6.08,6.08,6.08,6.08,6.08,6.08,6.08,6.08,6.08,6.08,6.08,6.08,6.08,6.08,6.08,6.08,6.08,6.08,6.08,6.08,6.08,6.08,6.08,6.08,6.08,6.08,4.6312,4.5737,4.5618,4.5213,4.4604,4.457,4.457,4.457,4.457,4.4553,4.435,4.3639,4.3284,4.3115,4.2489,4.2117,4.1965,4.1407,4.1119,4.1001,4.0392,4.0087,4.0121,4.0087,4.0087,4.0121,4.0121,4.0171,4.0171,4.0121,4.0121,4.0171,4.0559,4.0827,4.0874,4.1358,4.1639,4.1639,4.1639,4.1375,4.092,4.1358,4.1682,4.1707,4.219,4.2195,4.1777,4.2647,4.2887,4.2515,4.2941,4.3263,4.3246,4.3408,4.3497,4.3446,4.416,4.4947,4.5736,4.6544,4.7187,4.7642,4.8308,4.8898,4.9397,4.9773,4.9827,4.9844,5.1277,5.2419,5.2717,5.4311,5.5467,5.5624,5.5684,5.5684,5.5684,5.5684,5.5684,5.5684,5.5684,5.5684,5.5722,5.5895,5.6569,5.7973,5.8992,5.9858,6.0396,6.0512,6.055,6.0646,6.0742,6.0742,6.0762,6.08,6.08,6.08,6.08,6.08,6.08,6.08,6.08,6.08,6.08,6.08,6.08,6.08,6.0781,6.0831,6.0831,6.0827,6.0804,6.0831,6.0831,4.7293,4.6938,4.6075,4.528,4.4621,4.457,4.457,4.457,4.457,4.457,4.4553,4.4231,4.3842,4.3403,4.3081,4.2726,4.2286,4.1982,4.1847,4.1779,4.1085,4.0747,4.0713,4.0273,4.0087,4.0121,4.04,4.0577,4.0577,4.0594,4.075,4.103,4.1013,4.1087,4.1402,4.1664,4.181,4.181,4.218,4.2203,4.1979,4.1853,4.1979,4.2302,4.2577,4.277,4.281,4.3286,4.341,4.3214,4.3375,4.3479,4.3479,4.3479,4.3699,4.4213,4.5424,4.6269,4.6617,4.7572,4.8227,4.8394,4.8902,4.9416,4.98,5.0019,5.0092,5.0417,5.1871,5.2954,5.3088,5.46,5.5684,5.5684,5.5684,5.5684,5.5684,5.5684,5.5684,5.5684,5.5684,5.5684,5.578,5.6145,5.6722,5.753,5.8261,5.8973,5.9319,5.9319,5.9338,5.9338,5.9319,5.9781,6.0492,6.08,6.0781,6.0781,6.08,6.08,6.08,6.08,6.08,6.08,6.08,6.08,6.08,6.0804,6.0827,6.088,6.1055,6.1103,6.1103,6.1103,6.1053,4.8088,4.7699,4.6329,4.5263,4.4587,4.457,4.457,4.457,4.457,4.457,4.457,4.457,4.4265,4.3792,4.3741,4.3436,4.2946,4.2709,4.2608,4.2523,4.1847,4.1508,4.1441,4.0747,4.0392,4.0442,4.0534,4.0733,4.0856,4.0903,4.1223,4.1664,4.1534,4.1621,4.2021,4.2203,4.2266,4.2306,4.2714,4.2939,4.2846,4.2501,4.2483,4.2884,4.2902,4.3087,4.3479,4.3479,4.3479,4.3479,4.3479,4.3479,4.3497,4.3699,4.4268,4.5314,4.6415,4.7242,4.7574,4.8428,4.8996,4.9234,4.9504,4.9846,5.0159,5.0272,5.0399,5.072,5.201,5.2855,5.3337,5.4511,5.5395,5.5645,5.5684,5.5684,5.5684,5.5684,5.5684,5.5684,5.5684,5.5684,5.578,5.6184,5.6646,5.703,5.755,5.8088,5.8242,5.8357,5.8357,5.83,5.8319,5.8915,6.0146,6.0377,6.0473,6.0781,6.08,6.08,6.08,6.08,6.08,6.08,6.08,6.08,6.08,6.0804,6.0831,6.0945,6.1068,6.1186,6.1143,6.12,6.1186,4.8562,4.7733,4.6312,4.5297,4.4587,4.457,4.457,4.457,4.457,4.457,4.457,4.457,4.4553,4.4468,4.4434,4.4468,4.4333,4.3673,4.3369,4.3284,4.2591,4.2236,4.2202,4.1508,4.1153,4.1172,4.0695,4.0645,4.0995,4.0949,4.1223,4.1793,4.2302,4.2577,4.2732,4.3087,4.3391,4.3321,4.3375,4.3444,4.3444,4.3391,4.3356,4.341,4.3444,4.3463,4.3479,4.3479,4.3479,4.3479,4.3479,4.3497,4.3571,4.4268,4.5388,4.6728,4.7058,4.7647,4.859,4.8874,4.9265,4.9853,5.0024,5.0249,5.0565,5.0604,5.0624,5.0702,5.1529,5.2337,5.3145,5.4107,5.4953,5.5607,5.5684,5.5684,5.5684,5.5684,5.5684,5.5684,5.5684,5.5684,5.5684,5.5722,5.6184,5.6684,5.7011,5.728,5.7857,5.8127,5.8088,5.8069,5.8146,5.855,5.9358,5.9762,6.005,6.0492,6.08,6.0781,6.08,6.08,6.0781,6.0781,6.08,6.08,6.08,6.0804,6.0831,6.0883,6.0963,6.1034,6.1208,6.1077,6.1089,4.8291,4.7158,4.6616,4.5703,4.4621,4.457,4.457,4.457,4.457,4.457,4.457,4.457,4.457,4.457,4.457,4.457,4.4553,4.4265,4.4164,4.4062,4.3369,4.3014,4.2929,4.2252,4.2125,4.2444,4.2124,4.2123,4.2501,4.2226,4.2324,4.2752,4.2732,4.2846,4.3178,4.341,4.3479,4.3479,4.3479,4.3479,4.3497,4.3479,4.3479,4.3479,4.3479,4.3479,4.3479,4.3479,4.3479,4.3479,4.3479,4.3718,4.4323,4.5535,4.6598,4.7416,4.797,4.8565,4.9177,4.9514,4.9773,5.0068,5.0355,5.0504,5.0663,5.0683,5.0683,5.0837,5.1433,5.226,5.3126,5.3991,5.4838,5.553,5.5684,5.5684,5.5684,5.5684,5.5684,5.5684,5.5684,5.5684,5.5684,5.5684,5.5818,5.6069,5.6165,5.6357,5.653,5.6646,5.6763,5.6646,5.6665,5.7126,5.8607,5.9223,5.9742,6.0396,6.0781,6.0781,6.0804,6.0808,6.0808,6.0877,6.0834,6.0856,6.088,6.102,6.102,6.0983,6.1034,6.1153,6.1335,6.1284,6.1325,4.8139,4.6904,4.6786,4.5923,4.4637,4.457,4.457,4.457,4.457,4.457,4.457,4.457,4.457,4.457,4.457,4.457,4.457,4.457,4.457,4.4519,4.4028,4.3792,4.3711,4.3265,4.3203,4.3565,4.3434,4.3542,4.3943,4.3645,4.3795,4.4216,4.367,4.3524,4.3811,4.3644,4.3479,4.3479,4.3479,4.3608,4.3809,4.3883,4.4011,4.4232,4.4268,4.3975,4.3534,4.3479,4.3644,4.3828,4.3901,4.4378,4.5461,4.6635,4.7531,4.8081,4.8712,4.9265,4.9664,4.9949,5.0159,5.0291,5.0525,5.0683,5.0683,5.0683,5.0683,5.0818,5.1144,5.1933,5.2991,5.3741,5.4511,5.5434,5.5684,5.5684,5.5684,5.5684,5.5684,5.5684,5.5684,5.5684,5.5684,5.5684,5.5703,5.5684,5.5684,5.5684,5.5684,5.5729,5.5748,5.5707,5.5865,5.6499,5.7632,5.8454,5.9553,6.0323,6.0789,6.0808,6.0836,6.0858,6.0882,6.0943,6.0944,6.0964,6.1019,6.1177,6.1172,6.1123,6.1194,6.1303,6.1451,6.1544,6.1544,4.8139,4.687,4.6786,4.594,4.4671,4.457,4.457,4.457,4.457,4.457,4.457,4.457,4.457,4.457,4.457,4.457,4.457,4.457,4.457,4.4553,4.4502,4.4485,4.4473,4.4283,4.4248,4.4344,4.4301,4.4489,4.5001,4.4947,4.5197,4.5553,4.4985,4.4637,4.4709,4.4085,4.3644,4.3699,4.3754,4.403,4.4599,4.4709,4.5021,4.5645,4.5718,4.5076,4.3681,4.3626,4.4011,4.4617,4.4709,4.548,4.6709,4.7474,4.8077,4.8754,4.9295,4.9692,5.0043,5.0135,5.0336,5.0565,5.0683,5.0683,5.0683,5.0683,5.0683,5.0702,5.0875,5.1471,5.2876,5.3376,5.4068,5.5357,5.5684,5.5684,5.5684,5.5684,5.5684,5.5684,5.5705,5.5705,5.5705,5.5729,5.5769,5.5748,5.5748,5.5749,5.5749,5.5843,5.5824,5.5789,5.5864,5.6377,5.7043,5.7783,5.9095,6.0192,6.0622,6.0836,6.0925,6.0982,6.1087,6.1136,6.1151,6.1147,6.1128,6.1265,6.1297,6.1277,6.1383,6.1428,6.1491,6.1573,6.1609,4.8139,4.6836,4.6786,4.594,4.4654,4.457,4.457,4.457,4.457,4.457,4.457,4.457,4.457,4.457,4.457,4.457,4.457,4.457,4.457,4.457,4.457,4.457,4.4575,4.4575,4.4665,4.5005,4.5383,4.5585,4.5676,4.5679,4.5773,4.5792,4.5663,4.5535,4.5516,4.5278,4.5149,4.5149,4.5149,4.5296,4.5516,4.5535,4.5663,4.5865,4.5902,4.5608,4.5204,4.5149,4.5278,4.5535,4.5535,4.6012,4.704,4.8025,4.8749,4.9269,4.9692,5.0092,5.0421,5.0504,5.0544,5.0663,5.0683,5.0683,5.0683,5.0683,5.0683,5.076,5.1202,5.2029,5.2991,5.376,5.453,5.5568,5.5684,5.5684,5.5684,5.5705,5.5684,5.5705,5.5789,5.5843,5.584,5.5907,5.5975,5.5877,5.5943,5.5986,5.5891,5.5981,5.609,5.6057,5.6188,5.6278,5.6916,5.7437,5.8308,5.9492,6.0132,6.0672,6.0832,6.1138,6.124,6.1301,6.1342,6.1353,6.1334,6.1354,6.1402,6.142,6.1485,6.1504,6.1529,6.1573,6.1633,4.8139,4.6836,4.6786,4.594,4.4621,4.457,4.457,4.457,4.457,4.457,4.457,4.457,4.457,4.457,4.457,4.457,4.457,4.457,4.457,4.457,4.457,4.457,4.4682,4.5089,4.5705,4.631,4.677,4.6895,4.6782,4.6783,4.6801,4.6801,4.6507,4.6342,4.6305,4.603,4.5902,4.5902,4.5865,4.6049,4.6287,4.6342,4.6507,4.6728,4.6801,4.6783,4.6783,4.6783,4.6654,4.6471,4.6599,4.7114,4.7775,4.8636,4.9276,4.9719,5.0111,5.0442,5.0663,5.0663,5.0683,5.0683,5.0683,5.0683,5.0683,5.0683,5.0683,5.0798,5.1414,5.226,5.3126,5.3991,5.4818,5.5607,5.5684,5.5684,5.5705,5.5749,5.5769,5.5826,5.5927,5.5996,5.6051,5.609,5.6158,5.6051,5.6103,5.6181,5.6078,5.6161,5.6222,5.6242,5.6261,5.6465,5.6803,5.722,5.7609,5.859,5.9546,6.0132,6.0558,6.11,6.1411,6.1472,6.1509,6.1534,6.152,6.1544,6.1573,6.16,6.1582,6.1601,6.1621,6.164,6.1699,4.8105,4.6853,4.6735,4.5872,4.4637,4.457,4.457,4.457,4.457,4.457,4.457,4.457,4.457,4.457,4.457,4.457,4.457,4.457,4.457,4.457,4.4626,4.4626,4.4869,4.5749,4.6748,4.7747,4.7983,4.8119,4.8031,4.8049,4.8288,4.8049,4.7462,4.7186,4.7076,4.6434,4.6214,4.6287,4.6195,4.6544,4.715,4.7186,4.7462,4.8141,4.8122,4.8104,4.8067,4.8088,4.7886,4.7388,4.7812,4.8328,4.8807,4.9276,4.97,5.0043,5.0462,5.0624,5.0683,5.0683,5.0683,5.0683,5.0683,5.0683,5.0683,5.0683,5.0683,5.0741,5.1433,5.226,5.3145,5.3991,5.4818,5.5511,5.5707,5.5728,5.5728,5.5843,5.5924,5.5971,5.6078,5.6202,5.6202,5.6222,5.6232,5.6212,5.6232,5.6251,5.6242,5.6297,5.6328,5.6348,5.6387,5.6472,5.6751,5.69,5.7251,5.7654,5.8724,5.957,6.0375,6.1049,6.1515,6.1606,6.164,6.166,6.168,6.166,6.168,6.166,6.168,6.1699,6.1699,6.1699,6.1699,4.7648,4.6769,4.621,4.5432,4.4621,4.457,4.457,4.457,4.457,4.457,4.457,4.457,4.457,4.457,4.457,4.457,4.457,4.457,4.457,4.457,4.457,4.4869,4.532,4.6014,4.6847,4.7572,4.7756,4.7856,4.8267,4.8324,4.8324,4.8306,4.8086,4.7976,4.7921,4.77,4.7682,4.7682,4.7664,4.77,4.7902,4.7976,4.8067,4.8269,4.8324,4.8306,4.8344,4.8604,4.8512,4.805,4.8456,4.8779,4.8996,4.9561,4.9974,5.0159,5.0462,5.0683,5.0683,5.0683,5.0683,5.0683,5.0683,5.0683,5.0683,5.0683,5.0683,5.0837,5.1452,5.2299,5.3145,5.401,5.4838,5.5532,5.577,5.5842,5.5877,5.6015,5.6115,5.6146,5.626,5.6328,5.6368,5.6416,5.643,5.638,5.6391,5.643,5.6411,5.6445,5.6484,5.6523,5.6543,5.6543,5.6593,5.6688,5.6825,5.6964,5.7832,5.8968,5.9987,6.1046,6.1436,6.1699,6.168,6.1699,6.1699,6.1699,6.1699,6.1699,6.1699,6.1699,6.1699,6.1699,6.1699,4.7293,4.6312,4.5872,4.5263,4.4621,4.457,4.457,4.457,4.457,4.457,4.457,4.457,4.457,4.457,4.457,4.457,4.457,4.457,4.457,4.4665,4.4852,4.5196,4.5597,4.6094,4.6756,4.7385,4.7656,4.7977,4.8267,4.8324,4.8324,4.8306,4.8324,4.8324,4.8269,4.8324,4.8324,4.8288,4.8324,4.8324,4.8324,4.8324,4.8306,4.8324,4.8306,4.8364,4.8532,4.8779,4.8779,4.8674,4.893,4.9234,4.9397,4.9827,5.0159,5.0336,5.0584,5.0683,5.0683,5.0683,5.0683,5.0683,5.0683,5.0683,5.0683,5.0702,5.0741,5.126,5.1972,5.2818,5.3664,5.4511,5.5145,5.563,5.5894,5.5981,5.592,5.6139,5.6279,5.6332,5.6405,5.6484,5.6484,5.6562,5.6562,5.6515,5.6536,5.6536,5.6504,5.6582,5.6621,5.6621,5.6621,5.6582,5.6582,5.664,5.668,5.6777,5.7637,5.8672,5.9746,6.0937,6.1445,6.1699,6.1699,6.1699,6.1699,6.1699,6.1699,6.1699,6.1699,6.1699,6.1699,6.1699,6.1699,4.6904,4.5703,4.5618,4.5196,4.4621,4.457,4.457,4.457,4.457,4.457,4.457,4.457,4.457,4.457,4.457,4.457,4.457,4.457,4.4665,4.4852,4.5196,4.5511,4.5732,4.6336,4.6955,4.7572,4.8075,4.8229,4.8324,4.8324,4.8324,4.8324,4.8324,4.8324,4.8324,4.8324,4.8324,4.8324,4.8324,4.8324,4.8324,4.8324,4.8324,4.8306,4.8421,4.8568,4.8813,4.9029,4.9075,4.9024,4.9386,4.9673,4.9999,5.0111,5.0336,5.0584,5.0644,5.0683,5.0683,5.0683,5.0683,5.0683,5.0683,5.0683,5.0721,5.0837,5.1183,5.1702,5.276,5.3683,5.4511,5.5299,5.5591,5.5769,5.6015,5.6097,5.6078,5.6232,5.6421,5.6421,5.6517,5.6582,5.6621,5.6621,5.6601,5.6562,5.6601,5.6582,5.6562,5.6601,5.6621,5.6621,5.6621,5.6621,5.6601,5.6621,5.6621,5.6738,5.7793,5.8808,5.9726,6.0703,6.1367,6.1699,6.1699,6.1699,6.1699,6.1699,6.1699,6.1699,6.1699,6.1699,6.1699,6.1699,6.1699,4.6007,4.5652,4.506,4.4722,4.4587,4.457,4.457,4.457,4.457,4.457,4.457,4.457,4.457,4.457,4.457,4.457,4.457,4.4626,4.4797,4.532,4.5425,4.5783,4.6192,4.6756,4.747,4.7937,4.821,4.8306,4.8324,4.8324,4.8324,4.8324,4.8324,4.8324,4.8324,4.8324,4.8324,4.8324,4.8324,4.8324,4.8324,4.8324,4.8306,4.8364,4.8604,4.8813,4.9011,4.9514,4.9827,4.9853,4.9905,5.0043,5.0159,5.0399,5.0584,5.0644,5.0683,5.0683,5.0683,5.0683,5.0683,5.0683,5.076,5.0683,5.0741,5.1337,5.1664,5.2183,5.328,5.4414,5.5222,5.5549,5.573,5.5859,5.6051,5.6252,5.6313,5.6445,5.6523,5.6562,5.6582,5.6621,5.6621,5.6621,5.6621,5.6621,5.6621,5.6621,5.6621,5.6621,5.6621,5.6621,5.6621,5.6621,5.6621,5.6621,5.6621,5.6758,5.7715,5.8711,5.9629,6.0547,6.123,6.1562,6.1699,6.1699,6.1699,6.1699,6.1699,6.1699,6.1699,6.1699,6.1699,6.1699,6.1699,4.55,4.5145,4.4739,4.457,4.457,4.457,4.457,4.457,4.457,4.457,4.457,4.457,4.457,4.457,4.457,4.457,4.457,4.457,4.4759,4.4981,4.5089,4.5407,4.6014,4.6618,4.7237,4.7838,4.8172,4.8286,4.8324,4.8324,4.8324,4.8324,4.8324,4.8324,4.8324,4.8324,4.8324,4.8324,4.8324,4.8324,4.8324,4.8324,4.8421,4.8532,4.8813,4.9043,4.9504,4.9846,5.0159,5.0317,5.0358,5.0358,5.038,5.0565,5.0683,5.0683,5.0683,5.0683,5.0683,5.0683,5.0683,5.0721,5.101,5.1221,5.1452,5.2029,5.2702,5.3164,5.3972,5.4818,5.559,5.5769,5.5824,5.592,5.6131,5.6301,5.6391,5.6523,5.6621,5.6621,5.6601,5.6621,5.6621,5.6621,5.6621,5.6621,5.6621,5.6621,5.6621,5.6621,5.6621,5.6621,5.6621,5.6621,5.6621,5.6621,5.6621,5.6875,5.7441,5.8379,5.9277,6.0215,6.1133,6.1406,6.1699,6.1699,6.1699,6.1699,6.1699,6.1699,6.1699,6.1699,6.1699,6.1699,6.1699,4.5162,4.457,4.457,4.457,4.457,4.457,4.457,4.457,4.457,4.457,4.457,4.457,4.457,4.457,4.457,4.457,4.457,4.4626,4.4737,4.4906,4.5142,4.5563,4.6112,4.671,4.7176,4.7572,4.8075,4.8267,4.8324,4.8324,4.8324,4.8324,4.8324,4.8324,4.8324,4.8324,4.8324,4.8324,4.8324,4.8324,4.8324,4.8324,4.8458,4.8657,4.8863,4.9139,4.9589,4.9898,5.014,5.0565,5.0585,5.0624,5.0683,5.0683,5.0683,5.0683,5.0683,5.0683,5.076,5.0837,5.0971,5.0914,5.1645,5.2049,5.2299,5.2876,5.3587,5.4145,5.4684,5.503,5.5628,5.5807,5.5907,5.5991,5.6232,5.6386,5.643,5.6523,5.6601,5.6621,5.6621,5.6621,5.6621,5.6621,5.6621,5.6621,5.6621,5.6621,5.6621,5.6621,5.6621,5.6621,5.6621,5.6621,5.6621,5.6621,5.6621,5.6777,5.7246,5.791,5.8711,5.9219,6.0058,6.1348,6.1699,6.168,6.168,6.1699,6.1699,6.1699,6.1699,6.1699,6.1699,6.1699,6.1699,4.4688,4.457,4.457,4.457,4.457,4.457,4.457,4.457,4.457,4.457,4.457,4.457,4.457,4.457,4.457,4.457,4.457,4.4682,4.4906,4.532,4.5699,4.6305,4.6774,4.7324,4.7838,4.8132,4.8267,4.8324,4.8324,4.8324,4.8324,4.8324,4.8324,4.8324,4.8324,4.8324,4.8324,4.8324,4.8324,4.8324,4.8324,4.8306,4.8364,4.855,4.8779,4.9062,4.9234,4.9504,4.9773,5.0159,5.0183,5.038,5.0624,5.0683,5.0683,5.0683,5.0683,5.0683,5.0741,5.1298,5.1606,5.1895,5.2491,5.2953,5.3183,5.3741,5.4337,5.4607,5.5107,5.553,5.5667,5.5806,5.5966,5.6127,5.626,5.6421,5.6515,5.6562,5.6601,5.6601,5.6601,5.6621,5.6621,5.6621,5.6621,5.6621,5.6621,5.6621,5.6621,5.6621,5.6621,5.6621,5.6621,5.6621,5.6621,5.6621,5.6621,5.6621,5.6933,5.7305,5.789,5.8047,5.8867,6.0371,6.1348,6.1562,6.1601,6.168,6.1699,6.1699,6.1699,6.1699,6.1699,6.1699,6.1699,4.457,4.457,4.457,4.457,4.457,4.457,4.457,4.457,4.457,4.457,4.457,4.457,4.457,4.457,4.457,4.457,4.4626,4.4944,4.5232,4.5597,4.6094,4.6524,4.6999,4.7572,4.7756,4.7897,4.8132,4.8324,4.8324,4.8324,4.8324,4.8324,4.8324,4.8324,4.8324,4.8324,4.8324,4.8324,4.8324,4.8324,4.8324,4.8324,4.8364,4.8621,4.8795,4.9108,4.9532,4.9673,5.0019,5.0336,5.0402,5.0504,5.0624,5.0683,5.0683,5.0683,5.0683,5.0683,5.0818,5.1414,5.1856,5.2049,5.3087,5.3799,5.4068,5.4568,5.503,5.5184,5.5299,5.5684,5.5705,5.5825,5.5936,5.6051,5.6193,5.6361,5.6477,5.6507,5.6538,5.6582,5.6601,5.6621,5.6621,5.6621,5.6621,5.6621,5.6621,5.6621,5.6621,5.6621,5.6621,5.6621,5.6621,5.6621,5.6621,5.6621,5.6621,5.6621,5.668,5.7051,5.7383,5.7676,5.8496,5.9746,6.0469,6.0918,6.1543,6.164,6.168,6.168,6.1699,6.1699,6.1699,6.1699,6.1699,4.457,4.457,4.457,4.457,4.457,4.457,4.457,4.457,4.457,4.457,4.457,4.457,4.457,4.457,4.457,4.4626,4.4626,4.5089,4.5232,4.5425,4.6046,4.643,4.6618,4.715,4.7715,4.7897,4.8075,4.8324,4.8324,4.8324,4.8324,4.8324,4.8324,4.8324,4.8324,4.8324,4.8324,4.8324,4.8324,4.8324,4.8324,4.8306,4.8421,4.8744,4.8779,4.9075,4.9589,4.9692,5.0019,5.0336,5.0504,5.0604,5.0683,5.0683,5.0683,5.0683,5.0683,5.0683,5.0914,5.1741,5.2299,5.2375,5.3837,5.4511,5.4838,5.5203,5.5626,5.5684,5.5684,5.5684,5.5726,5.5806,5.5907,5.5951,5.609,5.6242,5.6368,5.645,5.649,5.6543,5.6582,5.6621,5.6621,5.6621,5.6621,5.6621,5.6621,5.6621,5.6621,5.6621,5.6621,5.6621,5.6621,5.6621,5.6621,5.6621,5.6621,5.6621,5.664,5.6855,5.7168,5.748,5.832,5.8926,5.9277,5.9785,6.0664,6.1367,6.123,6.1211,6.1523,6.168,6.1699,6.1699,6.1699,4.457,4.457,4.457,4.457,4.457,4.457,4.457,4.457,4.457,4.457,4.457,4.457,4.457,4.457,4.457,4.457,4.4626,4.4814,4.4944,4.5178,4.5965,4.646,4.6646,4.7679,4.7977,4.8075,4.821,4.8306,4.8324,4.8324,4.8324,4.8324,4.8324,4.8324,4.8324,4.8324,4.8324,4.8324,4.8324,4.8324,4.8324,4.8324,4.8344,4.8402,4.8458,4.8692,4.9152,4.9326,4.9561,5.0183,5.0206,5.0358,5.0624,5.0683,5.0683,5.0683,5.0683,5.0702,5.0933,5.2049,5.2876,5.3145,5.4491,5.5338,5.5511,5.5511,5.5684,5.5684,5.5684,5.5684,5.5707,5.5807,5.5891,5.5951,5.6038,5.6203,5.6342,5.6391,5.6458,5.6543,5.6601,5.6621,5.6621,5.6621,5.6621,5.6621,5.6621,5.6621,5.6621,5.6621,5.6621,5.6621,5.6621,5.6621,5.6621,5.6621,5.6621,5.6621,5.664,5.668,5.6894,5.7148,5.7305,5.7851,5.8183,5.8535,5.9199,5.9805,6.0293,6.0781,6.1094,6.1426,6.1699,6.1699,6.1699,4.457,4.457,4.457,4.457,4.457,4.457,4.457,4.457,4.457,4.457,4.457,4.457,4.457,4.457,4.457,4.457,4.4665,4.4906,4.532,4.5511,4.6143,4.6756,4.7367,4.7697,4.7879,4.8267,4.8324,4.8306,4.8324,4.8324,4.8324,4.8324,4.8324,4.8324,4.8324,4.8324,4.8324,4.8324,4.8324,4.8324,4.8324,4.8324,4.8324,4.8324,4.8324,4.8657,4.9075,4.9265,4.9645,5.0272,5.0442,5.0523,5.0663,5.0683,5.0683,5.0683,5.0683,5.0683,5.0894,5.2299,5.2991,5.3587,5.4645,5.5607,5.5684,5.5684,5.5684,5.5684,5.5684,5.5684,5.5684,5.5749,5.575,5.5843,5.5971,5.6115,5.6249,5.6355,5.6426,5.6523,5.6621,5.6621,5.6621,5.6621,5.6621,5.6621,5.6621,5.6621,5.6621,5.6621,5.6621,5.6621,5.6621,5.6621,5.6621,5.6621,5.6621,5.6621,5.6621,5.664,5.664,5.6797,5.6973,5.6992,5.7226,5.7558,5.791,5.8711,5.9648,6.0215,6.0703,6.1055,6.1406,6.1699,6.1699,4.457,4.457,4.457,4.457,4.457,4.457,4.457,4.457,4.457,4.457,4.457,4.457,4.457,4.457,4.457,4.457,4.4626,4.5089,4.5511,4.5865,4.6336,4.691,4.7367,4.7512,4.7937,4.8306,4.8324,4.8324,4.8324,4.8324,4.8324,4.8324,4.8324,4.8324,4.8324,4.8324,4.8324,4.8324,4.8324,4.8324,4.8324,4.8324,4.8324,4.8344,4.8458,4.8797,4.9386,4.9617,5.0043,5.0504,5.0663,5.0663,5.0683,5.0683,5.0683,5.0683,5.0683,5.0683,5.1164,5.2125,5.3087,5.3895,5.4645,5.5684,5.5684,5.5684,5.5684,5.5684,5.5684,5.5684,5.5684,5.5705,5.5707,5.575,5.5843,5.5996,5.6161,5.6308,5.6445,5.6543,5.6621,5.6621,5.6621,5.6621,5.6621,5.6621,5.6621,5.6621,5.6621,5.6621,5.6621,5.6621,5.6621,5.6621,5.6621,5.6621,5.6621,5.6621,5.6621,5.6621,5.6621,5.6621,5.6719,5.666,5.6621,5.6797,5.7265,5.8183,5.9043,5.9394,5.9824,6.0586,6.1055,6.1387,6.168,4.457,4.457,4.4553,4.4536,4.457,4.457,4.457,4.457,4.457,4.4536,4.4451,4.4519,4.4451,4.4434,4.4299,4.4333,4.4541,4.4609,4.4647,4.5095,4.5765,4.6136,4.657,4.7168,4.7892,4.8119,4.8102,4.8177,4.8324,4.8324,4.8324,4.8324,4.8324,4.8324,4.8324,4.8324,4.8324,4.8324,4.8324,4.8324,4.8324,4.8324,4.8324,4.8402,4.8657,4.9075,4.9493,4.9819,5.0183,5.0663,5.0683,5.0683,5.0683,5.0683,5.0683,5.0683,5.0683,5.0741,5.1221,5.2279,5.3491,5.4376,5.5126,5.5684,5.5684,5.5684,5.5684,5.5684,5.5684,5.5684,5.5684,5.5684,5.5684,5.5789,5.5894,5.6051,5.6203,5.6348,5.6465,5.6562,5.6621,5.6621,5.6621,5.6621,5.6621,5.6621,5.6621,5.6621,5.6621,5.6621,5.6621,5.6621,5.6621,5.6621,5.6621,5.6621,5.6621,5.6621,5.6621,5.6621,5.6621,5.6621,5.6621,5.6621,5.6621,5.6621,5.668,5.748,5.8105,5.8418,5.8945,5.9785,6.0566,6.1035,6.1387,4.3166,4.3166,4.3183,4.3724,4.457,4.457,4.457,4.457,4.457,4.4282,4.3859,4.3842,4.3606,4.3318,4.3166,4.3166,4.3183,4.3183,4.3469,4.3613,4.3957,4.437,4.4905,4.5666,4.608,4.6979,4.738,4.7902,4.8269,4.8288,4.8324,4.8324,4.8324,4.8324,4.8324,4.8324,4.8324,4.8324,4.8324,4.8324,4.8324,4.8324,4.8324,4.8344,4.8692,4.9075,4.9475,4.9879,5.0272,5.0565,5.0683,5.0683,5.0683,5.0683,5.0683,5.0683,5.0683,5.0894,5.1433,5.2549,5.376,5.4991,5.553,5.5684,5.5684,5.5684,5.5684,5.5684,5.5684,5.5684,5.5684,5.5705,5.5728,5.5825,5.5966,5.6139,5.6277,5.6397,5.6484,5.6601,5.6621,5.6621,5.6621,5.6621,5.6621,5.6621,5.6621,5.6621,5.6621,5.6621,5.6621,5.6621,5.6621,5.6621,5.6621,5.6621,5.6621,5.6621,5.6621,5.6621,5.6621,5.6621,5.6621,5.6621,5.6621,5.6621,5.6699,5.6894,5.7285,5.7812,5.8379,5.9062,5.9824,6.0625,6.1035,4.2303,4.2303,4.2303,4.2895,4.3842,4.3893,4.3893,4.3893,4.3842,4.3623,4.3081,4.3064,4.2811,4.2388,4.232,4.2354,4.2439,4.2475,4.2653,4.2877,4.3048,4.3256,4.3902,4.4607,4.5431,4.6114,4.6848,4.748,4.7847,4.8159,4.8288,4.8324,4.8324,4.8324,4.8324,4.8324,4.8324,4.8324,4.8324,4.8324,4.8324,4.8324,4.8324,4.8382,4.8692,4.9075,4.9475,4.9879,5.0272,5.0565,5.0683,5.0683,5.0683,5.0683,5.0683,5.0683,5.076,5.101,5.1645,5.2953,5.4164,5.5376,5.5645,5.5684,5.5684,5.5684,5.5684,5.5684,5.5684,5.5684,5.5705,5.5729,5.5789,5.5891,5.6119,5.6285,5.6374,5.6484,5.6543,5.6621,5.6621,5.6621,5.6621,5.6621,5.6621,5.6621,5.6621,5.6621,5.6621,5.6621,5.6621,5.6621,5.6621,5.6621,5.6621,5.6621,5.6621,5.6621,5.6621,5.6621,5.6621,5.6621,5.6621,5.6621,5.6621,5.6621,5.668,5.6777,5.7031,5.7344,5.793,5.8515,5.9433,6.0215,6.0644,4.2219,4.2303,4.2219,4.2252,4.2371,4.2371,4.2439,4.2591,4.254,4.2455,4.2337,4.232,4.2252,4.21,4.1931,4.1914,4.1931,4.2016,4.2121,4.2141,4.2363,4.3241,4.3827,4.4275,4.4656,4.5808,4.6397,4.6764,4.7131,4.7572,4.7957,4.8233,4.8214,4.8324,4.8324,4.8324,4.8324,4.8324,4.8324,4.8324,4.8324,4.8324,4.8324,4.8402,4.8692,4.9075,4.9386,4.9773,5.0159,5.0504,5.0584,5.0624,5.0683,5.0683,5.0683,5.0683,5.0683,5.0741,5.0952,5.3106,5.4414,5.528,5.5415,5.553,5.5645,5.5684,5.5684,5.5684,5.5684,5.5684,5.5729,5.5788,5.5857,5.5991,5.6232,5.6386,5.6458,5.6523,5.6582,5.6621,5.6621,5.6621,5.6621,5.6621,5.6621,5.6621,5.6621,5.6621,5.6621,5.6621,5.6621,5.6621,5.6621,5.6621,5.6621,5.6621,5.6621,5.6621,5.6621,5.6621,5.6621,5.6621,5.6621,5.6621,5.6621,5.6621,5.6621,5.6621,5.6855,5.707,5.7422,5.8047,5.8984,5.9668,6.0,4.0832,4.0815,4.0815,4.0832,4.0967,4.1914,4.2286,4.2303,4.2269,4.2016,4.1627,4.1559,4.1238,4.0984,4.0882,4.0933,4.0882,4.0815,4.0832,4.0917,4.1255,4.1478,4.2107,4.2888,4.3576,4.4483,4.5241,4.592,4.6305,4.6783,4.7131,4.7407,4.7957,4.8306,4.8324,4.8324,4.8324,4.8324,4.8324,4.8324,4.8324,4.8324,4.8306,4.8306,4.8692,4.8963,4.9158,4.9532,4.9898,5.0272,5.0377,5.0462,5.0624,5.0683,5.0683,5.0683,5.0702,5.0991,5.1356,5.2568,5.3414,5.4318,5.4972,5.5203,5.5568,5.5684,5.5684,5.5684,5.5684,5.5684,5.5707,5.5824,5.592,5.6115,5.6305,5.6426,5.6523,5.6562,5.6621,5.6621,5.6621,5.6621,5.6621,5.6621,5.6621,5.6621,5.6621,5.6621,5.6621,5.6621,5.6621,5.6621,5.6621,5.6621,5.6621,5.6621,5.6621,5.6621,5.6621,5.6621,5.6621,5.6621,5.6621,5.6621,5.6621,5.6621,5.6621,5.6621,5.6621,5.6797,5.7109,5.7441,5.8144,5.873,5.9101,4.0087,4.0087,4.0087,4.0087,4.0223,4.1119,4.1525,4.1525,4.1525,4.1238,4.0882,4.0798,4.0595,4.0206,4.0087,4.0087,4.0087,4.0087,4.0104,4.0087,4.0155,4.0634,4.1024,4.1375,4.2412,4.3336,4.4158,4.4802,4.5516,4.5792,4.6214,4.6783,4.7462,4.7737,4.7902,4.8049,4.8324,4.8324,4.8324,4.8324,4.8324,4.8324,4.8324,4.8364,4.855,4.8763,4.8949,4.9202,4.9532,4.9898,5.0159,5.0291,5.0565,5.0683,5.0683,5.0683,5.0741,5.0991,5.1298,5.1433,5.2299,5.3318,5.403,5.4876,5.5491,5.5684,5.5684,5.5684,5.5684,5.5748,5.5789,5.5872,5.6058,5.6242,5.638,5.6512,5.6562,5.6601,5.6621,5.6621,5.6621,5.6621,5.6621,5.6621,5.6621,5.6621,5.6621,5.6621,5.6621,5.6621,5.6621,5.6621,5.6621,5.6621,5.6621,5.6621,5.6621,5.6621,5.6621,5.6621,5.6621,5.6621,5.6621,5.6621,5.6621,5.6621,5.6621,5.6601,5.6601,5.6601,5.6719,5.7051,5.7402,5.7851,5.8359,4.0087,4.0087,4.0087,4.0087,4.0087,4.0223,4.0189,4.0121,4.0155,4.0155,4.0121,4.0172,4.0138,4.0104,4.0087,4.0087,4.0087,4.0087,4.0087,4.0087,4.0087,4.0497,4.075,4.1041,4.1874,4.2705,4.3441,4.4052,4.4674,4.5314,4.5718,4.603,4.6691,4.6985,4.726,4.7682,4.8086,4.8251,4.8324,4.8324,4.8324,4.8324,4.8324,4.8344,4.8402,4.855,4.8709,4.8963,4.9356,4.9719,5.0068,5.0336,5.0525,5.0683,5.0683,5.0683,5.0683,5.076,5.0818,5.0875,5.1318,5.2414,5.3433,5.4568,5.528,5.5453,5.5491,5.5649,5.5728,5.5808,5.5874,5.6045,5.6222,5.6374,5.6488,5.6562,5.6601,5.6621,5.6621,5.6621,5.6621,5.6621,5.6621,5.6621,5.6621,5.6621,5.6621,5.6621,5.6621,5.6621,5.6621,5.6621,5.6621,5.6621,5.6621,5.6621,5.6621,5.6621,5.6621,5.6621,5.6621,5.6621,5.6621,5.6621,5.6621,5.6601,5.6562,5.6543,5.6562,5.6562,5.6504,5.666,5.7012,5.7344,5.7812,4.0087,4.0087,4.0087,4.0087,4.0087,4.0087,4.0087,4.0087,4.0087,4.0087,4.0087,4.0087,4.0087,4.0087,4.0087,4.0087,4.0087,4.0087,4.0087,4.0087,4.0121,4.0449,4.0703,4.0949,4.1664,4.2374,4.3003,4.3393,4.3924,4.4672,4.5057,4.5186,4.5865,4.6159,4.6526,4.704,4.7627,4.8104,4.8177,4.8324,4.8324,4.8324,4.8324,4.8324,4.8324,4.8421,4.8513,4.8744,4.9075,4.9265,4.9827,5.0183,5.0206,5.0504,5.0683,5.0683,5.0683,5.0702,5.0683,5.0683,5.101,5.1625,5.2433,5.3414,5.4299,5.4914,5.5088,5.538,5.5731,5.5857,5.5996,5.6161,5.6301,5.643,5.6543,5.6582,5.6621,5.6621,5.6621,5.6621,5.6621,5.6621,5.6621,5.6621,5.6621,5.6621,5.6621,5.6621,5.6621,5.6621,5.6621,5.6621,5.6621,5.6621,5.6621,5.6621,5.6621,5.6621,5.6621,5.6621,5.6621,5.6621,5.6621,5.6601,5.6582,5.6523,5.6465,5.6458,5.6454,5.6361,5.6328,5.6426,5.6601,5.6933,5.7246,4.0087,4.0087,4.0087,4.0087,4.0087,4.0087,4.0087,4.0087,4.0087,4.0087,4.0087,4.0087,4.0087,4.0087,4.0087,4.0087,4.0087,4.0087,4.0087,4.0087,4.0087,4.0286,4.0497,4.0703,4.1286,4.1955,4.2462,4.2804,4.3378,4.3846,4.4232,4.4305,4.5021,4.5333,4.5663,4.6195,4.6801,4.737,4.7829,4.8196,4.8306,4.8288,4.8324,4.8324,4.8324,4.8324,4.8344,4.8586,4.8779,4.9062,4.9746,5.0043,5.0206,5.0585,5.0683,5.0683,5.0683,5.0683,5.0683,5.0683,5.0991,5.1279,5.1471,5.2164,5.3241,5.4068,5.4587,5.5051,5.5535,5.5932,5.6083,5.6222,5.6355,5.6484,5.6543,5.6601,5.6621,5.6621,5.6621,5.6621,5.6621,5.6621,5.6621,5.6621,5.6621,5.6621,5.6621,5.6621,5.6621,5.6621,5.6621,5.6621,5.6621,5.6621,5.6621,5.6621,5.6621,5.6621,5.6621,5.6621,5.6601,5.6601,5.6582,5.6562,5.6562,5.6481,5.638,5.6328,5.6305,5.6222,5.6178,5.626,5.6342,5.6465,5.6777,4.0087,4.0087,4.0087,4.0087,4.0087,4.0087,4.0087,4.0087,4.0087,4.0087,4.0087,4.0087,4.0087,4.0087,4.0087,4.0087,4.0087,4.0087,4.0087,4.0087,4.0087,4.0154,4.0154,4.0221,4.0861,4.1402,4.1835,4.2167,4.3032,4.3432,4.3505,4.3499,4.4213,4.4599,4.4727,4.5406,4.5902,4.614,4.7076,4.7792,4.8086,4.8214,4.8324,4.8324,4.8324,4.8324,4.8306,4.844,4.8657,4.9139,4.9589,4.9898,5.0313,5.0565,5.0585,5.0683,5.0683,5.0683,5.0683,5.0683,5.0683,5.076,5.0721,5.1241,5.2183,5.3145,5.3741,5.4728,5.5269,5.5845,5.6096,5.6309,5.6481,5.6543,5.6582,5.6621,5.6621,5.6621,5.6621,5.6621,5.6621,5.6621,5.6621,5.6621,5.6621,5.6621,5.6621,5.6621,5.6621,5.6621,5.6621,5.6621,5.6621,5.6621,5.6621,5.6621,5.6621,5.6621,5.6601,5.6562,5.6523,5.6543,5.6562,5.6488,5.6416,5.6374,5.6293,5.6213,5.6127,5.6084,5.6057,5.6122,5.6158,5.6169,5.6339,4.0087,4.0087,4.0087,4.0087,4.0087,4.0087,4.0087,4.0087,4.0087,4.0087,4.0087,4.0087,4.0087,4.0087,4.0087,4.0087,4.0087,4.0087,4.0087,4.0087,4.0087,4.0087,4.0087,4.0121,4.0546,4.0874,4.1251,4.1647,4.2404,4.2752,4.2939,4.2995,4.3579,4.3901,4.3956,4.4654,4.5002,4.5057,4.5957,4.6874,4.726,4.7957,4.8324,4.8288,4.8269,4.8306,4.8364,4.8586,4.8568,4.8692,4.9234,4.9719,5.0202,5.0249,5.0421,5.0624,5.0683,5.0683,5.0683,5.0683,5.0683,5.0683,5.0702,5.0798,5.126,5.2068,5.2993,5.4097,5.4982,5.553,5.5996,5.6239,5.6484,5.6504,5.6621,5.6621,5.6621,5.6621,5.6621,5.6621,5.6621,5.6621,5.6621,5.6621,5.6621,5.6621,5.6621,5.6621,5.6621,5.6621,5.6621,5.6621,5.6621,5.6621,5.6601,5.6582,5.6562,5.6523,5.6504,5.6484,5.6454,5.6421,5.6386,5.632,5.6242,5.6193,5.6131,5.6019,5.5936,5.591,5.5896,5.5927,5.5896,5.5896,5.6035,4.0087,4.0087,4.0087,4.0087,4.0087,4.0087,4.0087,4.0087,4.0087,4.0087,4.0087,4.0087,4.0087,4.0087,4.0087,4.0087,4.0087,4.0087,4.0087,4.0087,4.0087,4.0087,4.0087,4.0121,4.0497,4.0827,4.1206,4.1664,4.2038,4.248,4.2788,4.3014,4.3356,4.3497,4.3552,4.3975,4.4213,4.4213,4.5002,4.5608,4.625,4.7058,4.7719,4.7792,4.8049,4.8177,4.8382,4.8532,4.8604,4.8692,4.9202,4.9664,5.0019,5.0135,5.0336,5.0565,5.0683,5.0683,5.0683,5.0683,5.0683,5.0683,5.0683,5.076,5.0779,5.1549,5.2022,5.3053,5.3967,5.4568,5.4983,5.5277,5.5683,5.5859,5.6328,5.6621,5.6621,5.6621,5.6621,5.6621,5.6621,5.6621,5.6621,5.6621,5.6621,5.6621,5.6621,5.6621,5.6621,5.6582,5.6582,5.6582,5.6562,5.6582,5.6601,5.6543,5.6484,5.6445,5.6411,5.6335,5.6305,5.6261,5.6222,5.6158,5.6103,5.6019,5.5932,5.5874,5.5807,5.5789,5.5768,5.5728,5.5684,5.5684,5.5827,4.0087,4.0087,4.0087,4.0087,4.0087,4.0087,4.0087,4.0087,4.0087,4.0087,4.0087,4.0087,4.0087,4.0087,4.0087,4.0087,4.0087,4.0087,4.0087,4.0087,4.0087,4.0087,4.0087,4.0121,4.0417,4.0797,4.1223,4.1664,4.2121,4.2519,4.2902,4.3321,4.3444,4.3479,4.3479,4.3497,4.3608,4.3791,4.4213,4.4488,4.5223,4.6067,4.6709,4.7223,4.7572,4.7994,4.8086,4.8198,4.8365,4.8779,4.9108,4.9532,4.9872,5.0043,5.0377,5.0584,5.0683,5.0683,5.0683,5.0683,5.0683,5.0683,5.0683,5.0702,5.074,5.1001,5.1463,5.2033,5.295,5.3666,5.4079,5.4473,5.4902,5.5449,5.6035,5.6562,5.6562,5.6582,5.6582,5.6582,5.6621,5.6621,5.6621,5.6621,5.6621,5.6621,5.6621,5.6621,5.6601,5.6543,5.6523,5.6504,5.6465,5.6504,5.6539,5.6462,5.6374,5.6328,5.626,5.6202,5.6122,5.6063,5.602,5.6063,5.5986,5.5891,5.5861,5.5808,5.5728,5.5684,5.5684,5.5684,5.5684,5.5684,5.5684,4.0087,4.0087,4.0087,4.0087,4.0087,4.0087,4.0087,4.0087,4.007,4.0087,4.007,4.007,4.0087,4.0087,4.0087,4.0087,4.0087,4.0087,4.0087,4.0087,4.0087,4.0087,4.0087,4.0138,4.0171,4.0466,4.0827,4.1133,4.1664,4.2302,4.2711,4.2846,4.3375,4.3444,4.3479,4.3479,4.3497,4.3608,4.3608,4.3864,4.4232,4.5057,4.592,4.6214,4.625,4.6783,4.7131,4.7296,4.7756,4.8292,4.8757,4.9127,4.9589,4.9924,5.0249,5.0584,5.0683,5.0683,5.0683,5.0683,5.0683,5.0683,5.0683,5.0683,5.0739,5.0855,5.1203,5.1403,5.2247,5.306,5.3516,5.3887,5.4316,5.5117,5.5781,5.6191,5.6406,5.6426,5.6465,5.6543,5.6621,5.6621,5.6621,5.6621,5.6621,5.6621,5.6621,5.6601,5.6601,5.6523,5.6458,5.6421,5.638,5.638,5.6391,5.6301,5.6203,5.6161,5.6103,5.6015,5.5913,5.5827,5.5808,5.588,5.5844,5.5769,5.5747,5.5728,5.5726,5.5684,5.5684,5.5684,5.5684,5.5684,5.5684]}]]